[[{"header":{"parameterUnit":"m.s-1","parameterCategory":1,"la1":31.0,"la2":29.5877,"lo1":-88.7671,"lo2":-86.6584,"dy":0.0162,"dx":0.0185,"nx":115,"ny":88,"refTime":"2023-02-26T06:00:00:Z","depth":0,"parameterNumber":2,"parameterNumberName":"U-component_of_WINDS"},"data":[0.0,0.0,0.0,0.0,0.0,0.0,0.0,0.0,0.0,0.0,0.0,0.0,0.0,0.0,0.0,0.0,0.0,0.0,0.0,0.0,0.0,0.0,0.0,0.0,0.0,0.0,0.0,0.0,0.0,0.0,0.0,0.0,0.0,0.0,0.0,0.0,0.0,0.0,0.0,0.0,0.0,0.0,0.0,0.0,0.0,0.0,0.0,0.0,0.0,0.0,0.0,0.0,0.0,0.0,0.0,0.0,0.0,0.0,0.0,0.0,0.0,0.0,0.0,0.0,0.0,0.0,0.0,0.0,0.0,0.0,0.0,0.0,0.0,0.0,0.0,0.0,0.0,0.0,0.0,0.0,0.0,0.0,0.0,0.0,0.0,0.0,0.0,0.0,0.0,0.0,0.0,0.0,0.0,0.0,0.0,0.0,0.0,0.0,0.0,0.0,0.0,0.0,0.0,0.0,0.0,0.0,0.0,0.0,0.0,0.0,0.0,0.0,0.0,0.0,0.0,0.0,0.0,0.0,0.0,0.0,0.0,0.0,0.0,0.0,0.0,0.0,0.0,0.0,0.0,0.0,0.0,0.0,0.0,0.0,0.0,0.0,0.0,0.0,0.0,0.0,0.0,0.0,0.0,0.0,0.0,0.0,0.0,0.0,0.0,0.0,0.0,0.0,0.0,0.0,0.0,0.0,0.0,0.0,0.0,0.0,0.0,0.0,0.0,0.0,0.0,0.0,0.0,0.0,0.0,0.0,0.0,0.0,0.0,0.0,0.0,0.0,0.0,0.0,0.0,0.0,0.0,0.0,0.0,0.0,0.0,0.0,0.0,0.0,0.0,0.0,0.0,0.0,0.0,0.0,0.0,0.0,0.0,0.0,0.0,0.0,0.0,0.0,0.0,0.0,0.0,0.0,0.0,0.0,0.0,0.0,0.0,0.0,0.0,0.0,0.0,0.0,0.0,0.0,0.0,0.0,0.0,0.0,0.0,0.0,0.0,0.0,0.0,0.0,0.0,0.0,0.0,0.0,0.0,0.0,0.0,0.0,0.0,0.0,0.0,0.0,0.0,0.0,0.0,0.0,0.0,0.0,0.0,0.0,0.0,0.0,0.0,0.0,0.0,0.0,0.0,0.0,0.0,0.0,0.0,0.0,0.0,0.0,0.0,0.0,0.0,0.0,0.0,0.0,0.0,0.0,0.0,0.0,0.0,0.0,0.0,0.0,0.0,0.0,0.0,0.0,0.0,0.0,0.0,0.0,0.0,0.0,0.0,0.0,0.0,0.0,0.0,0.0,0.0,0.0,0.0,0.0,0.0,0.0,0.0,0.0,0.0,0.0,0.0,0.0,0.0,0.0,0.0,0.0,0.0,0.0,0.0,0.0,0.0,0.0,0.0,0.0,0.0,0.0,0.0,0.0,0.0,0.0,0.0,0.0,0.0,0.0,0.0,0.0,0.0,0.0,0.0,0.0,0.0,0.0,0.0,0.0,0.0,0.0,0.0,0.0,0.0,0.0,0.0,0.0,0.0,0.0,0.0,0.0,0.0,0.0,0.0,0.0,0.0,0.0,0.0,0.0,0.0,0.0,0.0,0.0,0.0,0.0,0.0,0.0,0.0,0.0,0.0,0.0,0.0,0.0,0.0,0.0,0.0,0.0,0.0,0.0,0.0,0.0,0.0,0.0,0.0,0.0,0.0,0.0,0.0,0.0,0.0,0.0,0.0,0.0,0.0,0.0,0.0,0.0,0.0,0.0,0.0,0.0,0.0,0.0,0.0,0.0,0.0,0.0,0.0,0.0,0.0,0.0,0.0,0.0,0.0,0.0,0.0,0.0,0.0,0.0,0.0,0.0,0.0,0.0,0.0,0.0,0.0,0.0,0.0,0.0,0.0,0.0,0.0,0.0,0.0,0.0,0.0,0.0,0.0,0.0,0.0,0.0,0.0,0.0,0.0,0.0,0.0,0.0,0.0,0.0,0.0,0.0,0.0,0.0,0.0,0.0,0.0,0.0,0.0,0.0,0.0,0.0,0.0,0.0,0.0,0.0,0.0,0.0,0.0,0.0,0.0,0.0,0.0,0.0,0.0,0.0,0.0,0.0,0.0,0.0,0.0,0.0,0.0,0.0,0.0,0.0,0.0,0.0,0.0,0.0,0.0,0.0,0.0,0.0,0.0,0.0,0.0,0.0,0.0,0.0,0.0,0.0,0.0,0.0,0.0,0.0,0.0,0.0,0.0,0.0,0.0,0.0,0.0,0.0,0.0,0.0,0.0,0.0,0.0,0.0,0.0,0.0,0.0,0.0,0.0,0.0,0.0,0.0,0.0,0.0,0.0,0.0,0.0,0.0,0.0,0.0,0.0,0.0,0.0,0.0,0.0,0.0,0.0,0.0,0.0,0.0,0.0,0.0,0.0,0.0,0.0,0.0,0.0,0.0,0.0,0.0,0.0,0.0,0.0,0.0,0.0,0.0,0.0,0.0,0.0,0.0,0.0,0.0,0.0,0.0,0.0,0.0,0.0,0.0,0.0,0.0,0.0,0.0,0.0,0.0,0.0,0.0,0.0,0.0,0.0,0.0,0.0,0.0,0.0,0.0,0.0,0.0,0.0,0.0,0.0,0.0,0.0,0.0,0.0,0.0,0.0,0.0,0.0,0.0,0.0,0.0,0.0,0.0,0.0,0.0,0.0,0.0,0.0,0.0,0.0,0.0,0.0,0.0,0.0,0.0,0.0,0.0,0.0,0.0,0.0,0.0,0.0,0.0,0.0,0.0,0.0,0.0,0.0,0.0,0.0,0.0,0.0,0.0,0.0,0.0,0.0,0.0,0.0,0.0,0.0,0.0,0.0,0.0,0.0,0.0,0.0,0.0,0.0,0.0,0.0,0.0,0.0,0.0,0.0,0.0,0.0,0.0,0.0,0.0,0.0,0.0,0.0,0.0,0.0,0.0,0.0,0.0,0.0,0.0,0.0,0.0,0.0,0.0,0.0,0.0,0.0,0.0,0.0,0.0,0.0,0.0,0.0,0.0,0.0,0.0,0.0,0.0,0.0,0.0,0.0,0.0,0.0,0.0,0.0,0.0,0.0,0.0,0.0,0.0,0.0,0.0,0.0,0.0,0.0,0.0,0.0,0.0,0.0,0.0,0.0,0.0,0.0,0.0,0.0,0.0,0.0,0.0,0.0,0.0,0.0,0.0,0.0,0.0,0.0,0.0,0.0,0.0,0.0,0.0,0.0,0.0,0.0,0.0,0.0,0.0,0.0,0.0,0.0,0.0,0.0,0.0,0.0,0.0,0.0,0.0,0.0,0.0,0.0,0.0,0.0,0.0,0.0,0.0,0.0,0.0,0.0,0.0,0.0,0.0,0.0,0.0,0.0,0.0,0.0,0.0,0.0,0.0,0.0,0.0,0.0,0.0,0.0,0.0,0.0,0.0,0.0,0.0,0.0,0.0,0.0,0.0,0.0,0.0,0.0,0.0,0.0,0.0,0.0,0.0,0.0,0.0,0.0,0.0,0.0,0.0,0.0,0.0,0.0,0.0,0.0,0.0,0.0,0.0,0.0,0.0,0.0,0.0,0.0,0.0,0.0,0.0,0.0,0.0,0.0,0.0,0.0,0.0,0.0,0.0,0.0,0.0,0.0,0.0,0.0,0.0,0.0,0.0,0.0,0.0,0.0,0.0,0.0,0.0,0.0,0.0,0.0,0.0,0.0,0.0,0.0,0.0,0.0,0.0,0.0,0.0,0.0,0.0,0.0,0.0,0.0,0.0,0.0,0.0,0.0,0.0,0.0,0.0,0.0,0.0,0.0,0.0,0.0,0.0,0.0,0.0,0.0,0.0,0.0,0.0,0.0,0.0,0.0,0.0,0.0,0.0,0.0,0.0,0.0,0.0,0.0,0.0,0.0,0.0,0.0,0.0,0.0,0.0,0.0,0.0,0.0,0.0,0.0,0.0,0.0,0.0,0.0,0.0,0.0,0.0,0.0,0.0,0.0,0.0,0.0,0.0,0.0,0.0,0.0,0.0,0.0,0.0,0.0,0.0,0.0,0.0,0.0,0.0,0.0,0.0,0.0,0.0,0.0,0.0,0.0,0.0,0.0,0.0,0.0,0.0,0.0,0.0,0.0,0.0,0.0,0.0,0.0,0.0,0.0,0.0,0.0,0.0,0.0,0.0,0.0,0.0,0.0,0.0,0.0,0.0,0.0,0.0,0.0,0.0,0.0,0.0,0.0,0.0,0.0,0.0,0.0,0.0,0.0,0.0,0.0,0.0,-3.6772,0.0,0.0,0.0,0.0,0.0,0.0,0.0,0.0,0.0,0.0,0.0,0.0,0.0,0.0,0.0,0.0,0.0,0.0,0.0,0.0,0.0,0.0,0.0,0.0,0.0,0.0,0.0,0.0,0.0,0.0,0.0,0.0,0.0,0.0,0.0,0.0,0.0,0.0,0.0,0.0,0.0,0.0,0.0,0.0,0.0,0.0,0.0,0.0,0.0,0.0,0.0,0.0,0.0,0.0,0.0,0.0,0.0,0.0,0.0,0.0,0.0,0.0,0.0,0.0,0.0,0.0,0.0,0.0,0.0,0.0,0.0,0.0,0.0,0.0,0.0,0.0,0.0,0.0,0.0,0.0,0.0,0.0,0.0,0.0,0.0,0.0,0.0,0.0,0.0,0.0,0.0,0.0,0.0,0.0,0.0,0.0,0.0,0.0,0.0,0.0,0.0,0.0,0.0,0.0,0.0,0.0,0.0,0.0,0.0,0.0,-3.664,-3.636,-3.7611,-3.7903,-3.7049,0.0,0.0,0.0,0.0,0.0,0.0,0.0,0.0,0.0,0.0,0.0,0.0,0.0,0.0,0.0,0.0,0.0,0.0,0.0,0.0,0.0,0.0,0.0,0.0,0.0,0.0,0.0,0.0,0.0,0.0,0.0,0.0,0.0,0.0,0.0,0.0,0.0,0.0,0.0,0.0,0.0,0.0,0.0,0.0,0.0,0.0,0.0,0.0,0.0,0.0,0.0,0.0,0.0,0.0,0.0,0.0,0.0,0.0,0.0,0.0,0.0,0.0,0.0,0.0,0.0,0.0,0.0,0.0,0.0,0.0,0.0,0.0,0.0,0.0,0.0,0.0,0.0,0.0,0.0,0.0,0.0,0.0,0.0,0.0,0.0,0.0,0.0,0.0,0.0,0.0,0.0,0.0,0.0,0.0,0.0,0.0,0.0,0.0,0.0,0.0,0.0,0.0,0.0,0.0,0.0,0.0,0.0,0.0,0.0,0.0,0.0,0.0,-3.8486,-3.8614,-3.7428,0.0,0.0,0.0,0.0,0.0,0.0,0.0,0.0,0.0,0.0,0.0,0.0,0.0,0.0,0.0,0.0,0.0,0.0,0.0,0.0,0.0,0.0,0.0,0.0,0.0,0.0,0.0,0.0,0.0,0.0,0.0,0.0,0.0,0.0,0.0,0.0,0.0,0.0,0.0,0.0,0.0,0.0,0.0,0.0,0.0,0.0,0.0,0.0,0.0,0.0,0.0,0.0,0.0,0.0,0.0,0.0,0.0,0.0,0.0,0.0,0.0,0.0,0.0,0.0,0.0,0.0,0.0,0.0,0.0,0.0,0.0,0.0,0.0,0.0,0.0,0.0,0.0,0.0,0.0,0.0,0.0,0.0,0.0,0.0,0.0,0.0,0.0,0.0,0.0,0.0,0.0,0.0,0.0,0.0,0.0,0.0,0.0,0.0,0.0,0.0,0.0,0.0,0.0,0.0,0.0,0.0,0.0,0.0,0.0,0.0,-3.6988,-3.8563,-3.8762,0.0,-3.8633,0.0,0.0,0.0,0.0,0.0,0.0,0.0,0.0,0.0,0.0,0.0,0.0,0.0,0.0,0.0,0.0,0.0,0.0,0.0,0.0,0.0,0.0,0.0,0.0,0.0,0.0,0.0,0.0,0.0,0.0,0.0,0.0,0.0,0.0,0.0,0.0,0.0,0.0,0.0,0.0,0.0,0.0,0.0,0.0,0.0,0.0,0.0,0.0,0.0,0.0,0.0,0.0,0.0,0.0,0.0,0.0,0.0,0.0,0.0,0.0,0.0,0.0,0.0,0.0,0.0,0.0,0.0,0.0,0.0,0.0,0.0,0.0,0.0,0.0,0.0,0.0,0.0,0.0,0.0,0.0,0.0,0.0,0.0,0.0,0.0,0.0,0.0,0.0,0.0,0.0,0.0,0.0,0.0,0.0,0.0,0.0,0.0,0.0,0.0,0.0,0.0,0.0,0.0,0.0,0.0,0.0,0.0,0.0,0.0,0.0,-3.7228,-3.9335,-3.9409,-3.9142,0.0,0.0,0.0,0.0,0.0,0.0,0.0,0.0,0.0,0.0,0.0,0.0,0.0,0.0,0.0,0.0,0.0,0.0,0.0,0.0,0.0,0.0,0.0,0.0,0.0,0.0,0.0,0.0,0.0,0.0,0.0,0.0,0.0,0.0,0.0,0.0,0.0,0.0,0.0,0.0,0.0,0.0,0.0,0.0,0.0,0.0,0.0,0.0,0.0,0.0,0.0,0.0,0.0,0.0,0.0,0.0,0.0,0.0,0.0,0.0,0.0,0.0,0.0,0.0,0.0,0.0,0.0,0.0,0.0,0.0,0.0,0.0,0.0,0.0,0.0,0.0,0.0,0.0,0.0,0.0,0.0,0.0,0.0,0.0,0.0,0.0,0.0,0.0,0.0,0.0,0.0,0.0,0.0,0.0,0.0,0.0,0.0,0.0,0.0,0.0,0.0,0.0,0.0,0.0,0.0,0.0,0.0,0.0,0.0,0.0,-3.6553,-3.7796,-3.9829,-3.9591,-3.9159,-3.8682,0.0,0.0,0.0,0.0,0.0,0.0,0.0,0.0,0.0,0.0,0.0,0.0,0.0,0.0,0.0,0.0,0.0,0.0,0.0,0.0,0.0,0.0,0.0,0.0,0.0,0.0,0.0,0.0,0.0,0.0,0.0,0.0,0.0,0.0,0.0,0.0,0.0,0.0,0.0,0.0,0.0,0.0,0.0,0.0,0.0,0.0,0.0,0.0,0.0,0.0,0.0,0.0,0.0,0.0,0.0,0.0,0.0,0.0,0.0,0.0,0.0,0.0,0.0,0.0,0.0,0.0,0.0,0.0,0.0,0.0,0.0,0.0,0.0,0.0,0.0,0.0,0.0,0.0,0.0,0.0,0.0,0.0,0.0,0.0,0.0,0.0,0.0,0.0,0.0,0.0,0.0,0.0,0.0,0.0,0.0,0.0,0.0,0.0,0.0,0.0,0.0,0.0,0.0,0.0,0.0,0.0,0.0,0.0,-3.6957,-3.77,-3.886,-4.0328,-3.9059,-3.8624,0.0,0.0,0.0,0.0,0.0,0.0,0.0,0.0,0.0,0.0,0.0,0.0,0.0,0.0,0.0,0.0,0.0,0.0,0.0,0.0,0.0,0.0,0.0,0.0,0.0,0.0,0.0,0.0,0.0,0.0,0.0,0.0,0.0,0.0,0.0,0.0,0.0,0.0,0.0,0.0,0.0,0.0,0.0,0.0,0.0,0.0,0.0,0.0,0.0,0.0,0.0,0.0,0.0,0.0,0.0,0.0,0.0,0.0,0.0,0.0,0.0,0.0,0.0,0.0,0.0,0.0,0.0,0.0,0.0,0.0,0.0,0.0,0.0,0.0,0.0,0.0,0.0,0.0,0.0,0.0,0.0,0.0,0.0,0.0,0.0,0.0,0.0,0.0,0.0,0.0,0.0,0.0,0.0,0.0,0.0,0.0,0.0,0.0,0.0,0.0,0.0,0.0,0.0,0.0,0.0,0.0,0.0,0.0,0.0,-3.6309,-3.8061,-3.9022,-3.9042,-3.9022,-3.8912,0.0,0.0,0.0,0.0,0.0,0.0,0.0,0.0,0.0,0.0,0.0,0.0,0.0,0.0,0.0,0.0,0.0,0.0,0.0,0.0,0.0,0.0,0.0,0.0,0.0,0.0,0.0,0.0,0.0,0.0,0.0,0.0,0.0,0.0,0.0,0.0,0.0,0.0,0.0,0.0,0.0,0.0,0.0,0.0,0.0,0.0,0.0,0.0,0.0,0.0,0.0,0.0,0.0,0.0,0.0,0.0,0.0,0.0,0.0,0.0,0.0,0.0,0.0,0.0,0.0,0.0,0.0,0.0,0.0,0.0,0.0,0.0,0.0,0.0,0.0,0.0,0.0,0.0,0.0,0.0,0.0,0.0,0.0,0.0,0.0,0.0,0.0,0.0,0.0,0.0,0.0,0.0,0.0,0.0,0.0,0.0,0.0,0.0,0.0,0.0,0.0,0.0,0.0,0.0,0.0,0.0,0.0,0.0,0.0,-3.6616,0.0,-3.8929,-3.8625,-3.8929,-3.8837,0.0,0.0,0.0,0.0,0.0,0.0,0.0,0.0,0.0,0.0,0.0,0.0,0.0,0.0,0.0,0.0,0.0,0.0,0.0,0.0,0.0,0.0,0.0,0.0,0.0,0.0,0.0,0.0,0.0,0.0,0.0,0.0,0.0,0.0,0.0,0.0,0.0,0.0,0.0,0.0,0.0,0.0,0.0,0.0,0.0,0.0,0.0,0.0,0.0,0.0,0.0,0.0,0.0,0.0,0.0,0.0,0.0,0.0,0.0,0.0,0.0,0.0,0.0,0.0,0.0,0.0,0.0,0.0,0.0,0.0,0.0,0.0,0.0,0.0,0.0,0.0,0.0,0.0,0.0,0.0,0.0,0.0,0.0,0.0,0.0,0.0,0.0,0.0,0.0,0.0,0.0,0.0,0.0,0.0,0.0,0.0,0.0,0.0,0.0,0.0,0.0,0.0,0.0,0.0,0.0,0.0,0.0,0.0,-3.7375,-3.8136,-3.8257,-3.8692,-3.9368,-3.8711,-3.8294,0.0,0.0,0.0,0.0,0.0,0.0,0.0,0.0,0.0,0.0,0.0,0.0,0.0,0.0,0.0,0.0,0.0,0.0,0.0,0.0,0.0,0.0,0.0,0.0,0.0,0.0,0.0,0.0,0.0,0.0,0.0,0.0,0.0,0.0,0.0,0.0,0.0,0.0,0.0,0.0,0.0,0.0,0.0,0.0,0.0,0.0,0.0,0.0,0.0,0.0,0.0,0.0,0.0,0.0,0.0,0.0,0.0,0.0,0.0,0.0,0.0,0.0,0.0,0.0,0.0,0.0,0.0,0.0,0.0,0.0,0.0,0.0,0.0,0.0,0.0,0.0,0.0,0.0,0.0,0.0,0.0,0.0,0.0,0.0,0.0,0.0,0.0,0.0,0.0,0.0,0.0,0.0,0.0,0.0,0.0,0.0,0.0,0.0,0.0,0.0,0.0,0.0,0.0,0.0,0.0,0.0,0.0,0.0,0.0,-3.8239,-3.829,-3.8944,-4.018,-3.8999,-3.8766,0.0,0.0,0.0,0.0,0.0,0.0,0.0,0.0,0.0,0.0,0.0,0.0,0.0,0.0,0.0,0.0,0.0,0.0,0.0,0.0,0.0,0.0,0.0,0.0,0.0,0.0,0.0,0.0,0.0,0.0,0.0,0.0,0.0,0.0,0.0,0.0,0.0,0.0,0.0,0.0,0.0,0.0,0.0,0.0,0.0,0.0,0.0,0.0,0.0,0.0,0.0,0.0,0.0,0.0,0.0,0.0,0.0,0.0,0.0,0.0,0.0,0.0,0.0,0.0,0.0,0.0,0.0,0.0,0.0,0.0,0.0,0.0,0.0,0.0,0.0,0.0,0.0,0.0,0.0,0.0,0.0,0.0,0.0,0.0,0.0,0.0,0.0,0.0,0.0,0.0,0.0,0.0,0.0,0.0,0.0,0.0,0.0,0.0,0.0,0.0,0.0,0.0,0.0,0.0,0.0,0.0,0.0,0.0,0.0,-3.9634,-3.9376,-3.9686,-4.0687,-3.9757,-3.9361,-3.9604,0.0,0.0,0.0,0.0,0.0,0.0,0.0,0.0,0.0,0.0,0.0,0.0,0.0,0.0,0.0,0.0,0.0,0.0,0.0,0.0,0.0,0.0,0.0,0.0,0.0,0.0,0.0,0.0,0.0,0.0,0.0,0.0,0.0,0.0,0.0,0.0,0.0,0.0,0.0,0.0,0.0,0.0,0.0,0.0,0.0,0.0,0.0,0.0,0.0,0.0,0.0,0.0,0.0,0.0,0.0,0.0,0.0,0.0,0.0,0.0,0.0,0.0,0.0,0.0,0.0,0.0,0.0,0.0,0.0,0.0,0.0,0.0,0.0,0.0,0.0,0.0,0.0,0.0,0.0,0.0,0.0,0.0,0.0,0.0,0.0,0.0,0.0,0.0,0.0,0.0,0.0,0.0,0.0,0.0,0.0,0.0,0.0,0.0,0.0,0.0,0.0,0.0,0.0,0.0,0.0,0.0,0.0,0.0,-4.2032,-4.1484,-4.1138,-4.0941,-4.0865,-4.003,0.0,0.0,0.0,0.0,0.0,0.0,0.0,0.0,0.0,0.0,0.0,0.0,0.0,0.0,0.0,0.0,0.0,0.0,0.0,0.0,0.0,0.0,0.0,0.0,0.0,0.0,0.0,0.0,0.0,0.0,0.0,0.0,0.0,0.0,0.0,0.0,0.0,0.0,0.0,0.0,0.0,0.0,0.0,0.0,0.0,0.0,0.0,0.0,0.0,0.0,0.0,0.0,0.0,0.0,0.0,0.0,0.0,0.0,0.0,0.0,0.0,0.0,0.0,0.0,0.0,0.0,0.0,0.0,0.0,0.0,0.0,0.0,0.0,0.0,0.0,0.0,0.0,0.0,0.0,0.0,0.0,0.0,0.0,0.0,0.0,0.0,0.0,0.0,0.0,0.0,0.0,0.0,0.0,0.0,0.0,0.0,0.0,0.0,0.0,0.0,0.0,0.0,0.0,0.0,0.0,0.0,0.0,0.0,0.0,-4.365,-4.5214,-4.5159,-4.334,-4.2105,-4.098,0.0,0.0,0.0,0.0,0.0,0.0,0.0,0.0,0.0,0.0,0.0,0.0,0.0,0.0,0.0,0.0,0.0,0.0,0.0,0.0,0.0,0.0,0.0,0.0,0.0,0.0,0.0,0.0,0.0,0.0,0.0,0.0,0.0,0.0,0.0,0.0,0.0,0.0,0.0,0.0,0.0,0.0,0.0,0.0,0.0,0.0,0.0,0.0,0.0,0.0,0.0,0.0,0.0,0.0,0.0,0.0,0.0,0.0,0.0,0.0,0.0,0.0,0.0,0.0,0.0,0.0,0.0,0.0,0.0,0.0,0.0,0.0,0.0,0.0,0.0,0.0,0.0,0.0,0.0,0.0,0.0,0.0,0.0,0.0,0.0,0.0,0.0,0.0,0.0,0.0,0.0,0.0,0.0,0.0,0.0,0.0,0.0,0.0,0.0,0.0,0.0,0.0,0.0,0.0,0.0,0.0,0.0,0.0,-4.2902,-4.4718,-4.7749,-4.8164,-4.5751,-4.4788,-4.3101,0.0,0.0,0.0,0.0,0.0,0.0,0.0,0.0,0.0,0.0,0.0,0.0,0.0,0.0,0.0,0.0,0.0,0.0,0.0,0.0,0.0,0.0,0.0,0.0,0.0,0.0,0.0,0.0,0.0,0.0,0.0,0.0,0.0,0.0,0.0,0.0,0.0,0.0,0.0,0.0,0.0,0.0,0.0,0.0,0.0,0.0,0.0,0.0,0.0,0.0,0.0,0.0,0.0,0.0,0.0,0.0,0.0,0.0,0.0,0.0,0.0,0.0,0.0,0.0,0.0,0.0,0.0,0.0,0.0,0.0,0.0,0.0,0.0,0.0,0.0,0.0,0.0,0.0,0.0,0.0,0.0,0.0,0.0,0.0,0.0,0.0,0.0,0.0,0.0,0.0,0.0,0.0,0.0,0.0,0.0,0.0,0.0,0.0,0.0,0.0,0.0,0.0,0.0,0.0,0.0,0.0,0.0,0.0,-4.453,-4.5454,-4.9347,-5.0307,-4.8079,-4.7747,-4.5408,0.0,0.0,0.0,0.0,0.0,0.0,0.0,0.0,0.0,0.0,0.0,0.0,0.0,0.0,0.0,0.0,0.0,0.0,0.0,0.0,0.0,0.0,0.0,0.0,0.0,0.0,0.0,0.0,0.0,0.0,0.0,0.0,0.0,0.0,0.0,0.0,0.0,0.0,0.0,0.0,0.0,0.0,0.0,0.0,0.0,0.0,0.0,0.0,0.0,0.0,0.0,0.0,0.0,0.0,0.0,0.0,0.0,0.0,0.0,0.0,0.0,0.0,0.0,0.0,0.0,0.0,0.0,0.0,0.0,0.0,0.0,0.0,0.0,0.0,0.0,0.0,0.0,0.0,0.0,0.0,0.0,0.0,0.0,0.0,0.0,0.0,0.0,0.0,0.0,0.0,0.0,0.0,0.0,0.0,0.0,0.0,0.0,0.0,0.0,0.0,0.0,0.0,0.0,0.0,0.0,0.0,0.0,0.0,-4.4802,-4.6269,-5.018,-5.1393,-4.9641,-4.7159,-4.4169,0.0,0.0,0.0,0.0,0.0,0.0,0.0,0.0,0.0,0.0,0.0,0.0,0.0,0.0,0.0,0.0,0.0,0.0,0.0,0.0,0.0,0.0,0.0,0.0,0.0,0.0,0.0,0.0,0.0,0.0,0.0,0.0,0.0,0.0,0.0,0.0,0.0,0.0,0.0,0.0,0.0,0.0,0.0,0.0,0.0,0.0,0.0,0.0,-3.5694,0.0,0.0,0.0,0.0,0.0,0.0,0.0,0.0,0.0,0.0,0.0,0.0,0.0,0.0,0.0,0.0,0.0,0.0,0.0,0.0,0.0,0.0,0.0,0.0,0.0,0.0,0.0,0.0,0.0,0.0,0.0,0.0,0.0,0.0,0.0,0.0,0.0,0.0,0.0,0.0,0.0,0.0,0.0,0.0,0.0,0.0,0.0,0.0,0.0,0.0,0.0,0.0,0.0,0.0,0.0,0.0,0.0,0.0,0.0,-4.4675,-4.7047,-4.989,-5.0959,-5.0021,-4.6633,-4.3769,0.0,0.0,0.0,0.0,0.0,0.0,0.0,0.0,0.0,0.0,0.0,0.0,0.0,0.0,0.0,0.0,0.0,0.0,0.0,0.0,0.0,0.0,0.0,0.0,0.0,0.0,0.0,0.0,0.0,0.0,0.0,0.0,0.0,0.0,0.0,0.0,0.0,0.0,0.0,0.0,0.0,0.0,0.0,0.0,0.0,0.0,0.0,0.0,0.0,0.0,0.0,0.0,0.0,0.0,0.0,0.0,0.0,0.0,0.0,0.0,0.0,0.0,0.0,0.0,0.0,0.0,0.0,0.0,0.0,0.0,0.0,0.0,0.0,0.0,0.0,0.0,0.0,0.0,0.0,0.0,0.0,0.0,0.0,0.0,0.0,0.0,0.0,0.0,0.0,0.0,0.0,0.0,0.0,0.0,0.0,0.0,0.0,0.0,0.0,0.0,0.0,0.0,0.0,0.0,0.0,0.0,0.0,-4.1524,-4.4584,-4.7609,-4.9257,-5.0003,-4.9695,-4.6071,-4.3661,-4.2737,0.0,0.0,0.0,0.0,0.0,0.0,0.0,0.0,0.0,0.0,0.0,0.0,0.0,0.0,0.0,0.0,0.0,0.0,0.0,0.0,0.0,0.0,0.0,0.0,0.0,0.0,0.0,0.0,0.0,0.0,0.0,0.0,0.0,0.0,0.0,0.0,0.0,0.0,-3.5177,-3.5869,0.0,0.0,0.0,0.0,0.0,0.0,0.0,0.0,-3.6075,0.0,0.0,0.0,0.0,0.0,0.0,0.0,0.0,0.0,0.0,0.0,0.0,0.0,0.0,0.0,0.0,0.0,0.0,0.0,0.0,0.0,0.0,0.0,0.0,0.0,0.0,0.0,0.0,0.0,0.0,0.0,0.0,0.0,0.0,0.0,0.0,0.0,0.0,0.0,0.0,0.0,0.0,0.0,0.0,0.0,0.0,0.0,0.0,0.0,0.0,0.0,0.0,0.0,0.0,0.0,0.0,-4.0112,-4.2629,-4.5146,-4.7663,-4.9257,-4.9438,-4.8116,-4.5508,-4.3407,-4.1922,0.0,0.0,0.0,0.0,0.0,0.0,0.0,0.0,0.0,0.0,0.0,0.0,0.0,0.0,0.0,0.0,0.0,0.0,0.0,0.0,0.0,0.0,0.0,0.0,0.0,0.0,0.0,0.0,0.0,0.0,0.0,0.0,0.0,0.0,0.0,0.0,0.0,0.0,0.0,-3.7739,-3.7871,0.0,0.0,0.0,0.0,0.0,0.0,0.0,0.0,-3.6257,0.0,0.0,0.0,0.0,0.0,0.0,0.0,0.0,0.0,0.0,0.0,0.0,0.0,0.0,0.0,0.0,0.0,0.0,0.0,0.0,0.0,0.0,0.0,0.0,0.0,0.0,0.0,0.0,0.0,0.0,0.0,0.0,0.0,0.0,0.0,0.0,0.0,0.0,0.0,0.0,0.0,0.0,0.0,0.0,0.0,0.0,0.0,0.0,0.0,0.0,0.0,0.0,0.0,0.0,0.0,-3.993,-4.2248,-4.4838,-4.7569,-4.8043,-4.8061,-4.7663,-4.4566,-4.2484,0.0,0.0,0.0,0.0,0.0,0.0,0.0,0.0,0.0,0.0,0.0,0.0,0.0,0.0,0.0,0.0,0.0,0.0,0.0,0.0,0.0,0.0,0.0,0.0,0.0,0.0,0.0,0.0,0.0,0.0,0.0,0.0,0.0,0.0,0.0,0.0,0.0,0.0,0.0,0.0,-3.846,-3.8599,-3.9719,0.0,0.0,0.0,0.0,0.0,0.0,-3.6555,-3.6572,0.0,0.0,0.0,0.0,0.0,0.0,0.0,0.0,0.0,0.0,0.0,0.0,0.0,0.0,0.0,0.0,0.0,0.0,0.0,0.0,0.0,0.0,0.0,0.0,0.0,0.0,0.0,0.0,0.0,0.0,0.0,0.0,0.0,0.0,0.0,0.0,0.0,0.0,0.0,0.0,0.0,0.0,0.0,0.0,0.0,0.0,0.0,0.0,0.0,0.0,0.0,0.0,0.0,0.0,0.0,-3.9333,-4.1524,-4.4059,-4.6812,-4.6341,-4.625,-4.6667,-4.328,-4.1379,0.0,0.0,0.0,0.0,0.0,0.0,0.0,0.0,0.0,0.0,0.0,0.0,0.0,0.0,0.0,0.0,0.0,0.0,0.0,0.0,0.0,0.0,0.0,0.0,0.0,0.0,0.0,0.0,0.0,0.0,0.0,0.0,0.0,0.0,0.0,0.0,0.0,0.0,0.0,0.0,0.0,-3.9222,-4.0746,-3.952,0.0,0.0,0.0,0.0,-3.6539,-3.7185,0.0,0.0,0.0,0.0,0.0,0.0,0.0,0.0,0.0,0.0,0.0,0.0,0.0,0.0,0.0,0.0,0.0,0.0,0.0,0.0,0.0,0.0,0.0,0.0,0.0,0.0,0.0,0.0,0.0,0.0,0.0,0.0,0.0,0.0,0.0,0.0,0.0,0.0,0.0,0.0,0.0,0.0,0.0,0.0,0.0,0.0,0.0,0.0,0.0,0.0,0.0,0.0,0.0,0.0,0.0,0.0,-3.9405,-4.1017,-4.27,-4.4403,-4.4421,-4.4077,-4.3462,-4.1633,-4.0311,0.0,0.0,0.0,0.0,0.0,0.0,0.0,0.0,0.0,0.0,0.0,0.0,0.0,0.0,0.0,0.0,0.0,0.0,0.0,0.0,0.0,0.0,0.0,0.0,0.0,0.0,0.0,0.0,0.0,0.0,0.0,0.0,0.0,0.0,0.0,0.0,0.0,0.0,0.0,0.0,0.0,-4.0011,-3.9613,-3.9332,-3.8907,0.0,0.0,-3.8037,-3.7963,-3.909,0.0,0.0,0.0,0.0,0.0,0.0,0.0,0.0,0.0,0.0,0.0,0.0,0.0,0.0,0.0,0.0,0.0,0.0,0.0,0.0,0.0,0.0,0.0,0.0,0.0,0.0,0.0,0.0,0.0,0.0,0.0,0.0,0.0,0.0,0.0,0.0,0.0,0.0,0.0,0.0,0.0,0.0,0.0,0.0,0.0,0.0,0.0,0.0,0.0,0.0,0.0,0.0,0.0,0.0,0.0,-3.7449,-3.8717,-4.0256,-4.1596,-4.2683,-4.2737,-4.2574,-4.223,-4.0256,-3.9043,0.0,0.0,0.0,0.0,0.0,0.0,0.0,0.0,0.0,0.0,0.0,0.0,0.0,0.0,0.0,0.0,0.0,0.0,0.0,0.0,0.0,0.0,0.0,0.0,0.0,0.0,0.0,0.0,0.0,0.0,0.0,0.0,0.0,0.0,0.0,0.0,0.0,0.0,0.0,0.0,0.0,0.0,-4.0431,-4.0177,0.0,0.0,0.0,-3.8846,-3.73,0.0,0.0,0.0,0.0,0.0,0.0,0.0,0.0,0.0,0.0,0.0,0.0,0.0,0.0,0.0,0.0,0.0,0.0,0.0,0.0,0.0,0.0,0.0,0.0,0.0,0.0,0.0,0.0,0.0,0.0,0.0,0.0,0.0,0.0,0.0,0.0,0.0,0.0,0.0,0.0,0.0,0.0,0.0,0.0,0.0,0.0,0.0,0.0,0.0,0.0,0.0,0.0,0.0,0.0,0.0,0.0,0.0,-3.7883,-3.9441,-4.0528,-4.1089,-4.1126,-4.1107,-4.1071,-3.9007,0.0,0.0,0.0,0.0,0.0,0.0,0.0,0.0,0.0,0.0,0.0,0.0,0.0,0.0,0.0,0.0,0.0,0.0,0.0,0.0,0.0,0.0,0.0,0.0,0.0,0.0,0.0,-2.9319,0.0,0.0,0.0,0.0,0.0,0.0,0.0,0.0,0.0,0.0,0.0,0.0,0.0,0.0,-3.9692,-4.0736,-4.0456,-4.0137,0.0,0.0,-3.8907,-3.7025,-3.82,-3.8348,0.0,0.0,0.0,0.0,0.0,0.0,0.0,0.0,0.0,0.0,0.0,0.0,0.0,0.0,0.0,0.0,0.0,0.0,0.0,0.0,0.0,0.0,0.0,0.0,0.0,0.0,0.0,0.0,0.0,0.0,0.0,0.0,0.0,0.0,0.0,0.0,0.0,0.0,0.0,0.0,0.0,0.0,0.0,0.0,0.0,0.0,0.0,0.0,0.0,0.0,0.0,0.0,0.0,0.0,-3.6959,-3.714,-3.8662,-3.9478,-3.955,-3.955,-3.955,-3.9514,-3.7938,-3.7085,0.0,0.0,0.0,0.0,0.0,0.0,0.0,0.0,0.0,0.0,0.0,0.0,0.0,0.0,0.0,0.0,0.0,0.0,0.0,0.0,0.0,0.0,0.0,0.0,0.0,0.0,0.0,0.0,0.0,0.0,0.0,0.0,0.0,0.0,0.0,0.0,0.0,0.0,0.0,0.0,0.0,-3.932,-3.9437,-3.9469,-3.9664,0.0,-3.8784,-3.7727,-3.8096,-3.8896,-3.8521,-3.5719,0.0,0.0,0.0,0.0,0.0,0.0,0.0,0.0,0.0,0.0,0.0,0.0,0.0,0.0,0.0,0.0,0.0,0.0,0.0,0.0,0.0,0.0,0.0,0.0,0.0,0.0,0.0,0.0,0.0,0.0,0.0,0.0,0.0,0.0,0.0,0.0,0.0,0.0,0.0,0.0,0.0,0.0,0.0,0.0,0.0,0.0,0.0,0.0,0.0,0.0,0.0,0.0,0.0,-3.6001,-3.6995,-3.7611,-3.8172,-3.8627,-3.8645,-3.868,-3.8662,-3.6937,-3.6007,0.0,0.0,0.0,0.0,0.0,0.0,0.0,0.0,0.0,0.0,0.0,0.0,0.0,0.0,0.0,0.0,0.0,0.0,0.0,0.0,0.0,0.0,0.0,0.0,0.0,0.0,0.0,0.0,-2.9513,-3.0197,-3.1172,0.0,0.0,0.0,0.0,0.0,0.0,0.0,0.0,0.0,0.0,-3.8033,-3.8113,-3.8533,0.0,0.0,-3.8419,-3.7795,-3.7258,-3.7436,-3.6934,-3.4842,-3.4026,0.0,0.0,0.0,0.0,0.0,0.0,0.0,0.0,0.0,0.0,0.0,0.0,0.0,0.0,0.0,0.0,0.0,0.0,0.0,0.0,0.0,0.0,0.0,0.0,0.0,0.0,0.0,0.0,0.0,0.0,0.0,0.0,0.0,0.0,0.0,0.0,0.0,0.0,0.0,0.0,0.0,0.0,0.0,0.0,0.0,0.0,0.0,0.0,0.0,0.0,0.0,0.0,-3.5276,-3.6633,-3.6868,-3.7393,-3.8172,-3.8209,-3.8175,-3.807,-3.6386,-3.539,0.0,0.0,0.0,0.0,0.0,0.0,0.0,0.0,0.0,0.0,0.0,0.0,0.0,0.0,0.0,0.0,0.0,0.0,0.0,0.0,0.0,0.0,0.0,0.0,0.0,0.0,0.0,0.0,-2.964,-3.0286,-3.1085,0.0,0.0,0.0,0.0,0.0,0.0,0.0,0.0,0.0,0.0,-3.7077,-3.7364,-3.7681,-3.7823,-3.7577,-3.7184,-3.6701,-3.5968,-3.5879,-3.5437,-3.4061,0.0,0.0,0.0,0.0,0.0,0.0,0.0,0.0,0.0,0.0,0.0,0.0,0.0,0.0,0.0,0.0,0.0,0.0,0.0,0.0,0.0,0.0,0.0,0.0,0.0,0.0,0.0,-3.9003,0.0,0.0,-3.8323,0.0,0.0,0.0,0.0,0.0,0.0,0.0,0.0,0.0,0.0,0.0,0.0,0.0,0.0,0.0,0.0,0.0,0.0,0.0,0.0,0.0,0.0,-3.4989,-3.584,-3.658,-3.7375,-3.8156,-3.8192,-3.8107,-3.7863,-3.6317,-3.5356,-3.5065,0.0,0.0,0.0,0.0,0.0,0.0,0.0,0.0,0.0,0.0,0.0,0.0,0.0,0.0,0.0,0.0,0.0,0.0,0.0,0.0,0.0,0.0,0.0,0.0,0.0,0.0,-2.9114,-3.0561,-3.1414,0.0,0.0,0.0,0.0,0.0,0.0,0.0,0.0,0.0,-3.4121,-3.5526,-3.6641,-3.7248,-3.6877,-3.6492,-3.6445,-3.4865,-3.3819,-3.4402,-3.4531,-3.4309,0.0,0.0,0.0,0.0,0.0,0.0,0.0,0.0,0.0,0.0,0.0,0.0,0.0,0.0,0.0,0.0,0.0,0.0,0.0,0.0,0.0,0.0,0.0,0.0,0.0,0.0,0.0,-3.9106,-3.8906,0.0,0.0,0.0,0.0,0.0,0.0,0.0,0.0,0.0,0.0,0.0,-3.8209,-3.8209,0.0,0.0,0.0,0.0,0.0,0.0,0.0,0.0,0.0,0.0,0.0,0.0,-3.448,-3.5747,-3.6073,-3.6787,-3.7967,-3.7898,-3.7757,-3.7559,-3.5883,-3.4341,-3.3019,0.0,0.0,0.0,0.0,0.0,0.0,0.0,0.0,0.0,0.0,0.0,0.0,0.0,0.0,0.0,0.0,0.0,0.0,0.0,0.0,0.0,0.0,0.0,0.0,0.0,-2.9183,0.0,0.0,0.0,0.0,0.0,0.0,0.0,0.0,0.0,0.0,-3.1517,-3.1862,-3.3472,-3.411,-3.4515,-3.4773,-3.4636,-3.4651,0.0,0.0,0.0,0.0,0.0,0.0,0.0,0.0,0.0,0.0,0.0,0.0,0.0,0.0,-3.4547,-3.3664,-3.3305,-3.3125,-3.2958,0.0,0.0,0.0,0.0,0.0,0.0,0.0,0.0,0.0,0.0,0.0,0.0,0.0,0.0,-3.9129,-3.9003,-3.8667,0.0,0.0,0.0,0.0,0.0,0.0,0.0,0.0,-3.8209,-3.8209,-3.8209,-3.8209,-3.8209,0.0,-3.8209,-3.7774,0.0,0.0,0.0,0.0,0.0,0.0,0.0,0.0,-3.4385,-3.5604,-3.591,-3.6619,-3.7721,-3.7685,-3.7504,-3.7265,-3.5498,-3.3834,-3.2363,-3.1675,-3.1327,0.0,0.0,0.0,0.0,0.0,0.0,0.0,0.0,0.0,0.0,0.0,0.0,0.0,0.0,0.0,0.0,0.0,0.0,0.0,0.0,0.0,0.0,0.0,-2.9193,0.0,0.0,0.0,0.0,0.0,0.0,0.0,0.0,0.0,-3.0753,-3.0619,-3.104,-3.2852,-3.3069,-3.3287,-3.377,0.0,0.0,0.0,0.0,0.0,0.0,0.0,-3.3335,-3.3769,-3.3679,-3.3694,-3.4128,-3.4483,-3.4767,-3.4735,0.0,0.0,-3.4321,-3.3962,-3.3704,-3.3565,-3.3517,-3.3486,-3.3471,-3.3663,-3.3826,0.0,0.0,0.0,0.0,-3.9712,0.0,0.0,0.0,-3.9577,-3.9452,0.0,-3.8974,0.0,0.0,0.0,0.0,-3.8209,-3.8209,0.0,0.0,-3.8209,-3.8209,-3.8209,-3.8209,-3.8209,-3.8209,-3.8192,-3.781,-3.7067,-3.7013,0.0,0.0,0.0,0.0,0.0,0.0,-3.4715,-3.5393,-3.6109,-3.6845,-3.7541,-3.7449,-3.7265,-3.693,-3.5142,-3.3783,-3.3055,-3.201,-3.1402,-3.1173,-3.0317,0.0,0.0,0.0,0.0,0.0,0.0,0.0,0.0,0.0,0.0,0.0,0.0,0.0,0.0,0.0,0.0,0.0,0.0,0.0,0.0,-2.9006,0.0,0.0,0.0,0.0,0.0,0.0,0.0,0.0,0.0,-2.8011,-2.8614,-2.9202,-3.0298,-3.2213,0.0,0.0,0.0,0.0,-3.2721,-3.338,-3.2916,-3.2721,-3.341,-3.4024,-3.4429,-3.4488,0.0,0.0,-3.5442,-3.5326,-3.5151,-3.518,-3.5034,-3.5049,-3.5377,-3.4746,-3.4233,-3.4186,-3.4088,-3.4038,-3.4068,-3.4419,-3.4798,-4.1302,0.0,0.0,0.0,0.0,-3.9644,-3.9614,-3.9577,-3.9388,-3.9269,-3.9124,-3.8766,0.0,0.0,0.0,0.0,0.0,0.0,-3.8209,-3.8209,-3.8209,-3.8209,-3.8209,-3.8209,-3.8209,-3.8192,-3.8087,-3.7997,-3.783,-3.7152,-3.6161,-3.4953,0.0,0.0,0.0,0.0,-3.4485,-3.5256,-3.6023,-3.6702,-3.7225,-3.7147,-3.6445,-3.5053,-3.3749,-3.2732,-3.2053,-3.1409,-3.1052,-3.0992,-3.0533,0.0,0.0,0.0,0.0,0.0,0.0,0.0,0.0,0.0,0.0,0.0,0.0,0.0,0.0,0.0,0.0,0.0,0.0,0.0,-2.9051,-2.9462,-2.9524,0.0,0.0,0.0,0.0,0.0,0.0,0.0,0.0,0.0,-2.824,-2.9053,-3.0133,0.0,0.0,-3.1914,-3.2288,-3.2019,-3.2019,-3.2706,-3.2213,0.0,-3.332,-3.326,-3.3395,-3.4354,-3.4944,-3.5294,-3.5279,-3.5115,-3.4968,-3.4968,-3.4935,-3.4935,-3.5034,-3.4901,-3.4687,-3.4556,-3.4519,-3.4486,-3.4501,-3.4647,-3.4783,-4.2754,-4.1138,-4.0653,-4.0184,-3.9789,-3.9668,-3.9614,-3.9577,-3.9406,-3.9256,-3.9115,-3.877,-3.8556,-3.843,-3.8274,0.0,0.0,0.0,-3.8209,-3.8209,-3.8209,-3.8209,-3.8209,-3.8209,-3.8158,-3.809,-3.8019,-3.8002,-3.7984,-3.7124,-3.626,-3.5319,0.0,-3.3508,-3.3446,-3.4099,-3.4798,-3.551,-3.6255,-3.6745,-3.6954,-3.6591,-3.5762,-3.4487,-3.3274,-3.2369,-3.1888,-3.1263,-3.0758,-3.049,-3.0202,-2.9417,0.0,0.0,0.0,0.0,0.0,0.0,0.0,0.0,0.0,0.0,0.0,-2.8112,-2.7787,0.0,0.0,0.0,-2.837,-2.864,-2.8982,-2.9233,0.0,0.0,0.0,0.0,0.0,0.0,0.0,-2.7258,-2.7196,-2.738,-2.8039,-2.8669,-2.9622,-3.12,-3.1395,-3.147,-3.1781,0.0,-3.1604,-3.2318,-3.2065,-3.2184,-3.3243,-3.3094,-3.3063,-3.3792,-3.4382,-3.4715,-3.473,-3.4758,-3.4802,-3.4787,-3.4563,-3.4369,-3.4354,-3.4354,-3.4471,-3.4654,-3.4631,-3.4524,-3.4276,-3.4218,-3.4178,-4.4341,-4.2812,-4.1895,-4.0959,-4.0097,-3.9934,-3.9826,-3.9702,-3.9627,-3.9455,-3.917,-3.8921,-3.8683,-3.8462,-3.829,0.0,-3.8209,-3.8209,-3.8209,-3.8209,-3.8192,-3.8192,-3.8174,-3.8175,-3.8072,-3.7863,-3.795,-3.788,-3.7667,-3.7057,-3.6663,-3.6433,-3.5056,-3.4222,-3.4018,-3.4693,-3.535,-3.5873,-3.6501,-3.6755,-3.6616,-3.5682,-3.5025,-3.4681,-3.3185,-3.2284,-3.2087,-3.1194,-3.0366,-2.973,-2.945,-2.8704,-2.7417,0.0,0.0,0.0,0.0,0.0,0.0,0.0,0.0,0.0,0.0,0.0,0.0,0.0,0.0,0.0,-2.8733,0.0,-2.8858,-2.8573,0.0,0.0,0.0,-2.7335,-2.7665,-2.7181,-2.6937,-2.731,0.0,0.0,-2.7849,-2.8045,-2.8884,-3.0774,-3.0998,-3.122,-3.1946,-3.1397,-3.1265,-3.1857,-3.208,-3.2362,-3.2867,-3.3045,-3.3059,-3.2994,-3.3389,-3.3667,-3.377,-3.3947,-3.4317,-3.4215,-3.3747,-3.3227,-3.3256,-3.3202,-3.3478,-3.4123,-3.4355,-3.4225,-3.3707,-3.358,-3.3387,-4.4666,-4.369,-4.3297,-4.2625,-4.1802,-4.155,-4.1092,-4.0534,-4.0503,-3.9986,-3.9115,-3.895,-3.8637,-3.8274,-3.8207,-3.8209,-3.8209,-3.8209,-3.8209,-3.8192,-3.8105,-3.8053,-3.8053,-3.8003,-3.7899,-3.7757,-3.7721,-3.7667,-3.7613,-3.7325,-3.6842,-3.6202,-3.5775,-3.5279,-3.4694,-3.4764,-3.4868,-3.5006,-3.5163,-3.5157,-3.4931,-3.3869,-3.3237,-3.314,-3.1413,-3.044,-3.0365,-2.9502,-2.8918,-2.8735,-2.8677,-2.8227,-2.7348,-2.7317,0.0,0.0,0.0,0.0,0.0,0.0,0.0,0.0,0.0,-2.8185,-2.7275,0.0,-2.8243,0.0,-2.8619,-2.8826,-2.8549,-2.8356,0.0,0.0,-2.7361,-2.717,-2.7026,-2.691,-2.6832,-2.6937,-2.6884,-2.689,-2.7076,-2.7513,-2.8046,-2.8708,-2.9261,-2.9643,-2.9847,-3.0158,-3.0202,-3.0009,-3.0363,-3.0865,-3.1516,-3.2048,-3.2344,-3.2328,-3.1911,-3.1732,-3.2245,-3.1871,-3.1575,-3.1575,-3.1442,-3.1295,-3.1324,-3.1295,-3.1353,-3.166,-3.3067,-3.4225,-3.3634,-3.3474,-3.33,-4.5354,-4.455,-4.4319,-4.3947,-4.3393,-4.204,-4.1229,-4.0778,-4.0358,-3.9765,-3.9087,-3.88,-3.8496,-3.8209,-3.8209,-3.8209,-3.8209,-3.8209,-3.8209,-3.8192,-3.8053,-3.7984,-3.7951,-3.7863,-3.7703,-3.7522,-3.7522,-3.7466,-3.7374,-3.7334,-3.7048,-3.655,-3.651,-3.6262,-3.5821,-3.5411,-3.5355,-3.5707,-3.5297,-3.5145,-3.5265,-3.3544,-3.2858,-3.3352,-3.1069,-2.9911,-3.0096,-2.9015,-2.8409,-2.8409,-2.8409,-2.8044,-2.735,-2.7317,-2.6984,0.0,0.0,0.0,0.0,0.0,0.0,0.0,0.0,0.0,0.0,0.0,-2.8614,-2.8485,-2.8584,-2.8597,-2.8332,-2.8039,-2.769,-2.7335,-2.713,-2.6948,-2.6806,-2.6794,-2.6794,-2.6794,-2.6794,-2.6794,-2.682,-2.7084,-2.7343,-2.745,-2.7822,-2.8301,-2.8899,-2.9282,-2.9342,-2.9103,-2.9309,-2.9675,-3.0073,-3.0382,-3.0602,-3.0558,-3.0397,-3.0411,-3.0776,-3.073,-3.0612,-3.0598,-3.038,-3.0161,-3.0147,-3.0161,-3.0147,-3.0364,-3.1496,-3.244,-3.2283,-3.2225,-3.208,-4.5946,-4.5267,-4.5022,-4.4883,-4.4688,-4.2046,-4.0935,-4.0865,-3.9956,-3.9368,-3.9031,-3.8572,-3.8322,-3.8209,-3.8209,-3.8209,-3.8209,-3.8209,-3.8209,-3.8192,-3.8071,-3.7968,-3.7899,-3.7739,-3.7522,-3.7297,-3.7336,-3.7261,-3.7071,-3.7203,-3.7203,-3.7089,-3.7071,-3.705,-3.6972,-3.6303,-3.6197,-3.6671,-3.5791,-3.5633,-3.6156,-3.3811,-3.3084,-3.4037,-3.1224,-2.9832,-3.0179,-2.8853,-2.8127,-2.8111,-2.8111,-2.7829,-2.7199,-2.7166,-2.6917,0.0,-2.6211,0.0,0.0,0.0,0.0,0.0,0.0,0.0,0.0,-2.8704,-2.9013,-2.8897,-2.8597,-2.8348,-2.8137,-2.7715,-2.735,-2.7155,-2.6937,-2.6794,-2.6794,-2.6794,-2.6794,-2.6794,-2.6794,-2.6794,-2.6794,-2.6794,-2.6794,-2.6849,-2.6893,-2.7351,-2.8322,-2.8575,-2.8605,-2.8671,-2.87,-2.8744,-2.8671,-2.8633,-2.8665,-2.868,-2.8912,-2.9247,-2.9348,-2.9711,-3.0045,-3.0002,-2.9493,-2.9189,-2.9233,-2.9189,-2.9204,-2.9174,-2.9682,-3.0205,-3.048,-3.0598,-3.0452,-4.5449,-4.5267,-4.5022,-4.4858,-4.4644,-4.2564,-4.1713,-4.1638,-4.0806,-3.9844,-3.8851,-3.8419,-3.8242,-3.8209,-3.8209,-3.8209,-3.8209,-3.8209,-3.8209,-3.8174,-3.8003,-3.7916,-3.7881,-3.7595,-3.7392,-3.7297,-3.7185,-3.7108,-3.7027,-3.7029,-3.7029,-3.7009,-3.7009,-3.7027,-3.6989,0.0,0.0,0.0,-3.4723,-3.461,-3.4577,-3.314,-3.2469,-3.2649,-3.0081,0.0,-2.874,-2.7396,-2.6634,-2.6599,-2.6617,0.0,0.0,0.0,0.0,0.0,0.0,0.0,0.0,0.0,0.0,0.0,-2.8869,-2.886,-2.8269,-2.8626,-2.8912,-2.8826,-2.866,-2.8332,-2.7775,-2.7625,-2.7372,-2.6937,-2.6832,-2.6794,-2.6794,-2.6794,-2.6794,-2.6794,-2.6794,-2.6794,-2.6794,-2.6794,-2.6794,-2.6794,-2.6794,-2.6893,-2.7166,-2.7634,-2.7708,-2.7341,-2.7661,-2.7748,-2.7268,-2.7592,-2.7884,-2.7855,-2.7505,-2.7578,-2.7985,-2.7766,-2.759,-2.7634,-2.7403,-2.7374,-2.7374,-2.7331,-2.7447,-2.7345,-2.7461,-2.7997,-2.9436,-2.9798,-2.9653,-4.5048,-4.4645,-4.4406,-4.4277,0.0,-4.2433,-4.1764,-4.1721,-4.042,-3.9392,-3.859,-3.8403,-3.8274,-3.8209,-3.8209,-3.8209,-3.8209,-3.8209,-3.8209,-3.8192,-3.8004,-3.7846,-3.7739,-3.7466,-3.726,-3.7163,-3.7087,-3.7029,-3.6989,-3.6989,-3.6989,-3.6989,-3.6989,-3.6989,-3.6989,-3.693,-3.6486,-3.5657,-3.5153,-3.498,-3.5059,-3.3281,-3.2604,-3.3102,-3.0432,0.0,0.0,0.0,0.0,0.0,0.0,0.0,0.0,-2.7571,0.0,-2.775,-2.758,-2.7754,-2.8339,-2.8616,-2.8742,-2.8854,-2.9069,-2.9048,-2.8661,-2.8794,-2.8787,-2.8597,-2.8293,-2.7925,-2.7448,-2.7295,-2.7104,-2.6832,-2.6794,-2.6794,-2.6794,-2.6794,-2.6794,-2.6794,-2.6794,-2.6794,-2.6794,-2.6794,-2.6794,-2.6794,-2.6794,-2.6794,-2.6808,-2.7055,-2.7113,-2.6864,-2.7026,-2.7157,-2.6881,-2.7012,-2.7258,-2.7215,-2.6997,-2.6939,-2.7215,-2.7012,-2.6794,-2.6794,-2.6794,-2.6794,-2.6794,-2.6794,-2.6794,-2.6794,-2.6794,-2.7026,-2.8071,-2.8435,-2.8681,-4.4804,-4.4122,-4.3938,-4.378,-4.358,-4.2361,-4.1663,-4.127,-3.9637,0.0,0.0,-3.835,-3.8287,-3.8209,-3.8209,-3.8209,-3.8209,-3.8209,-3.8174,-3.8157,-3.7969,-3.7775,-3.7577,-3.7372,-3.7182,-3.7027,-3.6989,-3.6989,-3.6989,-3.6867,-3.6847,-3.6972,-3.6744,-3.6654,-3.6757,-3.6779,-3.6768,-3.6635,-3.5919,-3.5718,-3.6007,-3.3688,-3.2942,-3.3991,-3.1016,-2.9678,-3.0241,-2.8489,-2.7763,-2.8359,-2.8409,-2.8409,-2.8426,-2.8874,-2.8909,-2.8428,-2.8216,-2.8379,-2.8914,-2.8834,-2.89,-2.925,-2.9167,-2.9075,-2.9075,-2.8897,-2.8684,-2.8462,-2.7974,-2.7575,-2.7269,-2.7026,-2.6873,-2.682,-2.6794,-2.6794,-2.6794,-2.6794,-2.6794,-2.6794,-2.6794,-2.6794,-2.6794,-2.6794,-2.6794,-2.6794,-2.6794,-2.6794,-2.6794,-2.6808,-2.6837,-2.6808,-2.6852,-2.6808,-2.6794,-2.6808,-2.6794,-2.6837,-2.6808,-2.6794,-2.6794,-2.6794,-2.6794,-2.6794,-2.6794,-2.6794,-2.6794,-2.6794,-2.6794,-2.6794,-2.6794,-2.6794,-2.6837,-2.72,-2.7723,-4.4938,-4.4694,-4.4542,-4.4289,-4.3953,-4.3096,-4.172,-4.0105,-3.9022,-3.8491,-3.8382,-3.8272,-3.8225,-3.8209,-3.8209,-3.8209,-3.8209,-3.8209,-3.8122,-3.8036,-3.781,-3.7685,-3.7577,-3.7261,-3.7108,-3.7089,-3.7029,-3.6989,-3.6919,-3.632,-3.6303,-3.6761,-3.569,-3.5335,-3.5869,-3.6434,-3.6544,-3.6203,-3.6075,-3.6011,-3.5985,-3.4027,-3.3062,-3.3141,-3.075,-2.945,-2.9529,-2.8704,-2.8293,-2.8392,-2.8409,-2.8409,-2.8409,-2.8522,-2.8712,-2.9087,-2.9001,-2.9121,-2.9532,-2.9464,-2.9316,-2.9144,-2.9114,-2.9052,-2.8928,-2.8858,-2.8723,-2.8573,-2.8177,-2.784,-2.7575,-2.7284,-2.7026,-2.6846,-2.6794,-2.6794,-2.6794,-2.6794,-2.6794,-2.6794,-2.6794,-2.6794,-2.6794,-2.6794,-2.6794,-2.6794,-2.6794,-2.6794,-2.6794,-2.6794,-2.6794,-2.6794,-2.6794,-2.6794,-2.6794,-2.6794,-2.6794,-2.6794,-2.6794,-2.6794,-2.6794,-2.6794,-2.6794,-2.6794,-2.6794,-2.6794,-2.6794,-2.6794,-2.6794,-2.6794,-2.6794,-2.6794,-2.6794,-2.691,-2.6997,-4.4436,-4.3831,-4.3676,-4.3276,-4.2601,-4.1689,-4.0638,-3.9586,-3.8749,-3.8352,-3.8289,-3.8224,-3.8209,-3.8209,-3.8209,-3.8209,-3.8209,-3.8209,-3.8174,-3.8088,-3.7898,-3.7721,-3.7594,-3.7336,-3.7145,-3.7013,-3.655,-3.6355,-3.6285,-3.5565,-3.539,-3.5725,-3.5425,-3.5631,-3.6267,-3.6551,-3.6502,-3.6118,-3.6071,-3.591,-3.5605,-3.3972,-3.3026,-3.2878,-3.0983,-2.9992,-2.9976,-2.9334,-2.8936,-2.8936,-2.8936,-2.8936,-2.8953,-2.9217,-2.9515,-2.9765,-2.9629,-2.9545,-2.9592,-2.9405,-2.9229,-2.9098,-2.9013,-2.8959,-2.8858,-2.8803,-2.8723,-2.8493,-2.8063,-2.765,-2.7397,-2.7155,-2.6937,-2.6806,-2.6794,-2.6794,-2.6794,-2.6794,-2.6794,-2.6794,-2.6794,-2.6794,-2.6794,-2.6794,-2.6794,-2.6794,-2.6794,-2.6794,-2.6794,-2.6794,-2.6794,-2.6794,-2.6794,-2.6794,-2.6794,-2.6794,-2.6794,-2.6794,-2.6794,-2.6794,-2.6794,-2.6794,-2.6794,-2.6794,-2.6794,-2.6794,-2.6794,-2.6794,-2.6794,-2.6794,-2.6794,-2.6794,-2.6794,-2.6794,-2.6794,-4.345,-4.2613,-4.2497,-4.2058,-4.1307,-4.0257,-3.9655,-3.9383,-3.8619,-3.8241,-3.8209,-3.8209,-3.8209,-3.8209,-3.8209,-3.8209,-3.8209,-3.8209,-3.8192,-3.814,-3.7969,-3.7775,-3.7576,-3.7372,-3.7113,-3.6691,-3.6073,-3.5704,-3.5476,-3.4793,-3.4319,-3.4302,-3.5073,-3.5698,-3.5966,-3.6287,-3.6198,-3.5767,-3.5851,-3.5711,-3.5281,-3.3963,-3.31,-3.2658,-3.1454,-3.0654,-3.0472,-2.9943,-2.9645,-2.9665,-2.9645,-2.9645,-2.9661,-3.0046,-3.0253,-3.0205,-3.0033,-2.977,-2.9496,-2.9252,-2.9114,-2.9114,-2.8967,-2.885,-2.874,-2.8684,-2.8565,-2.8299,-2.7875,-2.7484,-2.7233,-2.6989,-2.6794,-2.6794,-2.6794,-2.6794,-2.6794,-2.6794,-2.6794,-2.6794,-2.6794,-2.6794,-2.6794,-2.6794,-2.6794,-2.6794,-2.6794,-2.6794,-2.6794,-2.6794,-2.6794,-2.6794,-2.6794,-2.6794,-2.6794,-2.6794,-2.6794,-2.6794,-2.6794,-2.6794,-2.6794,-2.6794,-2.6794,-2.6794,-2.6794,-2.6794,-2.6794,-2.6794,-2.6794,-2.6794,-2.6794,-2.6794,-2.6794,-2.6794,-2.6881,-4.1833,-4.1474,-4.148,-4.1335,-4.0979,-3.9917,-3.9452,-3.9425,-3.8601,-3.8209,-3.8209,-3.8209,-3.8209,-3.8209,-3.8209,-3.8209,-3.8209,-3.8209,-3.8122,-3.8036,-3.7933,-3.7721,-3.7448,-3.7317,-3.6794,-3.6022,-3.581,-3.5407,-3.4758,-3.4004,-3.3284,-3.2845,-3.3947,-3.4327,-3.3848,-3.4916,-3.5236,-3.4663,-3.5306,-3.5526,-3.5264,-3.4282,-3.3404,-3.2702,-3.1896,-3.1184,-3.0539,-3.0439,-3.039,-3.0406,-3.0373,-3.039,-3.039,-3.0435,-3.0401,-3.021,-3.006,-2.9798,-2.9373,-2.9167,-2.9114,-2.9114,-2.8967,-2.8787,-2.8574,-2.8389,-2.8201,-2.806,-2.7781,-2.7488,-2.7233,-2.6963,-2.682,-2.6794,-2.6794,-2.6794,-2.6794,-2.6794,-2.6794,-2.6794,-2.6794,-2.6794,-2.6794,-2.6849,-2.6837,-2.6881,-2.6997,-2.6924,-2.6794,-2.6866,-2.6823,-2.6808,-2.6794,-2.6794,-2.6794,-2.6794,-2.6794,-2.6794,-2.6794,-2.6794,-2.6794,-2.6794,-2.6794,-2.6794,-2.6794,-2.6794,-2.6794,-2.6794,-2.6794,-2.6794,-2.6794,-2.6794,-2.6794,-2.6794,-2.6953,-4.1336,-4.1087,-4.1022,-4.065,-3.9991,-3.9075,-3.8714,-3.8726,-3.8369,-3.8209,-3.8209,-3.8209,-3.8209,-3.8209,-3.8209,-3.8209,-3.8209,-3.8209,-3.8192,-3.8123,-3.8002,-3.781,-3.754,-3.7411,-3.6815,-3.5811,-3.5354,-3.474,-3.3986,-3.3213,-3.3161,-3.374,-3.428,-3.45,-3.4594,-3.5124,-3.4888,-3.3918,-3.4129,-3.4129,-3.3762,-3.3377,-3.2779,-3.2067,-3.1317,-3.082,-3.0539,-3.0489,-3.0489,-3.0489,-3.0489,-3.0489,-3.0489,-3.0316,-3.0167,-3.0076,-2.976,-2.9509,-2.9305,-2.9183,-2.9114,-2.9114,-2.8951,-2.8787,-2.8692,-2.8468,-2.8403,-2.8485,-2.7865,-2.7295,-2.7196,-2.6963,-2.6794,-2.6794,-2.6794,-2.6794,-2.6794,-2.6794,-2.6794,-2.6794,-2.6794,-2.6794,-2.6852,-2.7113,-2.7289,-2.7403,-2.7621,-2.7663,-2.7023,-2.7084,-2.7157,-2.6881,-2.6794,-2.6794,-2.6794,-2.6794,-2.6794,-2.6794,-2.6794,-2.6794,-2.6794,-2.6794,-2.6794,-2.6794,-2.6794,-2.6794,-2.6794,-2.6794,-2.6794,-2.6794,-2.6794,-2.6794,-2.6794,-2.6794,-2.6939,-4.0459,-4.0248,-4.0151,-3.9596,-3.8734,-3.8372,-3.8082,-3.7919,-3.81,-3.8209,-3.8191,-3.7991,-3.8009,-3.8191,-3.8209,-3.81,-3.7919,-3.81,-3.8209,-3.8192,-3.8105,-3.7898,-3.7613,-3.7272,-3.6572,-3.557,-3.4723,-3.3968,-3.3213,-3.2669,-3.3073,-3.4143,-3.4016,-3.4184,-3.4768,-3.4775,-3.418,-3.3245,-3.3288,-3.3093,-3.2514,-3.2398,-3.2133,-3.1598,-3.1085,-3.0721,-3.0506,-3.0489,-3.0489,-3.0489,-3.0489,-3.0489,-3.0464,-3.021,-2.9995,-2.9842,-2.9531,-2.9282,-2.9259,-2.9334,-2.9304,-2.9122,-2.9085,-2.9099,-2.9003,-2.8771,-2.8817,-2.9113,-2.8304,-2.7723,-2.7447,-2.705,-2.682,-2.6794,-2.6794,-2.6794,-2.6794,-2.6794,-2.6794,-2.6794,-2.6968,-2.7128,-2.7316,-2.7708,-2.7956,-2.8042,-2.8347,-2.8476,-2.7549,-2.7563,-2.7507,-2.7113,-2.6924,-2.6794,-2.6794,-2.6794,-2.6794,-2.6794,-2.6794,-2.6794,-2.6794,-2.6794,-2.6794,-2.6794,-2.6794,-2.6794,-2.6794,-2.6794,-2.6794,-2.6794,-2.6794,-2.6794,-2.6794,-2.6794,-2.6881,-3.8734,-3.864,-3.8498,-3.8038,-3.7194,-3.7883,-3.7774,-3.7249,-3.7846,-3.8191,-3.81,-3.7466,-3.7502,-3.8154,-3.8191,-3.7792,-3.7267,-3.7883,-3.8209,-3.8209,-3.8192,-3.8003,-3.765,-3.6845,-3.5901,-3.4922,-3.418,-3.3318,-3.2546,-3.2441,-3.2809,-3.3494,-3.2825,-3.2665,-3.329,-3.3294,-3.2828,-3.2483,-3.2949,-3.2786,-3.1795,-3.1648,-3.1631,-3.1532,-3.1548,-3.1151,-3.0621,-3.0506,-3.0522,-3.0522,-3.0555,-3.0497,-3.0434,-3.0269,-2.9973,-2.956,-2.9396,-2.9252,-2.9271,-2.9722,-2.9864,-2.9359,-2.9666,-2.9819,-2.9623,-2.935,-2.9414,-2.9747,-2.9274,-2.871,-2.8267,-2.7442,-2.6878,-2.6794,-2.6794,-2.6794,-2.6794,-2.6794,-2.6794,-2.691,-2.7345,-2.7882,-2.8463,-2.8651,-2.8637,-2.868,-2.8723,-2.8665,-2.8491,-2.8071,-2.7826,-2.7608,-2.7273,-2.6823,-2.6808,-2.6794,-2.6794,-2.6794,-2.6794,-2.6794,-2.6794,-2.6794,-2.6794,-2.6794,-2.6794,-2.6794,-2.6794,-2.6794,-2.6794,-2.6794,-2.6794,-2.6794,-2.6997,-2.6878,-2.7067,-3.8624,-3.8494,-3.8401,-3.814,-3.7822,-3.7573,-3.7557,-3.7738,-3.7502,-3.7738,-3.81,-3.7883,-3.7647,-3.7466,-3.7973,-3.8046,-3.781,-3.8082,-3.8209,-3.8209,-3.8209,-3.8038,-3.7685,-3.7345,-3.6346,-3.4941,-3.4463,-3.3653,-3.2511,-3.2406,-3.2774,-3.3336,-3.3034,-3.2943,-3.3115,-3.3017,-3.2486,-3.1704,-3.1884,-3.161,-3.1011,-3.0886,-3.0903,-3.0903,-3.0903,-3.1002,-3.1201,-3.1201,-3.1399,-3.1885,-3.1422,-3.1148,-3.1018,-3.0321,-2.9687,-2.9305,-2.919,-2.9334,-2.9753,-3.0062,-3.0291,-3.0472,-3.0474,-3.0482,-3.0348,-3.015,-3.0206,-3.0517,-2.9892,-2.9414,-2.9406,-2.8314,-2.7229,-2.6866,-2.6794,-2.6837,-2.6794,-2.6794,-2.6951,-2.7374,-2.7955,-2.8579,-2.9102,-2.929,-2.9276,-2.9334,-2.9624,-2.9508,-2.8956,-2.8768,-2.8739,-2.8419,-2.8144,-2.7853,-2.7376,-2.6997,-2.6794,-2.6794,-2.6794,-2.6808,-2.6808,-2.6794,-2.6794,-2.6881,-2.6866,-2.6794,-2.6794,-2.6794,-2.6794,-2.6866,-2.6866,-2.6968,-2.7289,-2.7157,-2.7534,-3.8624,-3.8494,-3.8449,-3.8188,-3.7853,-3.7263,-3.7158,-3.7413,-3.7122,-3.7303,-3.772,-3.7557,-3.7375,-3.7357,-3.7413,-3.7757,-3.8172,-3.8209,-3.8209,-3.8209,-3.8209,-3.8054,-3.7738,-3.7237,-3.6256,-3.4942,-3.427,-3.353,-3.2827,-3.2493,-3.2932,-3.3828,-3.3262,-3.3014,-3.308,-3.2738,-3.2002,-3.1336,-3.1131,-3.0895,-3.0531,-3.0489,-3.0638,-3.082,-3.0853,-3.1085,-3.1598,-3.1813,-3.2144,-3.2503,-3.2122,-3.1764,-3.153,-3.0791,-3.0151,-2.9824,-2.9793,-2.9967,-3.0449,-3.0717,-3.0995,-3.1167,-3.1212,-3.117,-3.117,-3.0944,-3.1138,-3.1386,-3.0973,-3.0524,-3.0366,-2.9455,-2.8305,-2.7615,-2.7416,-2.7389,-2.7403,-2.7445,-2.7723,-2.8289,-2.8724,-2.9261,-2.9784,-2.9914,-2.9929,-2.9943,-3.0335,-3.0162,-2.961,-2.9406,-2.9494,-2.9058,-2.8753,-2.8434,-2.8129,-2.7795,-2.7154,-2.7038,-2.6968,-2.6924,-2.6953,-2.691,-2.6866,-2.6968,-2.6939,-2.6837,-2.6794,-2.6794,-2.6895,-2.7012,-2.6939,-2.6953,-2.7229,-2.7405,-2.7824,-3.8606,-3.8436,-3.8412,-3.784,-3.7142,-3.6953,-3.6524,-3.6236,-3.6741,-3.7104,-3.723,-3.6399,-3.6997,-3.7647,-3.6888,-3.6852,-3.8028,-3.8209,-3.8209,-3.8209,-3.8209,-3.814,-3.7876,-3.6498,-3.5576,-3.4995,-3.3388,-3.2967,-3.3477,-3.2897,-3.3213,-3.4073,-3.2984,-3.2562,-3.3152,-3.2196,-3.1534,-3.121,-3.1029,-3.0773,-3.0547,-3.0489,-3.082,-3.1449,-3.1565,-3.1681,-3.173,-3.2365,-3.2701,-3.2655,-3.2566,-3.2266,-3.182,-3.151,-3.1397,-3.1058,-3.1103,-3.1151,-3.127,-3.1801,-3.1801,-3.1624,-3.175,-3.2003,-3.1951,-3.1799,-3.1862,-3.2272,-3.2093,-3.1721,-3.1119,-3.0674,-2.9898,-2.8922,-2.8532,-2.8518,-2.8549,-2.868,-2.8898,-2.9334,-2.9537,-2.9885,-3.0394,-3.0496,-3.0467,-3.0496,-3.0554,-3.0569,-3.0322,-2.9987,-2.9711,-2.9552,-2.9348,-2.9058,-2.8869,-2.8622,-2.7895,-2.7314,-2.7256,-2.7186,-2.7302,-2.726,-2.7113,-2.7128,-2.6951,-2.6849,-2.7084,-2.7128,-2.736,-2.7432,-2.7215,-2.7316,-2.7753,-2.8101,-2.7956,-3.8362,-3.7833,-3.7705,-3.7137,-3.6367,-3.629,-3.632,-3.6633,-3.6904,-3.7303,-3.7701,-3.7558,-3.7774,-3.8028,-3.7649,-3.772,-3.8191,-3.8209,-3.8209,-3.8209,-3.8209,-3.8122,-3.7802,-3.6819,-3.5843,-3.5066,-3.4394,-3.4128,-3.4144,-3.3547,-3.3459,-3.3582,-3.2774,-3.223,-3.2256,-3.1793,-3.1408,-3.1032,-3.0932,-3.0753,-3.051,-3.0489,-3.087,-3.1565,-3.2083,-3.258,-3.3094,-3.3342,-3.3627,-3.3933,-3.3451,-3.2679,-3.1855,-3.155,-3.1379,-3.1207,-3.1182,-3.146,-3.1928,-3.2165,-3.2449,-3.2572,-3.272,-3.2735,-3.274,-3.2565,-3.2551,-3.2757,-3.2468,-3.2109,-3.1848,-3.155,-3.0703,-2.9162,-2.8959,-2.8963,-2.8897,-2.9102,-2.9392,-2.9595,-3.0001,-3.038,-3.0539,-3.0612,-3.0612,-3.0612,-3.0612,-3.0612,-3.0569,-3.0423,-3.0292,-3.0234,-3.0002,-2.9711,-2.9464,-2.929,-2.8898,-2.8273,-2.7997,-2.7795,-2.7839,-2.7681,-2.7505,-2.7331,-2.7125,-2.7125,-2.7331,-2.7534,-2.7781,-2.8071,-2.8115,-2.8419,-2.8841,-2.8797,-2.855,-3.8414,-3.7955,-3.7809,-3.7256,-3.6453,-3.6375,-3.6406,-3.6614,-3.6886,-3.7303,-3.7683,-3.7738,-3.7937,-3.81,-3.7901,-3.7937,-3.8191,-3.8209,-3.8209,-3.8209,-3.8209,-3.8157,-3.7928,-3.7106,-3.6076,-3.5155,-3.4853,-3.492,-3.5056,-3.4336,-3.395,-3.3792,-3.3,-3.2279,-3.1816,-3.1521,-3.1176,-3.0932,-3.0794,-3.0671,-3.0547,-3.0489,-3.0853,-3.1581,-3.2315,-3.3066,-3.374,-3.4038,-3.4332,-3.4471,-3.3941,-3.3169,-3.2389,-3.2249,-3.2092,-3.2007,-3.2029,-3.2218,-3.2623,-3.2703,-3.2803,-3.3188,-3.3176,-3.3112,-3.3085,-3.2978,-3.2912,-3.2843,-3.2703,-3.2566,-3.2413,-3.2219,-3.1429,-3.0263,-2.9949,-2.9706,-2.9537,-2.9726,-2.9958,-3.0089,-3.0335,-3.0569,-3.0612,-3.0612,-3.0612,-3.0612,-3.0612,-3.0612,-3.0612,-3.0598,-3.0598,-3.0598,-3.0452,-3.022,-3.0031,-2.99,-2.9813,-2.9334,-2.8912,-2.8695,-2.8608,-2.8318,-2.8071,-2.7998,-2.7837,-2.7895,-2.8071,-2.8086,-2.8245,-2.8579,-2.8942,-2.8956,-2.9073,-2.9029,-2.8855,-3.867,-3.8618,-3.8468,-3.7823,-3.707,-3.7028,-3.6642,-3.6146,-3.6796,-3.7194,-3.7212,-3.7303,-3.7575,-3.7937,-3.7611,-3.7665,-3.81,-3.8209,-3.8209,-3.8209,-3.8209,-3.8138,-3.7816,-3.716,-3.6273,-3.5315,-3.5136,-3.5379,-3.5811,-3.5127,-3.4758,-3.4579,-3.3674,-3.2738,-3.208,-3.1385,-3.1147,-3.0998,-3.0696,-3.051,-3.0489,-3.0489,-3.0853,-3.1581,-3.2216,-3.2928,-3.3717,-3.4308,-3.4625,-3.4472,-3.4061,-3.3627,-3.3491,-3.3487,-3.3282,-3.3103,-3.3245,-3.3182,-3.3261,-3.3182,-3.323,-3.3251,-3.3203,-3.3112,-3.3112,-3.3058,-3.2993,-3.2951,-3.2924,-3.2881,-3.2827,-3.2691,-3.2241,-3.1709,-3.0967,-3.0646,-3.0614,-3.0525,-3.0481,-3.0525,-3.0598,-3.0612,-3.0612,-3.0612,-3.0612,-3.0612,-3.0612,-3.0612,-3.0612,-3.0612,-3.0612,-3.0612,-3.0612,-3.0539,-3.0277,-3.0292,-3.0205,-3.0031,-2.9624,-2.9406,-2.9145,-2.8797,-2.8507,-2.8476,-2.8549,-2.8651,-2.8738,-2.8724,-2.8971,-2.9435,-2.9493,-2.9276,-2.9276,-2.9392,-2.9421,-3.8358,-3.7826,-3.7793,-3.7208,-3.6483,-3.6911,-3.7014,-3.6796,-3.752,-3.7828,-3.7865,-3.7883,-3.7973,-3.8154,-3.7991,-3.8028,-3.8172,-3.8209,-3.8209,-3.8209,-3.8209,-3.776,-3.7404,-3.7448,-3.697,-3.6114,-3.6305,-3.6651,-3.6621,-3.5881,-3.5399,-3.5114,-3.4304,-3.3544,-3.2863,-3.212,-3.1696,-3.1345,-3.0779,-3.0506,-3.0489,-3.0489,-3.0853,-3.1532,-3.1813,-3.2513,-3.3528,-3.4055,-3.4333,-3.4325,-3.3873,-3.3565,-3.3487,-3.3398,-3.3346,-3.3293,-3.3293,-3.3293,-3.3293,-3.3293,-3.3293,-3.3293,-3.3256,-3.3229,-3.3256,-3.3229,-3.3203,-3.3203,-3.3203,-3.3112,-3.2951,-3.2843,-3.2428,-3.1667,-3.1087,-3.0703,-3.0628,-3.0612,-3.0612,-3.0612,-3.0612,-3.0612,-3.0612,-3.0612,-3.0612,-3.0612,-3.0612,-3.0612,-3.0612,-3.0612,-3.0612,-3.0612,-3.0612,-3.0612,-3.0583,-3.0583,-3.0554,-3.0496,-3.0249,-3.0016,-2.9595,-2.9102,-2.8811,-2.8636,-2.8927,-2.9072,-2.9261,-2.9349,-2.9827,-3.0132,-3.0132,-3.0002,-3.0133,-3.0249,-3.0191,-3.8398,-3.7928,-3.7909,-3.7342,-3.6604,-3.7317,-3.7398,-3.721,-3.7828,-3.8209,-3.8209,-3.8209,-3.8209,-3.8209,-3.8209,-3.8209,-3.8209,-3.8209,-3.8209,-3.8209,-3.8209,-3.7887,-3.7533,-3.7754,-3.7471,-3.6879,-3.7141,-3.7129,-3.6956,-3.6474,-3.5987,-3.5427,-3.4749,-3.4045,-3.3288,-3.2705,-3.21,-3.1624,-3.1135,-3.0837,-3.0522,-3.0489,-3.0671,-3.1234,-3.1664,-3.2679,-3.3844,-3.3771,-3.3736,-3.3953,-3.3761,-3.3477,-3.3424,-3.3346,-3.3293,-3.3293,-3.3293,-3.3293,-3.3293,-3.3293,-3.3293,-3.3293,-3.3293,-3.3293,-3.3309,-3.3293,-3.3293,-3.3309,-3.3293,-3.3229,-3.3069,-3.2839,-3.2358,-3.1695,-3.1087,-3.0717,-3.0642,-3.0612,-3.0612,-3.0612,-3.0612,-3.0612,-3.0612,-3.0612,-3.0612,-3.0612,-3.0612,-3.0612,-3.0612,-3.0612,-3.0612,-3.0612,-3.0612,-3.0612,-3.0612,-3.0612,-3.0612,-3.0598,-3.0554,-3.038,-3.0104,-2.9566,-2.9566,-2.945,-2.9479,-2.9552,-2.9755,-2.9958,-3.0161,-3.0438,-3.0583,-3.0612,-3.0612,-3.0612,-3.0612,-3.8643,-3.8525,-3.851,-3.8013,-3.7412,-3.7962,-3.7856,-3.7375,-3.7901,-3.8209,-3.8209,-3.8209,-3.8209,-3.8209,-3.8209,-3.8209,-3.8227,-3.8373,-3.8408,-3.839,-3.8301,-3.8122,-3.8198,-3.7933,-3.7703,-3.736,-3.7336,-3.7163,-3.6952,-3.6796,-3.6382,-3.5746,-3.5086,-3.4436,-3.3806,-3.3139,-3.247,-3.21,-3.1813,-3.1487,-3.1056,-3.0853,-3.082,-3.1019,-3.1935,-3.2931,-3.3684,-3.3567,-3.3344,-3.3882,-3.3553,-3.3313,-3.3256,-3.3309,-3.3293,-3.3293,-3.3293,-3.3293,-3.3293,-3.3293,-3.3293,-3.3293,-3.3293,-3.3293,-3.3293,-3.3293,-3.3293,-3.3293,-3.3293,-3.3266,-3.3176,-3.2769,-3.2315,-3.1809,-3.135,-3.094,-3.0717,-3.0642,-3.0612,-3.0612,-3.0612,-3.0612,-3.0612,-3.0612,-3.0612,-3.0612,-3.0612,-3.0612,-3.0612,-3.0612,-3.0612,-3.0612,-3.0612,-3.0612,-3.0612,-3.0612,-3.0612,-3.0598,-3.0598,-3.0525,-3.0525,-3.0292,-3.0438,-3.0423,-3.0118,-3.0104,-3.0322,-3.0496,-3.0554,-3.0554,-3.0598,-3.0612,-3.0612,-3.0612,-3.0612,-3.8673,-3.8658,-3.8544,-3.8355,-3.8166,-3.8249,-3.8167,-3.7955,-3.8118,-3.8209,-3.8209,-3.8209,-3.8209,-3.8209,-3.8209,-3.8209,-3.8299,-3.8717,-3.9134,-3.9043,-3.8444,-3.8627,-3.8775,-3.8383,-3.7829,-3.7611,-3.7409,-3.7161,-3.6926,-3.6838,-3.6457,-3.5857,-3.5569,-3.5239,-3.4574,-3.3877,-3.3508,-3.3243,-3.2762,-3.2365,-3.205,-3.1603,-3.135,-3.1427,-3.2055,-3.2452,-3.2861,-3.3282,-3.3569,-3.3524,-3.3083,-3.2823,-3.3182,-3.3293,-3.3293,-3.3293,-3.3293,-3.3293,-3.3293,-3.3293,-3.3293,-3.3293,-3.3293,-3.3293,-3.3293,-3.3293,-3.3293,-3.3293,-3.3309,-3.3282,-3.315,-3.2812,-3.2441,-3.2064,-3.1667,-3.1263,-3.097,-3.0717,-3.0642,-3.0612,-3.0612,-3.0612,-3.0612,-3.0612,-3.0612,-3.0612,-3.0612,-3.0612,-3.0612,-3.0612,-3.0612,-3.0612,-3.0612,-3.0612,-3.0612,-3.0612,-3.0612,-3.0612,-3.0612,-3.0612,-3.0612,-3.0612,-3.0612,-3.0612,-3.0554,-3.0612,-3.0612,-3.0612,-3.0583,-3.0598,-3.0612,-3.0612,-3.0612,-3.0612,-3.0612,-3.8658,-3.8609,-3.8478,-3.8415,-3.8336,-3.8309,-3.8224,-3.8209,-3.8209,-3.8209,-3.8209,-3.8209,-3.8209,-3.8209,-3.8209,-3.8209,-3.8281,-3.8608,-3.9242,-3.9532,-3.917,-3.9206,-3.9679,-3.9211,-3.8633,-3.82,-3.7941,-3.7594,-3.7289,-3.7102,-3.6887,-3.6264,-3.587,-3.5368,-3.5111,-3.4555,-3.4121,-3.374,-3.3425,-3.31,-3.2669,-3.2348,-3.2133,-3.2106,-3.2307,-3.2466,-3.2894,-3.266,-3.3088,-3.3307,-3.2857,-3.2608,-3.3151,-3.3293,-3.3293,-3.3293,-3.3293,-3.3293,-3.3293,-3.3293,-3.3293,-3.3293,-3.3293,-3.3293,-3.3293,-3.3293,-3.3293,-3.3293,-3.3309,-3.3256,-3.3176,-3.2989,-3.2703,-3.2315,-3.2007,-3.161,-3.1117,-3.0777,-3.0612,-3.0612,-3.0612,-3.0612,-3.0612,-3.0612,-3.0612,-3.0612,-3.0612,-3.0612,-3.0612,-3.0612,-3.0612,-3.0612,-3.0612,-3.0612,-3.0612,-3.0612,-3.0612,-3.0612,-3.0612,-3.0612,-3.0612,-3.0612,-3.0612,-3.0612,-3.0612,-3.0612,-3.0612,-3.0612,-3.0612,-3.0612,-3.0612,-3.0612,-3.0612,-3.0612,-3.0612,-3.8643,-3.8525,-3.843,-3.8423,-3.8452,-3.8297,-3.8299,-3.8391,-3.8245,-3.8209,-3.8209,-3.8209,-3.8209,-3.8209,-3.8209,-3.8281,-3.8607,-3.8735,-3.955,-4.0474,-3.9894,-4.0039,-4.0384,-4.0054,-3.9557,-3.9054,-3.862,-3.8163,-3.7607,-3.755,-3.7341,-3.6841,-3.6013,-3.5586,-3.5392,-3.5041,-3.4584,-3.4104,-3.4005,-3.3756,-3.3265,-3.2994,-3.2829,-3.2608,-3.2623,-3.2779,-3.2972,-3.2716,-3.2565,-3.3531,-3.2895,-3.2855,-3.3103,-3.3293,-3.3293,-3.3293,-3.3293,-3.3293,-3.3293,-3.3293,-3.3293,-3.3293,-3.3293,-3.3293,-3.3293,-3.3293,-3.3293,-3.3293,-3.3309,-3.3309,-3.3282,-3.315,-3.2893,-3.259,-3.2342,-3.1894,-3.135,-3.0911,-3.0747,-3.0612,-3.0612,-3.0612,-3.0612,-3.0612,-3.0612,-3.0612,-3.0612,-3.0612,-3.0612,-3.0612,-3.0612,-3.0612,-3.0612,-3.0612,-3.0612,-3.0612,-3.0612,-3.0612,-3.0612,-3.0612,-3.0612,-3.0612,-3.0612,-3.0612,-3.0612,-3.0612,-3.0612,-3.0612,-3.0612,-3.0612,-3.0612,-3.0612,-3.0612,-3.0612,-3.0612,-3.8692,-3.8658,-3.8481,-3.8765,-3.919,-3.8548,-3.8571,-3.9024,-3.8444,-3.8227,-3.8209,-3.8209,-3.8209,-3.8245,-3.8209,-3.8862,-3.9659,-3.984,-4.0437,-4.1216,-4.0763,-4.0745,-4.1178,-4.0624,-4.0174,-4.0011,-3.9396,-3.8386,-3.771,-3.7701,-3.7776,-3.7261,-3.6563,-3.6109,-3.5699,-3.5304,-3.5015,-3.475,-3.4717,-3.4584,-3.4485,-3.4087,-3.3458,-3.3071,-3.3036,-3.3134,-3.3202,-3.3237,-3.3332,-3.3497,-3.3245,-3.3224,-3.3261,-3.3293,-3.3293,-3.3293,-3.3293,-3.3293,-3.3293,-3.3293,-3.3293,-3.3293,-3.3293,-3.3293,-3.3293,-3.3293,-3.3293,-3.3293,-3.3293,-3.3293,-3.3293,-3.3203,-3.3096,-3.2893,-3.2633,-3.2274,-3.191,-3.1481,-3.0984,-3.0657,-3.0628,-3.0612,-3.0612,-3.0612,-3.0612,-3.0612,-3.0612,-3.0612,-3.0612,-3.0612,-3.0612,-3.0612,-3.0612,-3.0612,-3.0612,-3.0612,-3.0612,-3.0612,-3.0612,-3.0612,-3.0612,-3.0612,-3.0612,-3.0612,-3.0612,-3.0612,-3.0612,-3.0612,-3.0612,-3.0612,-3.0612,-3.0612,-3.0612,-3.0612,-3.0612,-3.8707,-3.8673,-3.8528,-3.865,-3.8858,-3.847,-3.8442,-3.8681,-3.8372,-3.8209,-3.8209,-3.8227,-3.8462,-3.8625,-3.8336,-3.9061,-4.0094,-4.0057,-4.0854,-4.1759,-4.1578,-4.1523,-4.204,-4.1294,-4.0731,-4.0381,-3.9772,-3.9065,-3.8156,-3.8411,-3.8291,-3.7761,-3.7112,-3.6505,-3.6166,-3.6092,-3.576,-3.5595,-3.5479,-3.5644,-3.5959,-3.5595,-3.4949,-3.4126,-3.3702,-3.3551,-3.3186,-3.2969,-3.3121,-3.3381,-3.3372,-3.3335,-3.3293,-3.3293,-3.3293,-3.3293,-3.3293,-3.3293,-3.3293,-3.3293,-3.3293,-3.3293,-3.3293,-3.3293,-3.3293,-3.3293,-3.3293,-3.3293,-3.3293,-3.3293,-3.3293,-3.3214,-3.3176,-3.3069,-3.2866,-3.2523,-3.2079,-3.171,-3.1234,-3.0777,-3.0657,-3.0628,-3.0612,-3.0612,-3.0612,-3.0612,-3.0612,-3.0612,-3.0612,-3.0612,-3.0612,-3.0612,-3.0612,-3.0612,-3.0612,-3.0612,-3.0612,-3.0612,-3.0612,-3.0612,-3.0612,-3.0612,-3.0612,-3.0612,-3.0612,-3.0612,-3.0612,-3.0612,-3.0612,-3.0612,-3.0612,-3.0612,-3.0612,-3.0612,-3.0612,-3.8707,-3.8692,-3.8544,-3.8538,-3.8601,-3.836,-3.8368,-3.8408,-3.8281,-3.8209,-3.8245,-3.8426,-3.8826,-3.9152,-3.9115,-3.9405,-4.0438,-4.0003,-4.1162,-4.2339,-4.2247,-4.2263,-4.2392,-4.2038,-4.127,-4.0563,-4.0277,-3.984,-3.8897,-3.8999,-3.8841,-3.8393,-3.7682,-3.7085,-3.6754,-3.6589,-3.6555,-3.639,-3.6059,-3.6373,-3.692,-3.7052,-3.6605,-3.5381,-3.4808,-3.4202,-3.3786,-3.3086,-3.3022,-3.3297,-3.3388,-3.3293,-3.3293,-3.3293,-3.3293,-3.3293,-3.3293,-3.3293,-3.3293,-3.3293,-3.3293,-3.3293,-3.3293,-3.3293,-3.3293,-3.3293,-3.3293,-3.3293,-3.3293,-3.3293,-3.3293,-3.3293,-3.324,-3.3176,-3.3096,-3.2908,-3.2358,-3.1938,-3.1625,-3.1204,-3.0866,-3.0657,-3.0642,-3.0612,-3.0612,-3.0612,-3.0612,-3.0612,-3.0612,-3.0612,-3.0612,-3.0612,-3.0612,-3.0612,-3.0612,-3.0612,-3.0612,-3.0612,-3.0612,-3.0612,-3.0612,-3.0612,-3.0612,-3.0612,-3.0612,-3.0612,-3.0612,-3.0612,-3.0612,-3.0612,-3.0612,-3.0612,-3.0612,-3.0612,-3.0612,-3.8707,-3.8692,-3.8515,-3.8818,-3.9223,-3.8546,-3.8607,-3.9078,-3.8462,-3.8209,-3.8246,-3.8915,-3.9278,-3.9532,-4.0075,-4.0293,-4.0619,-4.1089,-4.1741,-4.2718,-4.2623,-4.2472,-4.2532,-4.2127,-4.1415,-4.0735,-4.0494,-3.9755,-3.9118,-3.9319,-3.9425,-3.8987,-3.8444,-3.7954,-3.7615,-3.7119,-3.6456,-3.6787,-3.6406,-3.6473,-3.7052,-3.7218,-3.7085,-3.657,-3.5822,-3.5026,-3.4642,-3.3786,-3.3356,-3.3256,-3.3335,-3.3293,-3.3293,-3.3293,-3.3293,-3.3293,-3.3293,-3.3293,-3.3293,-3.3293,-3.3293,-3.3293,-3.3293,-3.3293,-3.3293,-3.3293,-3.3293,-3.3293,-3.3293,-3.3293,-3.3293,-3.3293,-3.3266,-3.3266,-3.3229,-3.315,-3.2784,-3.2259,-3.1923,-3.1481,-3.1073,-3.0807,-3.0672,-3.0642,-3.0612,-3.0612,-3.0612,-3.0612,-3.0612,-3.0612,-3.0612,-3.0612,-3.0612,-3.0612,-3.0612,-3.0612,-3.0612,-3.0612,-3.0612,-3.0612,-3.0612,-3.0612,-3.0612,-3.0612,-3.0612,-3.0612,-3.0612,-3.0612,-3.0612,-3.0612,-3.0612,-3.0612,-3.0612,-3.0612,-3.0612,-3.8658,-3.8575,-3.8478,-3.8599,-3.8793,-3.8418,-3.8424,-3.8607,-3.8372,-3.8209,-3.8372,-3.9043,-3.9604,-4.013,-4.0836,-4.1162,-4.1252,-4.1523,-4.2064,-4.2582,-4.2611,-4.2376,-4.2005,-4.1556,-4.1036,-4.0666,-4.0245,-3.9808,-3.9341,-3.933,-3.9484,-3.9276,-3.8984,-3.8543,-3.8377,-3.7996,-3.7814,-3.7831,-3.7781,-3.7814,-3.788,-3.8079,-3.8103,-3.7619,-3.6875,-3.6084,-3.5142,-3.4515,-3.3779,-3.3477,-3.3293,-3.3293,-3.3293,-3.3293,-3.3293,-3.3293,-3.3293,-3.3293,-3.3293,-3.3293,-3.3293,-3.3293,-3.3293,-3.3293,-3.3293,-3.3293,-3.3293,-3.3293,-3.3293,-3.3293,-3.3293,-3.3293,-3.3293,-3.3293,-3.3293,-3.3107,-3.2931,-3.2699,-3.2272,-3.1781,-3.1307,-3.0984,-3.0732,-3.0642,-3.0612,-3.0612,-3.0612,-3.0612,-3.0612,-3.0612,-3.0612,-3.0612,-3.0612,-3.0612,-3.0612,-3.0612,-3.0612,-3.0612,-3.0612,-3.0612,-3.0612,-3.0612,-3.0612,-3.0612,-3.0612,-3.0612,-3.0612,-3.0612,-3.0612,-3.0612,-3.0612,-3.0612,-3.0612,-3.0612,-3.0612,-3.8593,-3.8491,-3.8494,-3.8417,-3.8307,-3.8272,-3.8259,-3.8227,-3.848,-3.8535,-3.8788,-3.955,-4.0347,-4.08,-4.1361,-4.1596,-4.1669,-4.1668,-4.2043,-4.2338,-4.2313,-4.1987,-4.1604,-4.1065,-4.0594,-4.0277,-3.9961,-3.9601,-3.9478,-3.9432,-3.9405,-3.9315,-3.9249,-3.9,-3.8725,-3.856,-3.846,-3.8179,-3.8742,-3.8808,-3.8642,-3.8967,-3.8735,-3.8294,-3.7676,-3.6886,-3.5642,-3.4691,-3.408,-3.3762,-3.3372,-3.3309,-3.3293,-3.3293,-3.3293,-3.3293,-3.3293,-3.3293,-3.3293,-3.3293,-3.3293,-3.3293,-3.3293,-3.3293,-3.3293,-3.3293,-3.3293,-3.3293,-3.3293,-3.3293,-3.3293,-3.3293,-3.3293,-3.3293,-3.3293,-3.3065,-3.2861,-3.2753,-3.248,-3.1908,-3.1437,-3.1102,-3.0851,-3.0672,-3.0612,-3.0612,-3.0612,-3.0612,-3.0612,-3.0612,-3.0612,-3.0612,-3.0612,-3.0612,-3.0612,-3.0612,-3.0612,-3.0612,-3.0612,-3.0612,-3.0612,-3.0612,-3.0612,-3.0612,-3.0612,-3.0612,-3.0612,-3.0612,-3.0612,-3.0612,-3.0612,-3.0612,-3.0612,-3.0612,-3.0612,-3.851,-3.8476,-3.843,-3.8368,-3.829,-3.8242,-3.8209,-3.8263,-3.8952,-3.9206,-3.9496,-4.0745,-4.1397,-4.1632,-4.1704,-4.1776,-4.1741,-4.1518,-4.1923,-4.2116,-4.1945,-4.16,-4.118,-4.0737,-4.0252,-4.002,-3.9722,-3.952,-3.9379,-3.9369,-3.9325,-3.9315,-3.9315,-3.9265,-3.905,-3.8758,-3.8609,-3.8493,-3.9,-3.9282,-3.9149,-3.9222,-3.9082,-3.8603,-3.7856,-3.7127,-3.6694,-3.5363,-3.4485,-3.4268,-3.3735,-3.3451,-3.3482,-3.3356,-3.3324,-3.3293,-3.3293,-3.3293,-3.3293,-3.3293,-3.3293,-3.3293,-3.3293,-3.3293,-3.3293,-3.3293,-3.3293,-3.3293,-3.3293,-3.3293,-3.3293,-3.3293,-3.3293,-3.3293,-3.3293,-3.324,-3.3081,-3.3027,-3.2687,-3.2064,-3.161,-3.1248,-3.0866,-3.0672,-3.0612,-3.0612,-3.0612,-3.0612,-3.0612,-3.0612,-3.0612,-3.0612,-3.0612,-3.0612,-3.0612,-3.0612,-3.0612,-3.0612,-3.0612,-3.0612,-3.0612,-3.0612,-3.0612,-3.0612,-3.0612,-3.0612,-3.0612,-3.0612,-3.0612,-3.0612,-3.0612,-3.0612,-3.0612,-3.0612,-3.0612,-3.8544,-3.8446,-3.8433,-3.8352,-3.829,-3.8242,-3.8209,-3.8263,-3.8535,-3.9242,-4.0166,-4.1198,-4.1976,-4.2265,-4.2296,-4.2258,-4.2237,-4.2044,-4.2037,-4.181,-4.1547,-4.1123,-4.0748,-4.0311,-3.985,-3.9713,-3.952,-3.9432,-3.9325,-3.9381,-3.9315,-3.9315,-3.9398,-3.9299,-3.9133,-3.9,-3.8874,-3.8891,-3.9116,-3.9299,-3.9315,-3.9272,-3.9148,-3.8783,-3.8476,-3.7667,-3.6946,-3.6198,-3.5522,-3.4916,-3.4273,-3.3957,-3.3735,-3.3514,-3.3324,-3.3293,-3.3293,-3.3293,-3.3293,-3.3293,-3.3293,-3.3293,-3.3293,-3.3293,-3.3293,-3.3293,-3.3293,-3.3293,-3.3293,-3.3293,-3.3293,-3.3293,-3.3293,-3.3293,-3.3293,-3.3293,-3.3256,-3.315,-3.2742,-3.2048,-3.1695,-3.1365,-3.0984,-3.0612,-3.0612,-3.0612,-3.0612,-3.0612,-3.0612,-3.0612,-3.0612,-3.0612,-3.0612,-3.0612,-3.0612,-3.0612,-3.0612,-3.0612,-3.0612,-3.0612,-3.0612,-3.0612,-3.0612,-3.0612,-3.0612,-3.0612,-3.0612,-3.0612,-3.0612,-3.0612,-3.0612,-3.0612,-3.0612,-3.0612,-3.0612,-3.8578,-3.8481,-3.8401,-3.8338,-3.8257,-3.8207,-3.8209,-3.8299,-3.8753,-3.9767,-4.1234,-4.185,-4.2301,-4.2678,-4.2671,-4.2514,-4.2398,-4.2195,-4.1938,-4.1609,-4.1209,-4.0741,-4.0271,-3.9884,-3.9599,-3.9475,-3.9412,-3.9348,-3.9713,-3.9647,-3.9862,-3.9945,-3.9713,-3.9613,-3.9315,-3.9315,-3.9315,-3.9315,-3.9315,-3.9315,-3.9315,-3.9272,-3.9056,-3.8766,-3.8562,-3.8064,-3.729,-3.6607,-3.6216,-3.5545,-3.4889,-3.4352,-3.4051,-3.3751,-3.3372,-3.3309,-3.3309,-3.3309,-3.3309,-3.3293,-3.3293,-3.3293,-3.3293,-3.3293,-3.3293,-3.3293,-3.3293,-3.3293,-3.3293,-3.3293,-3.3293,-3.3293,-3.3293,-3.3293,-3.3293,-3.3293,-3.324,-3.3134,-3.259,-3.202,-3.1752,-3.1437,-3.0984,-3.0612,-3.0612,-3.0612,-3.0612,-3.0612,-3.0612,-3.0612,-3.0612,-3.0612,-3.0612,-3.0612,-3.0612,-3.0612,-3.0612,-3.0612,-3.0612,-3.0612,-3.0612,-3.0612,-3.0612,-3.0612,-3.0612,-3.0612,-3.0612,-3.0612,-3.0612,-3.0612,-3.0612,-3.0612,-3.0612,-3.0612,-3.0612,-3.8593,-3.8661,-3.8403,-3.8274,-3.8207,-3.8209,-3.8227,-3.8535,-3.9767,-4.1144,-4.2375,-4.2701,-4.2659,-4.265,-4.2589,-4.245,-4.2246,-4.2019,-4.1719,-4.1386,-4.0884,-4.0427,-4.0045,-3.9677,-3.9458,-3.9342,-3.9332,-3.9613,-4.0177,-3.9995,-4.0382,-4.0647,-4.0249,-3.9912,-3.9365,-3.9332,-3.9332,-3.9315,-3.9315,-3.9315,-3.9315,-3.9315,-3.9002,-3.8683,-3.86,-3.8189,-3.7559,-3.7049,-3.6676,-3.6308,-3.5268,-3.4747,-3.4573,-3.3972,-3.3593,-3.3451,-3.3403,-3.3372,-3.3356,-3.334,-3.3435,-3.3388,-3.3388,-3.3435,-3.334,-3.3293,-3.3293,-3.3293,-3.3293,-3.3293,-3.3293,-3.3293,-3.3293,-3.3293,-3.3293,-3.3266,-3.324,-3.3123,-3.2605,-3.2048,-3.1752,-3.1466,-3.0955,-3.0612,-3.0612,-3.0612,-3.0612,-3.0612,-3.0612,-3.0612,-3.0612,-3.0612,-3.0612,-3.0612,-3.0612,-3.0612,-3.0612,-3.0612,-3.0612,-3.0612,-3.0612,-3.0612,-3.0612,-3.0612,-3.0612,-3.0612,-3.0612,-3.0612,-3.0612,-3.0612,-3.0612,-3.0612,-3.0612,-3.0612,-3.0568,-3.8609,-3.8559,-3.8465,-3.8387,-3.8274,-3.8207,-3.8482,-3.9223,-4.0582,-4.1614,-4.214,-4.2611,-4.2786,-4.2629,-4.2468,-4.2287,-4.2019,-4.1591,-4.13,-4.0913,-4.0524,-4.007,-3.9729,-3.9537,-3.9352,-3.9299,-3.9332,-3.9381,-3.9613,-3.9829,-3.9796,-3.9901,-4.0481,-4.0011,-3.9647,-3.963,-3.9862,-3.9415,-3.9315,-3.9315,-3.9315,-3.9272,-3.9094,-3.8683,-3.8611,-3.8319,-3.7759,-3.7348,-3.7184,-3.6972,-3.5947,-3.56,-3.5442,-3.4936,-3.4383,-3.4099,-3.3941,-3.3957,-3.4115,-3.4241,-3.4178,-3.3846,-3.3656,-3.3688,-3.3403,-3.3309,-3.3293,-3.3293,-3.3293,-3.3293,-3.3293,-3.3293,-3.3293,-3.3293,-3.3293,-3.3293,-3.3256,-3.3058,-3.2691,-3.212,-3.1709,-3.1263,-3.0807,-3.0642,-3.0612,-3.0612,-3.0612,-3.0612,-3.0612,-3.0612,-3.0612,-3.0612,-3.0612,-3.0612,-3.0612,-3.0612,-3.0612,-3.0612,-3.0612,-3.0612,-3.0612,-3.0612,-3.0612,-3.0612,-3.0612,-3.0612,-3.0612,-3.0612,-3.0612,-3.0612,-3.0568,-3.0568,-3.0582,-3.0538,-3.0538,-3.8559,-3.8462,-3.843,-3.8551,-3.8689,-3.8658,-3.9222,-4.0238,-4.127,-4.1831,-4.223,-4.2701,-4.2729,-4.2512,-4.2348,-4.21,-4.1805,-4.152,-4.1024,-4.0628,-4.0402,-4.002,-3.9668,-3.9422,-3.9369,-3.9342,-3.9332,-3.9398,-3.9829,-3.973,-3.9812,-4.0094,-4.0547,-4.0343,-3.9995,-3.9846,-3.9995,-3.9514,-3.9315,-3.9315,-3.9315,-3.9245,-3.911,-3.8805,-3.8583,-3.8359,-3.7947,-3.773,-3.7658,-3.7334,-3.6911,-3.644,-3.6219,-3.5789,-3.5063,-3.4541,-3.4288,-3.4399,-3.4731,-3.5315,-3.5063,-3.4336,-3.432,-3.3941,-3.3467,-3.3309,-3.3293,-3.3293,-3.3293,-3.3324,-3.334,-3.334,-3.3372,-3.3388,-3.3393,-3.3393,-3.326,-3.3076,-3.2619,-3.207,-3.148,-3.1058,-3.0747,-3.0687,-3.0612,-3.0612,-3.0612,-3.0612,-3.0612,-3.0612,-3.0612,-3.0612,-3.0612,-3.0612,-3.0612,-3.0612,-3.0612,-3.0612,-3.0612,-3.0612,-3.0612,-3.0612,-3.0612,-3.0612,-3.0612,-3.0612,-3.0612,-3.0612,-3.0612,-3.0538,-3.0507,-3.0507,-3.0507,-3.0447,-3.0403,-3.8462,-3.8401,-3.8338,-3.8743,-3.9344,-3.9418,-4.0309,-4.1614,-4.1741,-4.2175,-4.2846,-4.2865,-4.2709,-4.2369,-4.2308,-4.2058,-4.1631,-4.152,-4.1053,-4.0652,-4.0377,-3.9969,-3.9642,-3.9448,-3.9395,-3.9342,-3.9348,-3.9547,-4.0227,-3.9995,-4.0028,-4.0547,-4.1342,-4.0895,-4.0315,-4.0177,-4.0067,-3.9564,-3.9497,-3.9448,-3.9365,-3.9245,-3.904,-3.8777,-3.8583,-3.8274,-3.7918,-3.773,-3.7628,-3.7334,-3.6896,-3.6627,-3.6295,-3.5821,-3.5126,-3.4652,-3.4525,-3.492,-3.5394,-3.6029,-3.5995,-3.5284,-3.4826,-3.4146,-3.364,-3.3498,-3.3467,-3.3356,-3.3309,-3.3372,-3.3419,-3.3467,-3.353,-3.3551,-3.3587,-3.3507,-3.3329,-3.2998,-3.2507,-3.1949,-3.1322,-3.0896,-3.0687,-3.0612,-3.067,-3.0612,-3.0612,-3.0612,-3.0612,-3.0612,-3.0612,-3.0612,-3.0612,-3.0612,-3.0612,-3.0612,-3.0612,-3.0612,-3.0612,-3.0612,-3.0612,-3.0612,-3.0612,-3.0612,-3.0612,-3.0612,-3.0612,-3.0582,-3.0582,-3.0507,-3.0417,-3.0387,-3.0387,-3.0266,-3.019,-3.8415,-3.8382,-3.8366,-3.8483,-3.8781,-3.9765,-4.0782,-4.1705,-4.2285,-4.2719,-4.2919,-4.2919,-4.265,-4.2328,-4.2287,-4.1977,-4.1569,-4.114,-4.0754,-4.0417,-4.0129,-3.9703,-3.9458,-3.9369,-3.9325,-3.9342,-3.9348,-3.9431,-3.9564,-3.9647,-3.9995,-4.0492,-4.1276,-4.1028,-4.0928,-4.0978,-4.0266,-3.9763,-3.9763,-3.9597,-3.9328,-3.9175,-3.8942,-3.8777,-3.8544,-3.8205,-3.7918,-3.773,-3.7628,-3.7429,-3.7304,-3.7164,-3.7133,-3.6943,-3.6564,-3.5932,-3.5824,-3.5919,-3.6172,-3.6769,-3.6864,-3.6295,-3.5868,-3.5126,-3.4462,-3.3988,-3.3862,-3.3719,-3.3625,-3.3751,-3.3903,-3.3954,-3.4069,-3.4144,-3.4136,-3.397,-3.3802,-3.3402,-3.2864,-3.2168,-3.1544,-3.107,-3.083,-3.0728,-3.0772,-3.067,-3.0627,-3.0641,-3.0612,-3.0612,-3.0612,-3.0612,-3.0612,-3.0612,-3.0612,-3.0612,-3.0612,-3.0612,-3.0612,-3.0612,-3.0612,-3.0612,-3.0612,-3.0612,-3.0612,-3.0612,-3.0612,-3.0582,-3.0477,-3.0371,-3.028,-3.028,-3.0235,-3.0083,-2.9915,-3.8336,-3.8322,-3.8322,-3.847,-3.8983,-4.0347,-4.1288,-4.1795,-4.2538,-4.2881,-4.2786,-4.2786,-4.2534,-4.2166,-4.2103,-4.1831,-4.13,-4.1007,-4.0628,-4.0129,-3.9807,-3.9573,-3.9405,-3.9315,-3.9315,-3.9315,-3.9315,-3.9332,-3.9315,-3.9332,-3.963,-3.9928,-4.0663,-4.0746,-4.0696,-4.0829,-4.0746,-4.0177,-3.9812,-3.968,-3.9417,-3.911,-3.8914,-3.8722,-3.846,-3.8148,-3.7876,-3.77,-3.7583,-3.7494,-3.751,-3.751,-3.7399,-3.7196,-3.6943,-3.6314,-3.6282,-3.6266,-3.6424,-3.7022,-3.7085,-3.6975,-3.6785,-3.6216,-3.5505,-3.4952,-3.4652,-3.4399,-3.4304,-3.4277,-3.4416,-3.4569,-3.4751,-3.4888,-3.4761,-3.4603,-3.4266,-3.3909,-3.3276,-3.2552,-3.1951,-3.1445,-3.1134,-3.1018,-3.0858,-3.0772,-3.0786,-3.0874,-3.0757,-3.0612,-3.0612,-3.0612,-3.0612,-3.0612,-3.0612,-3.0612,-3.0612,-3.0612,-3.0612,-3.0612,-3.0612,-3.0612,-3.0612,-3.0612,-3.0612,-3.0612,-3.0582,-3.0447,-3.0326,-3.0219,-3.0036,-2.9898,-2.9867,-2.9837,-2.9651,-3.8257,-3.8209,-3.8227,-3.8644,-3.9532,-4.0872,-4.1578,-4.1795,-4.2537,-4.2749,-4.2649,-4.2609,-4.2351,-4.1977,-4.1934,-4.1552,-4.1146,-4.0819,-4.0476,-3.9901,-3.9755,-3.9563,-3.9379,-3.9315,-3.9315,-3.9315,-3.9315,-3.9315,-3.9315,-3.9348,-3.9381,-3.9415,-4.0111,-4.0464,-4.0613,-4.1044,-4.1028,-4.0597,-4.0028,-3.9663,-3.951,-3.9209,-3.8892,-3.8595,-3.8286,-3.796,-3.7759,-3.7599,-3.751,-3.751,-3.751,-3.751,-3.732,-3.7038,-3.6706,-3.6598,-3.6674,-3.6487,-3.6658,-3.7085,-3.7259,-3.7306,-3.7415,-3.6975,-3.6358,-3.5726,-3.5363,-3.4999,-3.4857,-3.4907,-3.503,-3.5102,-3.5234,-3.5281,-3.5228,-3.5032,-3.4744,-3.4209,-3.3444,-3.2817,-3.2411,-3.1917,-3.1714,-3.1613,-3.1555,-3.1177,-3.1134,-3.1293,-3.1206,-3.1019,-3.0801,-3.0772,-3.0641,-3.0641,-3.0612,-3.0612,-3.0612,-3.0612,-3.0612,-3.0612,-3.0612,-3.0612,-3.0612,-3.0612,-3.0612,-3.0582,-3.0538,-3.0357,-3.0174,-3.0005,-2.9789,-2.9526,-2.9477,-2.9561,-2.9425,-3.8225,-3.8209,-3.8209,-3.8662,-3.946,-4.0383,-4.1162,-4.1741,-4.2385,-4.2649,-4.2591,-4.255,-4.2249,-4.1719,-4.1788,-4.144,-4.0819,-4.0587,-4.0303,-3.9884,-3.9616,-3.9484,-3.9325,-3.9315,-3.9315,-3.9315,-3.9315,-3.9315,-3.9315,-3.9348,-3.9597,-4.0044,-4.0409,-4.0498,-4.116,-4.1591,-4.1243,-4.0978,-4.0514,-4.0067,-3.9957,-3.9704,-3.9388,-3.8743,-3.825,-3.7937,-3.7719,-3.7569,-3.751,-3.751,-3.751,-3.751,-3.7478,-3.7275,-3.7212,-3.7212,-3.7038,-3.6832,-3.6658,-3.6943,-3.7243,-3.7117,-3.7117,-3.7304,-3.7054,-3.65,-3.5998,-3.5663,-3.5483,-3.5564,-3.5578,-3.5615,-3.5622,-3.5645,-3.5614,-3.5381,-3.5146,-3.4371,-3.358,-3.3182,-3.282,-3.2585,-3.2382,-3.2237,-3.2179,-3.215,-3.215,-3.2193,-3.2135,-3.1932,-3.1366,-3.1222,-3.0772,-3.0699,-3.0699,-3.0699,-3.0757,-3.0656,-3.0612,-3.0612,-3.0612,-3.0612,-3.0612,-3.0612,-3.0612,-3.0568,-3.0447,-3.0249,-3.0066,-2.9865,-2.9694,-2.9483,-2.943,-2.9463,-2.9247,-3.7883,-3.8191,-3.8209,-3.8444,-3.9007,-4.0021,-4.0764,-4.1288,-4.2183,-4.255,-4.245,-4.231,-4.1959,-4.1458,-4.1529,-4.1151,-4.0483,-4.0311,-3.9978,-3.9625,-3.9458,-3.9352,-3.9315,-3.9315,-3.9315,-3.9315,-3.9315,-3.9315,-3.9315,-3.9332,-3.958,-3.9962,-4.021,-4.0779,-4.1624,-4.1409,-4.1458,-4.1392,-4.0994,-4.0652,-4.0299,-3.9691,-3.9316,-3.8671,-3.8287,-3.7966,-3.7914,-3.7761,-3.751,-3.751,-3.751,-3.751,-3.751,-3.7462,-3.7069,-3.688,-3.6832,-3.7051,-3.6611,-3.6738,-3.7257,-3.7117,-3.7133,-3.7431,-3.7387,-3.6839,-3.6631,-3.6317,-3.6301,-3.6357,-3.5921,-3.583,-3.5706,-3.5653,-3.5492,-3.522,-3.4946,-3.4453,-3.4043,-3.3871,-3.3587,-3.3398,-3.318,-3.2966,-3.2817,-3.2483,-3.26,-3.2701,-3.2716,-3.2829,-3.228,-3.1874,-3.1569,-3.1177,-3.1119,-3.1047,-3.0945,-3.0814,-3.0612,-3.0612,-3.0612,-3.0612,-3.0612,-3.0612,-3.0598,-3.0568,-3.0417,-3.0219,-2.9943,-2.9727,-2.9606,-2.949,-2.9479,-2.9553,-2.9689,-3.7484,-3.8172,-3.8209,-3.8281,-3.8553,-3.9749,-4.0402,-4.0691,-4.1695,-4.2123,-4.1952,-4.1722,-4.1442,-4.1283,-4.1076,-4.058,-4.0229,-4.0121,-3.9755,-3.9484,-3.9325,-3.9315,-3.9315,-3.9315,-3.9315,-3.9315,-3.9315,-3.9315,-3.9315,-3.9315,-3.9365,-3.9464,-3.9912,-4.0448,-4.068,-4.116,-4.1674,-4.1612,-4.1302,-4.0821,-4.0076,-3.924,-3.904,-3.8724,-3.8323,-3.8023,-3.8046,-3.7907,-3.7541,-3.751,-3.751,-3.751,-3.751,-3.7478,-3.6988,-3.6735,-3.7067,-3.6753,-3.6295,-3.6861,-3.7148,-3.7322,-3.7447,-3.7449,-3.7344,-3.7178,-3.6966,-3.6721,-3.6705,-3.6646,-3.6181,-3.5959,-3.5814,-3.5539,-3.5279,-3.5082,-3.4802,-3.452,-3.4438,-3.4356,-3.4211,-3.4022,-3.3862,-3.3649,-3.3402,-3.3021,-3.2919,-3.2962,-3.3093,-3.3354,-3.3253,-3.3021,-3.2832,-3.2411,-3.17,-3.1438,-3.1293,-3.083,-3.0612,-3.0612,-3.0612,-3.0612,-3.0612,-3.0612,-3.0598,-3.0568,-3.0387,-3.0174,-2.9913,-2.9749,-2.971,-2.9692,-2.9808,-2.9968,-3.0399,-3.7466,-3.8209,-3.8209,-3.8553,-3.9134,-3.9496,-3.9878,-4.0274,-4.0372,-4.0522,-4.0708,-4.0604,-4.056,-4.0907,-4.0789,-4.0377,-3.9944,-3.9884,-3.9694,-3.9369,-3.9315,-3.9315,-3.9315,-3.9315,-3.9315,-3.9315,-3.9315,-3.9315,-3.9381,-3.9348,-3.9348,-3.9431,-4.0094,-4.0696,-4.1342,-4.1761,-4.2109,-4.1914,-4.1394,-4.0831,-4.0118,-3.9458,-3.9048,-3.8617,-3.8027,-3.7809,-3.768,-3.7573,-3.7526,-3.751,-3.751,-3.751,-3.751,-3.7494,-3.7146,-3.6909,-3.7241,-3.6896,-3.6706,-3.7038,-3.7306,-3.7022,-3.7101,-3.72,-3.7081,-3.6964,-3.6597,-3.6045,-3.6061,-3.6306,-3.6053,-3.5958,-3.5797,-3.5344,-3.5016,-3.4898,-3.4683,-3.4501,-3.4399,-3.4366,-3.4356,-3.4269,-3.424,-3.4109,-3.4095,-3.3848,-3.3833,-3.3862,-3.3804,-3.3978,-3.408,-3.3964,-3.3833,-3.2858,-3.1872,-3.1816,-3.1598,-3.1048,-3.0641,-3.0669,-3.0669,-3.0612,-3.0612,-3.0522,-3.0567,-3.0567,-3.0371,-3.0344,-3.0171,-3.0031,-2.996,-2.9978,-3.0149,-3.048,-3.1005]},{"header":{"parameterUnit":"m.s-1","parameterCategory":1,"la1":31.0,"la2":29.5877,"lo1":-88.7671,"lo2":-86.6584,"dy":0.0162,"dx":0.0185,"nx":115,"ny":88,"refTime":"2023-02-26T06:00:00:Z","depth":0,"parameterNumber":3,"parameterNumberName":"V-component_of_WINDS"},"data":[0.0,0.0,0.0,0.0,0.0,0.0,0.0,0.0,0.0,0.0,0.0,0.0,0.0,0.0,0.0,0.0,0.0,0.0,0.0,0.0,0.0,0.0,0.0,0.0,0.0,0.0,0.0,0.0,0.0,0.0,0.0,0.0,0.0,0.0,0.0,0.0,0.0,0.0,0.0,0.0,0.0,0.0,0.0,0.0,0.0,0.0,0.0,0.0,0.0,0.0,0.0,0.0,0.0,0.0,0.0,0.0,0.0,0.0,0.0,0.0,0.0,0.0,0.0,0.0,0.0,0.0,0.0,0.0,0.0,0.0,0.0,0.0,0.0,0.0,0.0,0.0,0.0,0.0,0.0,0.0,0.0,0.0,0.0,0.0,0.0,0.0,0.0,0.0,0.0,0.0,0.0,0.0,0.0,0.0,0.0,0.0,0.0,0.0,0.0,0.0,0.0,0.0,0.0,0.0,0.0,0.0,0.0,0.0,0.0,0.0,0.0,0.0,0.0,0.0,0.0,0.0,0.0,0.0,0.0,0.0,0.0,0.0,0.0,0.0,0.0,0.0,0.0,0.0,0.0,0.0,0.0,0.0,0.0,0.0,0.0,0.0,0.0,0.0,0.0,0.0,0.0,0.0,0.0,0.0,0.0,0.0,0.0,0.0,0.0,0.0,0.0,0.0,0.0,0.0,0.0,0.0,0.0,0.0,0.0,0.0,0.0,0.0,0.0,0.0,0.0,0.0,0.0,0.0,0.0,0.0,0.0,0.0,0.0,0.0,0.0,0.0,0.0,0.0,0.0,0.0,0.0,0.0,0.0,0.0,0.0,0.0,0.0,0.0,0.0,0.0,0.0,0.0,0.0,0.0,0.0,0.0,0.0,0.0,0.0,0.0,0.0,0.0,0.0,0.0,0.0,0.0,0.0,0.0,0.0,0.0,0.0,0.0,0.0,0.0,0.0,0.0,0.0,0.0,0.0,0.0,0.0,0.0,0.0,0.0,0.0,0.0,0.0,0.0,0.0,0.0,0.0,0.0,0.0,0.0,0.0,0.0,0.0,0.0,0.0,0.0,0.0,0.0,0.0,0.0,0.0,0.0,0.0,0.0,0.0,0.0,0.0,0.0,0.0,0.0,0.0,0.0,0.0,0.0,0.0,0.0,0.0,0.0,0.0,0.0,0.0,0.0,0.0,0.0,0.0,0.0,0.0,0.0,0.0,0.0,0.0,0.0,0.0,0.0,0.0,0.0,0.0,0.0,0.0,0.0,0.0,0.0,0.0,0.0,0.0,0.0,0.0,0.0,0.0,0.0,0.0,0.0,0.0,0.0,0.0,0.0,0.0,0.0,0.0,0.0,0.0,0.0,0.0,0.0,0.0,0.0,0.0,0.0,0.0,0.0,0.0,0.0,0.0,0.0,0.0,0.0,0.0,0.0,0.0,0.0,0.0,0.0,0.0,0.0,0.0,0.0,0.0,0.0,0.0,0.0,0.0,0.0,0.0,0.0,0.0,0.0,0.0,0.0,0.0,0.0,0.0,0.0,0.0,0.0,0.0,0.0,0.0,0.0,0.0,0.0,0.0,0.0,0.0,0.0,0.0,0.0,0.0,0.0,0.0,0.0,0.0,0.0,0.0,0.0,0.0,0.0,0.0,0.0,0.0,0.0,0.0,0.0,0.0,0.0,0.0,0.0,0.0,0.0,0.0,0.0,0.0,0.0,0.0,0.0,0.0,0.0,0.0,0.0,0.0,0.0,0.0,0.0,0.0,0.0,0.0,0.0,0.0,0.0,0.0,0.0,0.0,0.0,0.0,0.0,0.0,0.0,0.0,0.0,0.0,0.0,0.0,0.0,0.0,0.0,0.0,0.0,0.0,0.0,0.0,0.0,0.0,0.0,0.0,0.0,0.0,0.0,0.0,0.0,0.0,0.0,0.0,0.0,0.0,0.0,0.0,0.0,0.0,0.0,0.0,0.0,0.0,0.0,0.0,0.0,0.0,0.0,0.0,0.0,0.0,0.0,0.0,0.0,0.0,0.0,0.0,0.0,0.0,0.0,0.0,0.0,0.0,0.0,0.0,0.0,0.0,0.0,0.0,0.0,0.0,0.0,0.0,0.0,0.0,0.0,0.0,0.0,0.0,0.0,0.0,0.0,0.0,0.0,0.0,0.0,0.0,0.0,0.0,0.0,0.0,0.0,0.0,0.0,0.0,0.0,0.0,0.0,0.0,0.0,0.0,0.0,0.0,0.0,0.0,0.0,0.0,0.0,0.0,0.0,0.0,0.0,0.0,0.0,0.0,0.0,0.0,0.0,0.0,0.0,0.0,0.0,0.0,0.0,0.0,0.0,0.0,0.0,0.0,0.0,0.0,0.0,0.0,0.0,0.0,0.0,0.0,0.0,0.0,0.0,0.0,0.0,0.0,0.0,0.0,0.0,0.0,0.0,0.0,0.0,0.0,0.0,0.0,0.0,0.0,0.0,0.0,0.0,0.0,0.0,0.0,0.0,0.0,0.0,0.0,0.0,0.0,0.0,0.0,0.0,0.0,0.0,0.0,0.0,0.0,0.0,0.0,0.0,0.0,0.0,0.0,0.0,0.0,0.0,0.0,0.0,0.0,0.0,0.0,0.0,0.0,0.0,0.0,0.0,0.0,0.0,0.0,0.0,0.0,0.0,0.0,0.0,0.0,0.0,0.0,0.0,0.0,0.0,0.0,0.0,0.0,0.0,0.0,0.0,0.0,0.0,0.0,0.0,0.0,0.0,0.0,0.0,0.0,0.0,0.0,0.0,0.0,0.0,0.0,0.0,0.0,0.0,0.0,0.0,0.0,0.0,0.0,0.0,0.0,0.0,0.0,0.0,0.0,0.0,0.0,0.0,0.0,0.0,0.0,0.0,0.0,0.0,0.0,0.0,0.0,0.0,0.0,0.0,0.0,0.0,0.0,0.0,0.0,0.0,0.0,0.0,0.0,0.0,0.0,0.0,0.0,0.0,0.0,0.0,0.0,0.0,0.0,0.0,0.0,0.0,0.0,0.0,0.0,0.0,0.0,0.0,0.0,0.0,0.0,0.0,0.0,0.0,0.0,0.0,0.0,0.0,0.0,0.0,0.0,0.0,0.0,0.0,0.0,0.0,0.0,0.0,0.0,0.0,0.0,0.0,0.0,0.0,0.0,0.0,0.0,0.0,0.0,0.0,0.0,0.0,0.0,0.0,0.0,0.0,0.0,0.0,0.0,0.0,0.0,0.0,0.0,0.0,0.0,0.0,0.0,0.0,0.0,0.0,0.0,0.0,0.0,0.0,0.0,0.0,0.0,0.0,0.0,0.0,0.0,0.0,0.0,0.0,0.0,0.0,0.0,0.0,0.0,0.0,0.0,0.0,0.0,0.0,0.0,0.0,0.0,0.0,0.0,0.0,0.0,0.0,0.0,0.0,0.0,0.0,0.0,0.0,0.0,0.0,0.0,0.0,0.0,0.0,0.0,0.0,0.0,0.0,0.0,0.0,0.0,0.0,0.0,0.0,0.0,0.0,0.0,0.0,0.0,0.0,0.0,0.0,0.0,0.0,0.0,0.0,0.0,0.0,0.0,0.0,0.0,0.0,0.0,0.0,0.0,0.0,0.0,0.0,0.0,0.0,0.0,0.0,0.0,0.0,0.0,0.0,0.0,0.0,0.0,0.0,0.0,0.0,0.0,0.0,0.0,0.0,0.0,0.0,0.0,0.0,0.0,0.0,0.0,0.0,0.0,0.0,0.0,0.0,0.0,0.0,0.0,0.0,0.0,0.0,0.0,0.0,0.0,0.0,0.0,0.0,0.0,0.0,0.0,0.0,0.0,0.0,0.0,0.0,0.0,0.0,0.0,0.0,0.0,0.0,0.0,0.0,0.0,0.0,0.0,0.0,0.0,0.0,0.0,0.0,0.0,0.0,0.0,0.0,0.0,0.0,0.0,0.0,0.0,0.0,0.0,0.0,0.0,0.0,0.0,0.0,0.0,0.0,0.0,0.0,0.0,0.0,0.0,0.0,0.0,0.0,0.0,0.0,0.0,0.0,0.0,0.0,0.0,0.0,0.0,0.0,0.0,0.0,0.0,0.0,0.0,0.0,0.0,0.0,0.0,0.0,0.0,0.0,0.0,0.0,0.0,0.0,0.0,0.0,0.0,0.0,0.0,0.0,0.0,0.0,0.0,0.0,0.0,0.0,0.0,0.0,0.0,0.0,0.0,0.0,0.0,0.0,0.0,0.0,0.0,0.0,0.0,0.0,0.0,0.0,0.0,0.0,-1.0501,0.0,0.0,0.0,0.0,0.0,0.0,0.0,0.0,0.0,0.0,0.0,0.0,0.0,0.0,0.0,0.0,0.0,0.0,0.0,0.0,0.0,0.0,0.0,0.0,0.0,0.0,0.0,0.0,0.0,0.0,0.0,0.0,0.0,0.0,0.0,0.0,0.0,0.0,0.0,0.0,0.0,0.0,0.0,0.0,0.0,0.0,0.0,0.0,0.0,0.0,0.0,0.0,0.0,0.0,0.0,0.0,0.0,0.0,0.0,0.0,0.0,0.0,0.0,0.0,0.0,0.0,0.0,0.0,0.0,0.0,0.0,0.0,0.0,0.0,0.0,0.0,0.0,0.0,0.0,0.0,0.0,0.0,0.0,0.0,0.0,0.0,0.0,0.0,0.0,0.0,0.0,0.0,0.0,0.0,0.0,0.0,0.0,0.0,0.0,0.0,0.0,0.0,0.0,0.0,0.0,0.0,0.0,0.0,0.0,0.0,-1.1421,-1.1203,-1.132,-1.1227,-1.1018,0.0,0.0,0.0,0.0,0.0,0.0,0.0,0.0,0.0,0.0,0.0,0.0,0.0,0.0,0.0,0.0,0.0,0.0,0.0,0.0,0.0,0.0,0.0,0.0,0.0,0.0,0.0,0.0,0.0,0.0,0.0,0.0,0.0,0.0,0.0,0.0,0.0,0.0,0.0,0.0,0.0,0.0,0.0,0.0,0.0,0.0,0.0,0.0,0.0,0.0,0.0,0.0,0.0,0.0,0.0,0.0,0.0,0.0,0.0,0.0,0.0,0.0,0.0,0.0,0.0,0.0,0.0,0.0,0.0,0.0,0.0,0.0,0.0,0.0,0.0,0.0,0.0,0.0,0.0,0.0,0.0,0.0,0.0,0.0,0.0,0.0,0.0,0.0,0.0,0.0,0.0,0.0,0.0,0.0,0.0,0.0,0.0,0.0,0.0,0.0,0.0,0.0,0.0,0.0,0.0,0.0,0.0,0.0,0.0,0.0,0.0,0.0,-1.232,-1.2175,-1.1846,0.0,0.0,0.0,0.0,0.0,0.0,0.0,0.0,0.0,0.0,0.0,0.0,0.0,0.0,0.0,0.0,0.0,0.0,0.0,0.0,0.0,0.0,0.0,0.0,0.0,0.0,0.0,0.0,0.0,0.0,0.0,0.0,0.0,0.0,0.0,0.0,0.0,0.0,0.0,0.0,0.0,0.0,0.0,0.0,0.0,0.0,0.0,0.0,0.0,0.0,0.0,0.0,0.0,0.0,0.0,0.0,0.0,0.0,0.0,0.0,0.0,0.0,0.0,0.0,0.0,0.0,0.0,0.0,0.0,0.0,0.0,0.0,0.0,0.0,0.0,0.0,0.0,0.0,0.0,0.0,0.0,0.0,0.0,0.0,0.0,0.0,0.0,0.0,0.0,0.0,0.0,0.0,0.0,0.0,0.0,0.0,0.0,0.0,0.0,0.0,0.0,0.0,0.0,0.0,0.0,0.0,0.0,0.0,0.0,0.0,-1.3098,-1.3325,-1.3347,0.0,-1.3302,0.0,0.0,0.0,0.0,0.0,0.0,0.0,0.0,0.0,0.0,0.0,0.0,0.0,0.0,0.0,0.0,0.0,0.0,0.0,0.0,0.0,0.0,0.0,0.0,0.0,0.0,0.0,0.0,0.0,0.0,0.0,0.0,0.0,0.0,0.0,0.0,0.0,0.0,0.0,0.0,0.0,0.0,0.0,0.0,0.0,0.0,0.0,0.0,0.0,0.0,0.0,0.0,0.0,0.0,0.0,0.0,0.0,0.0,0.0,0.0,0.0,0.0,0.0,0.0,0.0,0.0,0.0,0.0,0.0,0.0,0.0,0.0,0.0,0.0,0.0,0.0,0.0,0.0,0.0,0.0,0.0,0.0,0.0,0.0,0.0,0.0,0.0,0.0,0.0,0.0,0.0,0.0,0.0,0.0,0.0,0.0,0.0,0.0,0.0,0.0,0.0,0.0,0.0,0.0,0.0,0.0,0.0,0.0,0.0,0.0,-1.3412,-1.4074,-1.4101,-1.415,0.0,0.0,0.0,0.0,0.0,0.0,0.0,0.0,0.0,0.0,0.0,0.0,0.0,0.0,0.0,0.0,0.0,0.0,0.0,0.0,0.0,0.0,0.0,0.0,0.0,0.0,0.0,0.0,0.0,0.0,0.0,0.0,0.0,0.0,0.0,0.0,0.0,0.0,0.0,0.0,0.0,0.0,0.0,0.0,0.0,0.0,0.0,0.0,0.0,0.0,0.0,0.0,0.0,0.0,0.0,0.0,0.0,0.0,0.0,0.0,0.0,0.0,0.0,0.0,0.0,0.0,0.0,0.0,0.0,0.0,0.0,0.0,0.0,0.0,0.0,0.0,0.0,0.0,0.0,0.0,0.0,0.0,0.0,0.0,0.0,0.0,0.0,0.0,0.0,0.0,0.0,0.0,0.0,0.0,0.0,0.0,0.0,0.0,0.0,0.0,0.0,0.0,0.0,0.0,0.0,0.0,0.0,0.0,0.0,0.0,-1.394,-1.4131,-1.4941,-1.4852,-1.4836,-1.5043,0.0,0.0,0.0,0.0,0.0,0.0,0.0,0.0,0.0,0.0,0.0,0.0,0.0,0.0,0.0,0.0,0.0,0.0,0.0,0.0,0.0,0.0,0.0,0.0,0.0,0.0,0.0,0.0,0.0,0.0,0.0,0.0,0.0,0.0,0.0,0.0,0.0,0.0,0.0,0.0,0.0,0.0,0.0,0.0,0.0,0.0,0.0,0.0,0.0,0.0,0.0,0.0,0.0,0.0,0.0,0.0,0.0,0.0,0.0,0.0,0.0,0.0,0.0,0.0,0.0,0.0,0.0,0.0,0.0,0.0,0.0,0.0,0.0,0.0,0.0,0.0,0.0,0.0,0.0,0.0,0.0,0.0,0.0,0.0,0.0,0.0,0.0,0.0,0.0,0.0,0.0,0.0,0.0,0.0,0.0,0.0,0.0,0.0,0.0,0.0,0.0,0.0,0.0,0.0,0.0,0.0,0.0,0.0,-1.4838,-1.5136,-1.5602,-1.6243,-1.5682,-1.5507,0.0,0.0,0.0,0.0,0.0,0.0,0.0,0.0,0.0,0.0,0.0,0.0,0.0,0.0,0.0,0.0,0.0,0.0,0.0,0.0,0.0,0.0,0.0,0.0,0.0,0.0,0.0,0.0,0.0,0.0,0.0,0.0,0.0,0.0,0.0,0.0,0.0,0.0,0.0,0.0,0.0,0.0,0.0,0.0,0.0,0.0,0.0,0.0,0.0,0.0,0.0,0.0,0.0,0.0,0.0,0.0,0.0,0.0,0.0,0.0,0.0,0.0,0.0,0.0,0.0,0.0,0.0,0.0,0.0,0.0,0.0,0.0,0.0,0.0,0.0,0.0,0.0,0.0,0.0,0.0,0.0,0.0,0.0,0.0,0.0,0.0,0.0,0.0,0.0,0.0,0.0,0.0,0.0,0.0,0.0,0.0,0.0,0.0,0.0,0.0,0.0,0.0,0.0,0.0,0.0,0.0,0.0,0.0,0.0,-1.467,-1.5233,-1.5618,-1.5725,-1.5618,-1.5524,0.0,0.0,0.0,0.0,0.0,0.0,0.0,0.0,0.0,0.0,0.0,0.0,0.0,0.0,0.0,0.0,0.0,0.0,0.0,0.0,0.0,0.0,0.0,0.0,0.0,0.0,0.0,0.0,0.0,0.0,0.0,0.0,0.0,0.0,0.0,0.0,0.0,0.0,0.0,0.0,0.0,0.0,0.0,0.0,0.0,0.0,0.0,0.0,0.0,0.0,0.0,0.0,0.0,0.0,0.0,0.0,0.0,0.0,0.0,0.0,0.0,0.0,0.0,0.0,0.0,0.0,0.0,0.0,0.0,0.0,0.0,0.0,0.0,0.0,0.0,0.0,0.0,0.0,0.0,0.0,0.0,0.0,0.0,0.0,0.0,0.0,0.0,0.0,0.0,0.0,0.0,0.0,0.0,0.0,0.0,0.0,0.0,0.0,0.0,0.0,0.0,0.0,0.0,0.0,0.0,0.0,0.0,0.0,0.0,-1.4794,0.0,-1.5482,-1.5557,-1.5482,-1.5396,0.0,0.0,0.0,0.0,0.0,0.0,0.0,0.0,0.0,0.0,0.0,0.0,0.0,0.0,0.0,0.0,0.0,0.0,0.0,0.0,0.0,0.0,0.0,0.0,0.0,0.0,0.0,0.0,0.0,0.0,0.0,0.0,0.0,0.0,0.0,0.0,0.0,0.0,0.0,0.0,0.0,0.0,0.0,0.0,0.0,0.0,0.0,0.0,0.0,0.0,0.0,0.0,0.0,0.0,0.0,0.0,0.0,0.0,0.0,0.0,0.0,0.0,0.0,0.0,0.0,0.0,0.0,0.0,0.0,0.0,0.0,0.0,0.0,0.0,0.0,0.0,0.0,0.0,0.0,0.0,0.0,0.0,0.0,0.0,0.0,0.0,0.0,0.0,0.0,0.0,0.0,0.0,0.0,0.0,0.0,0.0,0.0,0.0,0.0,0.0,0.0,0.0,0.0,0.0,0.0,0.0,0.0,0.0,-1.5053,-1.536,-1.5215,-1.5339,-1.5856,-1.5395,-1.5229,0.0,0.0,0.0,0.0,0.0,0.0,0.0,0.0,0.0,0.0,0.0,0.0,0.0,0.0,0.0,0.0,0.0,0.0,0.0,0.0,0.0,0.0,0.0,0.0,0.0,0.0,0.0,0.0,0.0,0.0,0.0,0.0,0.0,0.0,0.0,0.0,0.0,0.0,0.0,0.0,0.0,0.0,0.0,0.0,0.0,0.0,0.0,0.0,0.0,0.0,0.0,0.0,0.0,0.0,0.0,0.0,0.0,0.0,0.0,0.0,0.0,0.0,0.0,0.0,0.0,0.0,0.0,0.0,0.0,0.0,0.0,0.0,0.0,0.0,0.0,0.0,0.0,0.0,0.0,0.0,0.0,0.0,0.0,0.0,0.0,0.0,0.0,0.0,0.0,0.0,0.0,0.0,0.0,0.0,0.0,0.0,0.0,0.0,0.0,0.0,0.0,0.0,0.0,0.0,0.0,0.0,0.0,0.0,0.0,-1.5208,-1.5131,-1.539,-1.5929,-1.5411,-1.5417,0.0,0.0,0.0,0.0,0.0,0.0,0.0,0.0,0.0,0.0,0.0,0.0,0.0,0.0,0.0,0.0,0.0,0.0,0.0,0.0,0.0,0.0,0.0,0.0,0.0,0.0,0.0,0.0,0.0,0.0,0.0,0.0,0.0,0.0,0.0,0.0,0.0,0.0,0.0,0.0,0.0,0.0,0.0,0.0,0.0,0.0,0.0,0.0,0.0,0.0,0.0,0.0,0.0,0.0,0.0,0.0,0.0,0.0,0.0,0.0,0.0,0.0,0.0,0.0,0.0,0.0,0.0,0.0,0.0,0.0,0.0,0.0,0.0,0.0,0.0,0.0,0.0,0.0,0.0,0.0,0.0,0.0,0.0,0.0,0.0,0.0,0.0,0.0,0.0,0.0,0.0,0.0,0.0,0.0,0.0,0.0,0.0,0.0,0.0,0.0,0.0,0.0,0.0,0.0,0.0,0.0,0.0,0.0,0.0,-1.5612,-1.5412,-1.5533,-1.5976,-1.5511,-1.5505,-1.6001,0.0,0.0,0.0,0.0,0.0,0.0,0.0,0.0,0.0,0.0,0.0,0.0,0.0,0.0,0.0,0.0,0.0,0.0,0.0,0.0,0.0,0.0,0.0,0.0,0.0,0.0,0.0,0.0,0.0,0.0,0.0,0.0,0.0,0.0,0.0,0.0,0.0,0.0,0.0,0.0,0.0,0.0,0.0,0.0,0.0,0.0,0.0,0.0,0.0,0.0,0.0,0.0,0.0,0.0,0.0,0.0,0.0,0.0,0.0,0.0,0.0,0.0,0.0,0.0,0.0,0.0,0.0,0.0,0.0,0.0,0.0,0.0,0.0,0.0,0.0,0.0,0.0,0.0,0.0,0.0,0.0,0.0,0.0,0.0,0.0,0.0,0.0,0.0,0.0,0.0,0.0,0.0,0.0,0.0,0.0,0.0,0.0,0.0,0.0,0.0,0.0,0.0,0.0,0.0,0.0,0.0,0.0,0.0,-1.6557,-1.6028,-1.5894,-1.6076,-1.584,-1.5617,0.0,0.0,0.0,0.0,0.0,0.0,0.0,0.0,0.0,0.0,0.0,0.0,0.0,0.0,0.0,0.0,0.0,0.0,0.0,0.0,0.0,0.0,0.0,0.0,0.0,0.0,0.0,0.0,0.0,0.0,0.0,0.0,0.0,0.0,0.0,0.0,0.0,0.0,0.0,0.0,0.0,0.0,0.0,0.0,0.0,0.0,0.0,0.0,0.0,0.0,0.0,0.0,0.0,0.0,0.0,0.0,0.0,0.0,0.0,0.0,0.0,0.0,0.0,0.0,0.0,0.0,0.0,0.0,0.0,0.0,0.0,0.0,0.0,0.0,0.0,0.0,0.0,0.0,0.0,0.0,0.0,0.0,0.0,0.0,0.0,0.0,0.0,0.0,0.0,0.0,0.0,0.0,0.0,0.0,0.0,0.0,0.0,0.0,0.0,0.0,0.0,0.0,0.0,0.0,0.0,0.0,0.0,0.0,0.0,-1.7139,-1.7753,-1.7732,-1.7127,-1.6745,-1.6401,0.0,0.0,0.0,0.0,0.0,0.0,0.0,0.0,0.0,0.0,0.0,0.0,0.0,0.0,0.0,0.0,0.0,0.0,0.0,0.0,0.0,0.0,0.0,0.0,0.0,0.0,0.0,0.0,0.0,0.0,0.0,0.0,0.0,0.0,0.0,0.0,0.0,0.0,0.0,0.0,0.0,0.0,0.0,0.0,0.0,0.0,0.0,0.0,0.0,0.0,0.0,0.0,0.0,0.0,0.0,0.0,0.0,0.0,0.0,0.0,0.0,0.0,0.0,0.0,0.0,0.0,0.0,0.0,0.0,0.0,0.0,0.0,0.0,0.0,0.0,0.0,0.0,0.0,0.0,0.0,0.0,0.0,0.0,0.0,0.0,0.0,0.0,0.0,0.0,0.0,0.0,0.0,0.0,0.0,0.0,0.0,0.0,0.0,0.0,0.0,0.0,0.0,0.0,0.0,0.0,0.0,0.0,0.0,-1.7225,-1.7784,-1.899,-1.9215,-1.8253,-1.7925,-1.7305,0.0,0.0,0.0,0.0,0.0,0.0,0.0,0.0,0.0,0.0,0.0,0.0,0.0,0.0,0.0,0.0,0.0,0.0,0.0,0.0,0.0,0.0,0.0,0.0,0.0,0.0,0.0,0.0,0.0,0.0,0.0,0.0,0.0,0.0,0.0,0.0,0.0,0.0,0.0,0.0,0.0,0.0,0.0,0.0,0.0,0.0,0.0,0.0,0.0,0.0,0.0,0.0,0.0,0.0,0.0,0.0,0.0,0.0,0.0,0.0,0.0,0.0,0.0,0.0,0.0,0.0,0.0,0.0,0.0,0.0,0.0,0.0,0.0,0.0,0.0,0.0,0.0,0.0,0.0,0.0,0.0,0.0,0.0,0.0,0.0,0.0,0.0,0.0,0.0,0.0,0.0,0.0,0.0,0.0,0.0,0.0,0.0,0.0,0.0,0.0,0.0,0.0,0.0,0.0,0.0,0.0,0.0,0.0,-1.7991,-1.8364,-1.9938,-2.0325,-1.9425,-1.9049,-1.8059,0.0,0.0,0.0,0.0,0.0,0.0,0.0,0.0,0.0,0.0,0.0,0.0,0.0,0.0,0.0,0.0,0.0,0.0,0.0,0.0,0.0,0.0,0.0,0.0,0.0,0.0,0.0,0.0,0.0,0.0,0.0,0.0,0.0,0.0,0.0,0.0,0.0,0.0,0.0,0.0,0.0,0.0,0.0,0.0,0.0,0.0,0.0,0.0,0.0,0.0,0.0,0.0,0.0,0.0,0.0,0.0,0.0,0.0,0.0,0.0,0.0,0.0,0.0,0.0,0.0,0.0,0.0,0.0,0.0,0.0,0.0,0.0,0.0,0.0,0.0,0.0,0.0,0.0,0.0,0.0,0.0,0.0,0.0,0.0,0.0,0.0,0.0,0.0,0.0,0.0,0.0,0.0,0.0,0.0,0.0,0.0,0.0,0.0,0.0,0.0,0.0,0.0,0.0,0.0,0.0,0.0,0.0,0.0,-1.8101,-1.8694,-2.0274,-2.0764,-1.9993,-1.8993,-1.779,0.0,0.0,0.0,0.0,0.0,0.0,0.0,0.0,0.0,0.0,0.0,0.0,0.0,0.0,0.0,0.0,0.0,0.0,0.0,0.0,0.0,0.0,0.0,0.0,0.0,0.0,0.0,0.0,0.0,0.0,0.0,0.0,0.0,0.0,0.0,0.0,0.0,0.0,0.0,0.0,0.0,0.0,0.0,0.0,0.0,0.0,0.0,0.0,-2.2304,0.0,0.0,0.0,0.0,0.0,0.0,0.0,0.0,0.0,0.0,0.0,0.0,0.0,0.0,0.0,0.0,0.0,0.0,0.0,0.0,0.0,0.0,0.0,0.0,0.0,0.0,0.0,0.0,0.0,0.0,0.0,0.0,0.0,0.0,0.0,0.0,0.0,0.0,0.0,0.0,0.0,0.0,0.0,0.0,0.0,0.0,0.0,0.0,0.0,0.0,0.0,0.0,0.0,0.0,0.0,0.0,0.0,0.0,0.0,-1.805,-1.9008,-2.0157,-2.0589,-2.0146,-1.8782,-1.7684,0.0,0.0,0.0,0.0,0.0,0.0,0.0,0.0,0.0,0.0,0.0,0.0,0.0,0.0,0.0,0.0,0.0,0.0,0.0,0.0,0.0,0.0,0.0,0.0,0.0,0.0,0.0,0.0,0.0,0.0,0.0,0.0,0.0,0.0,0.0,0.0,0.0,0.0,0.0,0.0,0.0,0.0,0.0,0.0,0.0,0.0,0.0,0.0,0.0,0.0,0.0,0.0,0.0,0.0,0.0,0.0,0.0,0.0,0.0,0.0,0.0,0.0,0.0,0.0,0.0,0.0,0.0,0.0,0.0,0.0,0.0,0.0,0.0,0.0,0.0,0.0,0.0,0.0,0.0,0.0,0.0,0.0,0.0,0.0,0.0,0.0,0.0,0.0,0.0,0.0,0.0,0.0,0.0,0.0,0.0,0.0,0.0,0.0,0.0,0.0,0.0,0.0,0.0,0.0,0.0,0.0,0.0,-1.6777,-1.8013,-1.9235,-1.9901,-2.0139,-2.0015,-1.8556,-1.764,-1.7267,0.0,0.0,0.0,0.0,0.0,0.0,0.0,0.0,0.0,0.0,0.0,0.0,0.0,0.0,0.0,0.0,0.0,0.0,0.0,0.0,0.0,0.0,0.0,0.0,0.0,0.0,0.0,0.0,0.0,0.0,0.0,0.0,0.0,0.0,0.0,0.0,0.0,0.0,-2.2356,-2.2577,0.0,0.0,0.0,0.0,0.0,0.0,0.0,0.0,-2.2542,0.0,0.0,0.0,0.0,0.0,0.0,0.0,0.0,0.0,0.0,0.0,0.0,0.0,0.0,0.0,0.0,0.0,0.0,0.0,0.0,0.0,0.0,0.0,0.0,0.0,0.0,0.0,0.0,0.0,0.0,0.0,0.0,0.0,0.0,0.0,0.0,0.0,0.0,0.0,0.0,0.0,0.0,0.0,0.0,0.0,0.0,0.0,0.0,0.0,0.0,0.0,0.0,0.0,0.0,0.0,0.0,-1.6257,-1.7223,-1.824,-1.9257,-1.9901,-1.9974,-1.944,-1.8386,-1.7538,-1.6938,0.0,0.0,0.0,0.0,0.0,0.0,0.0,0.0,0.0,0.0,0.0,0.0,0.0,0.0,0.0,0.0,0.0,0.0,0.0,0.0,0.0,0.0,0.0,0.0,0.0,0.0,0.0,0.0,0.0,0.0,0.0,0.0,0.0,0.0,0.0,0.0,0.0,0.0,0.0,-2.3639,-2.3722,0.0,0.0,0.0,0.0,0.0,0.0,0.0,0.0,-2.2656,0.0,0.0,0.0,0.0,0.0,0.0,0.0,0.0,0.0,0.0,0.0,0.0,0.0,0.0,0.0,0.0,0.0,0.0,0.0,0.0,0.0,0.0,0.0,0.0,0.0,0.0,0.0,0.0,0.0,0.0,0.0,0.0,0.0,0.0,0.0,0.0,0.0,0.0,0.0,0.0,0.0,0.0,0.0,0.0,0.0,0.0,0.0,0.0,0.0,0.0,0.0,0.0,0.0,0.0,0.0,-1.6133,-1.7069,-1.8116,-1.928,-1.9411,-1.9418,-1.9257,-1.8006,-1.7165,0.0,0.0,0.0,0.0,0.0,0.0,0.0,0.0,0.0,0.0,0.0,0.0,0.0,0.0,0.0,0.0,0.0,0.0,0.0,0.0,0.0,0.0,0.0,0.0,0.0,0.0,0.0,0.0,0.0,0.0,0.0,0.0,0.0,0.0,0.0,0.0,0.0,0.0,0.0,0.0,-2.4033,-2.4178,-2.4819,0.0,0.0,0.0,0.0,0.0,0.0,-2.2842,-2.2853,0.0,0.0,0.0,0.0,0.0,0.0,0.0,0.0,0.0,0.0,0.0,0.0,0.0,0.0,0.0,0.0,0.0,0.0,0.0,0.0,0.0,0.0,0.0,0.0,0.0,0.0,0.0,0.0,0.0,0.0,0.0,0.0,0.0,0.0,0.0,0.0,0.0,0.0,0.0,0.0,0.0,0.0,0.0,0.0,0.0,0.0,0.0,0.0,0.0,0.0,0.0,0.0,0.0,0.0,0.0,-1.5891,-1.6777,-1.7801,-1.8913,-1.8723,-1.8686,-1.8855,-1.7541,-1.6771,0.0,0.0,0.0,0.0,0.0,0.0,0.0,0.0,0.0,0.0,0.0,0.0,0.0,0.0,0.0,0.0,0.0,0.0,0.0,0.0,0.0,0.0,0.0,0.0,0.0,0.0,0.0,0.0,0.0,0.0,0.0,0.0,0.0,0.0,0.0,0.0,0.0,0.0,0.0,0.0,0.0,-2.4509,-2.5461,-2.4695,0.0,0.0,0.0,0.0,-2.2832,-2.3236,0.0,0.0,0.0,0.0,0.0,0.0,0.0,0.0,0.0,0.0,0.0,0.0,0.0,0.0,0.0,0.0,0.0,0.0,0.0,0.0,0.0,0.0,0.0,0.0,0.0,0.0,0.0,0.0,0.0,0.0,0.0,0.0,0.0,0.0,0.0,0.0,0.0,0.0,0.0,0.0,0.0,0.0,0.0,0.0,0.0,0.0,0.0,0.0,0.0,0.0,0.0,0.0,0.0,0.0,0.0,0.0,-1.5921,-1.6572,-1.7306,-1.794,-1.7947,-1.7808,-1.756,-1.6821,-1.6338,0.0,0.0,0.0,0.0,0.0,0.0,0.0,0.0,0.0,0.0,0.0,0.0,0.0,0.0,0.0,0.0,0.0,0.0,0.0,0.0,0.0,0.0,0.0,0.0,0.0,0.0,0.0,0.0,0.0,0.0,0.0,0.0,0.0,0.0,0.0,0.0,0.0,0.0,0.0,0.0,0.0,-2.4941,-2.4693,-2.4518,-2.4312,0.0,0.0,-2.3826,-2.3722,-2.4426,0.0,0.0,0.0,0.0,0.0,0.0,0.0,0.0,0.0,0.0,0.0,0.0,0.0,0.0,0.0,0.0,0.0,0.0,0.0,0.0,0.0,0.0,0.0,0.0,0.0,0.0,0.0,0.0,0.0,0.0,0.0,0.0,0.0,0.0,0.0,0.0,0.0,0.0,0.0,0.0,0.0,0.0,0.0,0.0,0.0,0.0,0.0,0.0,0.0,0.0,0.0,0.0,0.0,0.0,0.0,-1.5131,-1.5643,-1.6265,-1.6806,-1.7245,-1.7267,-1.7201,-1.7062,-1.6265,-1.5774,0.0,0.0,0.0,0.0,0.0,0.0,0.0,0.0,0.0,0.0,0.0,0.0,0.0,0.0,0.0,0.0,0.0,0.0,0.0,0.0,0.0,0.0,0.0,0.0,0.0,0.0,0.0,0.0,0.0,0.0,0.0,0.0,0.0,0.0,0.0,0.0,0.0,0.0,0.0,0.0,0.0,0.0,-2.5264,-2.5044,0.0,0.0,0.0,-2.5529,-2.4397,0.0,0.0,0.0,0.0,0.0,0.0,0.0,0.0,0.0,0.0,0.0,0.0,0.0,0.0,0.0,0.0,0.0,0.0,0.0,0.0,0.0,0.0,0.0,0.0,0.0,0.0,0.0,0.0,0.0,0.0,0.0,0.0,0.0,0.0,0.0,0.0,0.0,0.0,0.0,0.0,0.0,0.0,0.0,0.0,0.0,0.0,0.0,0.0,0.0,0.0,0.0,0.0,0.0,0.0,0.0,0.0,0.0,-1.5258,-1.5935,-1.6374,-1.6653,-1.6668,-1.6661,-1.6646,-1.576,0.0,0.0,0.0,0.0,0.0,0.0,0.0,0.0,0.0,0.0,0.0,0.0,0.0,0.0,0.0,0.0,0.0,0.0,0.0,0.0,0.0,0.0,0.0,0.0,0.0,0.0,0.0,-2.1351,0.0,0.0,0.0,0.0,0.0,0.0,0.0,0.0,0.0,0.0,0.0,0.0,0.0,0.0,-2.4863,-2.5952,-2.5774,-2.5693,0.0,0.0,-2.6803,-2.5092,-2.6997,-2.7798,0.0,0.0,0.0,0.0,0.0,0.0,0.0,0.0,0.0,0.0,0.0,0.0,0.0,0.0,0.0,0.0,0.0,0.0,0.0,0.0,0.0,0.0,0.0,0.0,0.0,0.0,0.0,0.0,0.0,0.0,0.0,0.0,0.0,0.0,0.0,0.0,0.0,0.0,0.0,0.0,0.0,0.0,0.0,0.0,0.0,0.0,0.0,0.0,0.0,0.0,0.0,0.0,0.0,0.0,-1.4885,-1.4958,-1.5571,-1.595,-1.5979,-1.5979,-1.5979,-1.5965,-1.5328,-1.4936,0.0,0.0,0.0,0.0,0.0,0.0,0.0,0.0,0.0,0.0,0.0,0.0,0.0,0.0,0.0,0.0,0.0,0.0,0.0,0.0,0.0,0.0,0.0,0.0,0.0,0.0,0.0,0.0,0.0,0.0,0.0,0.0,0.0,0.0,0.0,0.0,0.0,0.0,0.0,0.0,0.0,-2.5049,-2.6476,-2.6497,-2.6628,0.0,-2.722,-2.6787,-2.5878,-2.7298,-2.7859,-2.5833,0.0,0.0,0.0,0.0,0.0,0.0,0.0,0.0,0.0,0.0,0.0,0.0,0.0,0.0,0.0,0.0,0.0,0.0,0.0,0.0,0.0,0.0,0.0,0.0,0.0,0.0,0.0,0.0,0.0,0.0,0.0,0.0,0.0,0.0,0.0,0.0,0.0,0.0,0.0,0.0,0.0,0.0,0.0,0.0,0.0,0.0,0.0,0.0,0.0,0.0,0.0,0.0,0.0,-1.4545,-1.49,-1.5148,-1.5374,-1.5606,-1.5613,-1.5579,-1.5571,-1.53,-1.5145,0.0,0.0,0.0,0.0,0.0,0.0,0.0,0.0,0.0,0.0,0.0,0.0,0.0,0.0,0.0,0.0,0.0,0.0,0.0,0.0,0.0,0.0,0.0,0.0,0.0,0.0,0.0,0.0,-2.1149,-2.1095,-2.1125,0.0,0.0,0.0,0.0,0.0,0.0,0.0,0.0,0.0,0.0,-2.5413,-2.6749,-2.7169,0.0,0.0,-2.8559,-2.861,-2.7632,-2.879,-2.9117,-2.71,-2.7126,0.0,0.0,0.0,0.0,0.0,0.0,0.0,0.0,0.0,0.0,0.0,0.0,0.0,0.0,0.0,0.0,0.0,0.0,0.0,0.0,0.0,0.0,0.0,0.0,0.0,0.0,0.0,0.0,0.0,0.0,0.0,0.0,0.0,0.0,0.0,0.0,0.0,0.0,0.0,0.0,0.0,0.0,0.0,0.0,0.0,0.0,0.0,0.0,0.0,0.0,0.0,0.0,-1.4253,-1.4754,-1.4849,-1.5061,-1.5374,-1.5389,-1.5472,-1.5575,-1.5351,-1.5296,0.0,0.0,0.0,0.0,0.0,0.0,0.0,0.0,0.0,0.0,0.0,0.0,0.0,0.0,0.0,0.0,0.0,0.0,0.0,0.0,0.0,0.0,0.0,0.0,0.0,0.0,0.0,0.0,-2.124,-2.1207,-2.1115,0.0,0.0,0.0,0.0,0.0,0.0,0.0,0.0,0.0,0.0,-2.6082,-2.7522,-2.7882,-2.8051,-2.8445,-2.9051,-2.9128,-2.8165,-2.9184,-2.9538,-2.7953,0.0,0.0,0.0,0.0,0.0,0.0,0.0,0.0,0.0,0.0,0.0,0.0,0.0,0.0,0.0,0.0,0.0,0.0,0.0,0.0,0.0,0.0,0.0,0.0,0.0,0.0,0.0,-1.3003,0.0,0.0,-1.5048,0.0,0.0,0.0,0.0,0.0,0.0,0.0,0.0,0.0,0.0,0.0,0.0,0.0,0.0,0.0,0.0,0.0,0.0,0.0,0.0,0.0,0.0,-1.4181,-1.4526,-1.4779,-1.5053,-1.5416,-1.5431,-1.5639,-1.6072,-1.5416,-1.5327,-1.598,0.0,0.0,0.0,0.0,0.0,0.0,0.0,0.0,0.0,0.0,0.0,0.0,0.0,0.0,0.0,0.0,0.0,0.0,0.0,0.0,0.0,0.0,0.0,0.0,0.0,0.0,-2.1201,-2.1698,-2.215,0.0,0.0,0.0,0.0,0.0,0.0,0.0,0.0,0.0,-2.4677,-2.5634,-2.6989,-2.8906,-2.8682,-2.8319,-2.8474,-2.8296,-2.7878,-2.706,-2.8025,-2.8725,0.0,0.0,0.0,0.0,0.0,0.0,0.0,0.0,0.0,0.0,0.0,0.0,0.0,0.0,0.0,0.0,0.0,0.0,0.0,0.0,0.0,0.0,0.0,0.0,0.0,0.0,0.0,-1.2753,-1.3349,0.0,0.0,0.0,0.0,0.0,0.0,0.0,0.0,0.0,0.0,0.0,-1.5389,-1.5389,0.0,0.0,0.0,0.0,0.0,0.0,0.0,0.0,0.0,0.0,0.0,0.0,-1.3931,-1.4443,-1.4575,-1.505,-1.5824,-1.5989,-1.627,-1.6673,-1.64,-1.6288,-1.6373,0.0,0.0,0.0,0.0,0.0,0.0,0.0,0.0,0.0,0.0,0.0,0.0,0.0,0.0,0.0,0.0,0.0,0.0,0.0,0.0,0.0,0.0,0.0,0.0,0.0,-2.1106,0.0,0.0,0.0,0.0,0.0,0.0,0.0,0.0,0.0,0.0,-2.311,-2.3793,-2.5453,-2.5938,-2.6725,-2.8285,-2.8299,-2.8311,0.0,0.0,0.0,0.0,0.0,0.0,0.0,0.0,0.0,0.0,0.0,0.0,0.0,0.0,-2.8988,-2.8247,-2.7946,-2.7857,-2.8024,0.0,0.0,0.0,0.0,0.0,0.0,0.0,0.0,0.0,0.0,0.0,0.0,0.0,0.0,-1.2619,-1.3003,-1.4026,0.0,0.0,0.0,0.0,0.0,0.0,0.0,0.0,-1.5389,-1.5389,-1.5389,-1.5389,-1.5389,0.0,-1.5389,-1.5214,0.0,0.0,0.0,0.0,0.0,0.0,0.0,0.0,-1.4111,-1.4793,-1.492,-1.5403,-1.6255,-1.6484,-1.6796,-1.7229,-1.7218,-1.71,-1.6802,-1.7467,-1.7769,0.0,0.0,0.0,0.0,0.0,0.0,0.0,0.0,0.0,0.0,0.0,0.0,0.0,0.0,0.0,0.0,0.0,0.0,0.0,0.0,0.0,0.0,0.0,-2.1259,0.0,0.0,0.0,0.0,0.0,0.0,0.0,0.0,0.0,-2.3544,-2.3654,-2.4415,-2.6249,-2.6541,-2.6955,-2.8211,0.0,0.0,0.0,0.0,0.0,0.0,0.0,-2.7971,-2.8335,-2.826,-2.8273,-2.8637,-2.9063,-2.9303,-2.9341,0.0,0.0,-2.8862,-2.8561,-2.8533,-2.8667,-2.8753,-2.8789,-2.8777,-2.8942,-2.9082,0.0,0.0,0.0,0.0,-1.0641,0.0,0.0,0.0,-1.1348,-1.1639,0.0,-1.3088,0.0,0.0,0.0,0.0,-1.5389,-1.5389,0.0,0.0,-1.5389,-1.5389,-1.5389,-1.5389,-1.5389,-1.5389,-1.5431,-1.5228,-1.4929,-1.4907,0.0,0.0,0.0,0.0,0.0,0.0,-1.4691,-1.5389,-1.5701,-1.6164,-1.6714,-1.6919,-1.7229,-1.7664,-1.7761,-1.7586,-1.7207,-1.7425,-1.7676,-1.7998,-1.7992,0.0,0.0,0.0,0.0,0.0,0.0,0.0,0.0,0.0,0.0,0.0,0.0,0.0,0.0,0.0,0.0,0.0,0.0,0.0,0.0,-2.1316,0.0,0.0,0.0,0.0,0.0,0.0,0.0,0.0,0.0,-2.3193,-2.3904,-2.4449,-2.5423,-2.703,0.0,0.0,0.0,0.0,-2.7457,-2.8009,-2.762,-2.7457,-2.8034,-2.8487,-2.8825,-2.8875,0.0,0.0,-2.9805,-2.9972,-3.0088,-3.0113,-3.0254,-3.0267,-2.9882,-2.9479,-2.9238,-2.9262,-2.9437,-2.9524,-2.955,-2.992,-3.0317,-0.9156,0.0,0.0,0.0,0.0,-1.1041,-1.1219,-1.1348,-1.1854,-1.224,-1.2571,-1.3633,0.0,0.0,0.0,0.0,0.0,0.0,-1.5389,-1.5389,-1.5389,-1.5389,-1.5389,-1.5389,-1.5389,-1.5431,-1.5533,-1.5496,-1.5284,-1.5342,-1.4978,-1.4166,0.0,0.0,0.0,0.0,-1.5174,-1.5605,-1.5945,-1.6533,-1.7408,-1.7619,-1.7726,-1.7764,-1.7944,-1.7772,-1.7223,-1.7861,-1.8245,-1.8347,-1.8619,0.0,0.0,0.0,0.0,0.0,0.0,0.0,0.0,0.0,0.0,0.0,0.0,0.0,0.0,0.0,0.0,0.0,0.0,0.0,-2.1155,-2.1652,-2.1897,0.0,0.0,0.0,0.0,0.0,0.0,0.0,0.0,0.0,-2.4226,-2.4596,-2.5285,0.0,0.0,-2.6839,-2.7153,-2.6927,-2.6927,-2.7444,-2.709,0.0,-2.7959,-2.7908,-2.8021,-2.8762,-2.9517,-3.0011,-2.9998,-3.019,-3.033,-3.033,-3.0368,-3.0368,-3.0254,-3.0139,-3.0087,-3.0238,-3.0339,-3.0377,-3.039,-3.0519,-3.0571,-0.9283,-0.9261,-0.9713,-1.0066,-1.0429,-1.0954,-1.1219,-1.1348,-1.186,-1.2283,-1.2662,-1.3682,-1.4272,-1.4608,-1.5173,0.0,0.0,0.0,-1.5389,-1.5389,-1.5389,-1.5389,-1.5389,-1.5389,-1.5514,-1.568,-1.5699,-1.5741,-1.5782,-1.5663,-1.5298,-1.4765,0.0,-1.4483,-1.4673,-1.5226,-1.5767,-1.6276,-1.6714,-1.7281,-1.7974,-1.8094,-1.8222,-1.8385,-1.8207,-1.7988,-1.7767,-1.8232,-1.8435,-1.8275,-1.8598,-1.8382,0.0,0.0,0.0,0.0,0.0,0.0,0.0,0.0,0.0,0.0,0.0,-2.0052,-2.0004,0.0,0.0,0.0,-2.0564,-2.0856,-2.125,-2.1829,0.0,0.0,0.0,0.0,0.0,0.0,0.0,-2.3539,-2.3641,-2.3906,-2.4428,-2.4594,-2.5133,-2.6413,-2.6636,-2.6759,-2.6905,0.0,-2.6873,-2.7359,-2.7145,-2.7246,-2.808,-2.7954,-2.799,-2.8671,-2.9365,-2.9846,-2.9859,-3.0215,-3.052,-3.0508,-3.0378,-3.0274,-3.0261,-3.0261,-3.0364,-3.0659,-3.0773,-3.0746,-3.0525,-3.0474,-3.0371,-0.9425,-0.9198,-0.972,-1.0023,-1.009,-1.0794,-1.1185,-1.1337,-1.1597,-1.1969,-1.2491,-1.3307,-1.3984,-1.4524,-1.5131,0.0,-1.5389,-1.5389,-1.5389,-1.5389,-1.5431,-1.5431,-1.5423,-1.5472,-1.5673,-1.6121,-1.5865,-1.5982,-1.6378,-1.5969,-1.5799,-1.5984,-1.5379,-1.5237,-1.5593,-1.5902,-1.6437,-1.7159,-1.7655,-1.8026,-1.8306,-1.8378,-1.8623,-1.9175,-1.8489,-1.8219,-1.8525,-1.8466,-1.8291,-1.7908,-1.818,-1.7936,-1.7049,0.0,0.0,0.0,0.0,0.0,0.0,0.0,0.0,0.0,0.0,0.0,0.0,0.0,0.0,0.0,-2.0828,0.0,-2.1451,-2.1925,0.0,0.0,0.0,-2.345,-2.306,-2.3628,-2.3936,-2.348,0.0,0.0,-2.4585,-2.454,-2.4943,-2.6341,-2.671,-2.702,-2.7345,-2.7114,-2.7058,-2.7268,-2.7399,-2.764,-2.8071,-2.8223,-2.8297,-2.8492,-2.8961,-2.9266,-2.9356,-2.9836,-3.0361,-3.0271,-3.0121,-2.9852,-2.9879,-2.9764,-3.0012,-3.0256,-3.073,-3.0817,-3.0283,-3.0103,-2.9996,-0.9494,-0.9386,-1.0245,-1.0529,-1.0519,-1.1474,-1.1734,-1.1623,-1.1662,-1.2034,-1.2662,-1.3222,-1.411,-1.5173,-1.534,-1.5389,-1.5389,-1.5389,-1.5389,-1.5431,-1.5541,-1.5616,-1.5616,-1.5839,-1.6087,-1.6319,-1.6402,-1.6525,-1.6648,-1.6863,-1.6838,-1.6594,-1.6635,-1.6451,-1.6132,-1.6489,-1.6771,-1.6979,-1.7103,-1.7337,-1.7702,-1.8009,-1.8234,-1.837,-1.8091,-1.7975,-1.8065,-1.7946,-1.7851,-1.7739,-1.7833,-1.7595,-1.7048,-1.6987,0.0,0.0,0.0,0.0,0.0,0.0,0.0,0.0,0.0,-1.9644,-1.941,0.0,-2.0239,0.0,-2.0985,-2.1526,-2.1956,-2.2204,0.0,0.0,-2.342,-2.3671,-2.3806,-2.3966,-2.4054,-2.3936,-2.3995,-2.4106,-2.422,-2.461,-2.4922,-2.5176,-2.5493,-2.5768,-2.5831,-2.6158,-2.6197,-2.5972,-2.622,-2.6654,-2.7216,-2.7675,-2.7931,-2.7979,-2.7862,-2.7889,-2.8341,-2.8321,-2.8243,-2.8243,-2.8186,-2.8116,-2.8142,-2.8116,-2.8169,-2.8382,-2.9709,-3.0817,-3.0218,-3.0074,-2.9918,-0.964,-0.9571,-1.0589,-1.0957,-1.092,-1.1609,-1.1822,-1.1693,-1.1811,-1.2157,-1.2747,-1.3597,-1.4489,-1.5389,-1.5389,-1.5389,-1.5389,-1.5389,-1.5389,-1.5431,-1.5616,-1.5782,-1.5914,-1.6121,-1.6443,-1.6853,-1.6853,-1.6976,-1.7131,-1.731,-1.7325,-1.7189,-1.7366,-1.7296,-1.7086,-1.7128,-1.7244,-1.7367,-1.7406,-1.7667,-1.8163,-1.8118,-1.8354,-1.887,-1.8255,-1.8061,-1.8397,-1.7955,-1.7709,-1.7709,-1.7709,-1.7482,-1.7007,-1.6987,-1.682,0.0,0.0,0.0,0.0,0.0,0.0,0.0,0.0,0.0,0.0,0.0,-2.0694,-2.0838,-2.1393,-2.1894,-2.2235,-2.2604,-2.303,-2.345,-2.3688,-2.3894,-2.4083,-2.4125,-2.4125,-2.4125,-2.4125,-2.4125,-2.4096,-2.4387,-2.4566,-2.4446,-2.4615,-2.4929,-2.5344,-2.5736,-2.5845,-2.5466,-2.5646,-2.591,-2.6315,-2.6644,-2.6897,-2.6917,-2.6952,-2.7083,-2.7408,-2.7488,-2.7503,-2.749,-2.7294,-2.7157,-2.7144,-2.7157,-2.7144,-2.734,-2.836,-2.9209,-2.9004,-2.8952,-2.8821,-0.9766,-0.9673,-1.0757,-1.1243,-1.1297,-1.166,-1.1786,-1.1815,-1.193,-1.2318,-1.2918,-1.423,-1.4999,-1.5389,-1.5389,-1.5389,-1.5389,-1.5389,-1.5389,-1.5431,-1.5624,-1.5873,-1.6087,-1.636,-1.6804,-1.7392,-1.7261,-1.7375,-1.7732,-1.7546,-1.7546,-1.774,-1.7732,-1.7821,-1.7983,-1.7706,-1.7655,-1.7886,-1.7991,-1.8303,-1.8822,-1.8406,-1.867,-1.9602,-1.853,-1.8192,-1.8858,-1.803,-1.7533,-1.7523,-1.7523,-1.7347,-1.6955,-1.6934,-1.6779,0.0,-1.6618,0.0,0.0,0.0,0.0,0.0,0.0,0.0,0.0,-2.0902,-2.1273,-2.1431,-2.1894,-2.2247,-2.2482,-2.3,-2.3463,-2.3658,-2.3936,-2.4125,-2.4125,-2.4125,-2.4125,-2.4125,-2.4125,-2.4125,-2.4125,-2.4125,-2.4125,-2.4122,-2.4161,-2.4411,-2.5112,-2.5504,-2.5587,-2.5366,-2.5392,-2.5431,-2.5366,-2.5556,-2.5754,-2.5767,-2.5976,-2.6392,-2.6425,-2.6752,-2.6994,-2.6955,-2.6556,-2.634,-2.6379,-2.634,-2.6353,-2.6269,-2.6726,-2.7137,-2.7445,-2.749,-2.7359,-0.9661,-0.9673,-1.0757,-1.134,-1.1546,-1.2054,-1.2257,-1.2235,-1.2087,-1.2563,-1.3568,-1.4748,-1.5305,-1.5389,-1.5389,-1.5389,-1.5389,-1.5389,-1.5389,-1.5423,-1.5839,-1.6046,-1.6128,-1.6689,-1.7139,-1.7392,-1.7538,-1.77,-1.7959,-1.791,-1.791,-1.7951,-1.7951,-1.7959,-1.7991,0.0,0.0,0.0,-1.7549,-1.773,-1.8048,-1.837,-1.8605,-1.8802,-1.8119,0.0,-1.7915,-1.7119,-1.6643,-1.6661,-1.6632,0.0,0.0,0.0,0.0,0.0,0.0,0.0,0.0,0.0,0.0,0.0,-2.0403,-2.0585,-2.0304,-2.0942,-2.1443,-2.1624,-2.1843,-2.2235,-2.2896,-2.3078,-2.3378,-2.3936,-2.4054,-2.4125,-2.4125,-2.4125,-2.4125,-2.4125,-2.4125,-2.4125,-2.4125,-2.4125,-2.4125,-2.4125,-2.4125,-2.4161,-2.4354,-2.4827,-2.4949,-2.451,-2.4797,-2.4875,-2.4445,-2.4844,-2.5162,-2.5136,-2.4766,-2.4831,-2.5254,-2.5001,-2.4788,-2.4827,-2.4674,-2.4648,-2.4648,-2.4609,-2.4713,-2.4622,-2.4726,-2.5153,-2.6562,-2.6831,-2.67,-0.9575,-0.9591,-1.0559,-1.1091,0.0,-1.2368,-1.2768,-1.2706,-1.2551,-1.3133,-1.4237,-1.479,-1.5173,-1.5389,-1.5389,-1.5389,-1.5389,-1.5389,-1.5389,-1.5431,-1.5888,-1.6211,-1.6409,-1.6976,-1.7424,-1.7676,-1.7789,-1.791,-1.7991,-1.7991,-1.7991,-1.7991,-1.7991,-1.7991,-1.7991,-1.8112,-1.8042,-1.7778,-1.7911,-1.8161,-1.8641,-1.8638,-1.8919,-1.9499,-1.8558,0.0,0.0,0.0,0.0,0.0,0.0,0.0,0.0,-1.7354,0.0,-1.7509,-1.774,-1.8153,-1.8757,-1.9257,-1.98,-2.0392,-2.083,-2.096,-2.0728,-2.1209,-2.1643,-2.1894,-2.2254,-2.2714,-2.3288,-2.3467,-2.3717,-2.4054,-2.4125,-2.4125,-2.4125,-2.4125,-2.4125,-2.4125,-2.4125,-2.4125,-2.4125,-2.4125,-2.4125,-2.4125,-2.4125,-2.4125,-2.4138,-2.436,-2.4413,-2.4135,-2.4334,-2.4452,-2.4204,-2.4321,-2.4543,-2.4504,-2.4308,-2.4256,-2.4504,-2.4321,-2.4125,-2.4125,-2.4125,-2.4125,-2.4125,-2.4125,-2.4125,-2.4125,-2.4125,-2.4334,-2.5275,-2.5659,-2.5882,-0.9779,-0.9883,-1.0752,-1.122,-1.1524,-1.2749,-1.3286,-1.336,-1.3262,0.0,0.0,-1.4817,-1.5033,-1.5389,-1.5389,-1.5389,-1.5389,-1.5389,-1.5423,-1.5465,-1.5922,-1.6327,-1.673,-1.7229,-1.7635,-1.7959,-1.7991,-1.7991,-1.7991,-1.7931,-1.7971,-1.7983,-1.7871,-1.7877,-1.7977,-1.8287,-1.8482,-1.8616,-1.8599,-1.8942,-1.9601,-1.9109,-1.9308,-2.0373,-1.91,-1.859,-1.8942,-1.7802,-1.7306,-1.7678,-1.7709,-1.7709,-1.7719,-1.8218,-1.8417,-1.8154,-1.8411,-1.8873,-1.9549,-1.9771,-2.0189,-2.0912,-2.1094,-2.1221,-2.1221,-2.1529,-2.1812,-2.2037,-2.2653,-2.3138,-2.3497,-2.3806,-2.4037,-2.4096,-2.4125,-2.4125,-2.4125,-2.4125,-2.4125,-2.4125,-2.4125,-2.4125,-2.4125,-2.4125,-2.4125,-2.4125,-2.4125,-2.4125,-2.4125,-2.4138,-2.4164,-2.4138,-2.4178,-2.4138,-2.4125,-2.4138,-2.4125,-2.4164,-2.4138,-2.4125,-2.4125,-2.4125,-2.4125,-2.4125,-2.4125,-2.4125,-2.4125,-2.4125,-2.4125,-2.4125,-2.4125,-2.4125,-2.4164,-2.4491,-2.4962,-1.0685,-1.1351,-1.1935,-1.27,-1.349,-1.3485,-1.3808,-1.43,-1.4251,-1.4391,-1.4734,-1.5124,-1.5347,-1.5389,-1.5389,-1.5389,-1.5389,-1.5389,-1.5499,-1.5658,-1.6147,-1.6484,-1.673,-1.7375,-1.77,-1.774,-1.791,-1.7991,-1.7957,-1.7715,-1.7706,-1.788,-1.7359,-1.7329,-1.7835,-1.8364,-1.8922,-1.9402,-1.9434,-1.9552,-1.9844,-1.9695,-1.9719,-1.9815,-1.8936,-1.8402,-1.8497,-1.7936,-1.7637,-1.7699,-1.7709,-1.7709,-1.7709,-1.7823,-1.8072,-1.8575,-1.8744,-1.9275,-2.0202,-2.044,-2.0719,-2.1126,-2.1201,-2.1253,-2.1356,-2.1549,-2.1792,-2.1925,-2.2463,-2.2848,-2.3138,-2.3509,-2.3806,-2.4067,-2.4125,-2.4125,-2.4125,-2.4125,-2.4125,-2.4125,-2.4125,-2.4125,-2.4125,-2.4125,-2.4125,-2.4125,-2.4125,-2.4125,-2.4125,-2.4125,-2.4125,-2.4125,-2.4125,-2.4125,-2.4125,-2.4125,-2.4125,-2.4125,-2.4125,-2.4125,-2.4125,-2.4125,-2.4125,-2.4125,-2.4125,-2.4125,-2.4125,-2.4125,-2.4125,-2.4125,-2.4125,-2.4125,-2.4125,-2.423,-2.4308,-1.1647,-1.231,-1.2782,-1.3231,-1.3688,-1.3899,-1.4491,-1.5196,-1.4923,-1.4866,-1.5082,-1.5298,-1.5389,-1.5389,-1.5389,-1.5389,-1.5389,-1.5389,-1.5423,-1.5582,-1.5989,-1.6402,-1.6738,-1.7261,-1.7668,-1.7853,-1.7777,-1.7732,-1.7697,-1.7346,-1.7261,-1.7376,-1.7278,-1.7523,-1.8131,-1.8523,-1.9002,-1.9559,-1.9687,-2.0059,-2.0557,-2.0061,-1.9893,-2.0099,-1.9266,-1.8787,-1.8776,-1.833,-1.8081,-1.8081,-1.8081,-1.8081,-1.8092,-1.8479,-1.8848,-1.9145,-1.9426,-1.9835,-2.0529,-2.083,-2.1042,-2.119,-2.1273,-2.138,-2.1549,-2.1655,-2.1792,-2.2061,-2.2574,-2.3047,-2.3348,-2.3658,-2.3936,-2.4083,-2.4125,-2.4125,-2.4125,-2.4125,-2.4125,-2.4125,-2.4125,-2.4125,-2.4125,-2.4125,-2.4125,-2.4125,-2.4125,-2.4125,-2.4125,-2.4125,-2.4125,-2.4125,-2.4125,-2.4125,-2.4125,-2.4125,-2.4125,-2.4125,-2.4125,-2.4125,-2.4125,-2.4125,-2.4125,-2.4125,-2.4125,-2.4125,-2.4125,-2.4125,-2.4125,-2.4125,-2.4125,-2.4125,-2.4125,-2.4125,-2.4125,-1.251,-1.313,-1.3501,-1.3716,-1.3871,-1.4454,-1.5123,-1.5662,-1.531,-1.5257,-1.5389,-1.5389,-1.5389,-1.5389,-1.5389,-1.5389,-1.5389,-1.5389,-1.5431,-1.5506,-1.5922,-1.6376,-1.6779,-1.7229,-1.7553,-1.7846,-1.7643,-1.7462,-1.7351,-1.697,-1.6739,-1.673,-1.7154,-1.7653,-1.8079,-1.8439,-1.8994,-1.9673,-1.9924,-2.0411,-2.1146,-2.0457,-2.0185,-2.0308,-1.9655,-1.9202,-1.9088,-1.8756,-1.8569,-1.8537,-1.8569,-1.8569,-1.8579,-1.9141,-1.9506,-1.9615,-1.9878,-2.027,-2.0701,-2.101,-2.1201,-2.1201,-2.1336,-2.1494,-2.1706,-2.1812,-2.1968,-2.2309,-2.2775,-2.3215,-2.3569,-2.3878,-2.4125,-2.4125,-2.4125,-2.4125,-2.4125,-2.4125,-2.4125,-2.4125,-2.4125,-2.4125,-2.4125,-2.4125,-2.4125,-2.4125,-2.4125,-2.4125,-2.4125,-2.4125,-2.4125,-2.4125,-2.4125,-2.4125,-2.4125,-2.4125,-2.4125,-2.4125,-2.4125,-2.4125,-2.4125,-2.4125,-2.4125,-2.4125,-2.4125,-2.4125,-2.4125,-2.4125,-2.4125,-2.4125,-2.4125,-2.4125,-2.4125,-2.4125,-2.4204,-1.314,-1.3927,-1.403,-1.4334,-1.4814,-1.5423,-1.554,-1.5233,-1.5303,-1.5389,-1.5389,-1.5389,-1.5389,-1.5389,-1.5389,-1.5389,-1.5389,-1.5389,-1.5499,-1.5658,-1.5955,-1.6451,-1.7017,-1.7302,-1.7451,-1.7569,-1.7514,-1.7269,-1.6953,-1.6539,-1.6189,-1.6064,-1.6787,-1.7208,-1.7246,-1.8031,-1.8933,-1.9962,-2.0333,-2.077,-2.1136,-2.106,-2.0772,-2.0385,-1.9979,-1.9533,-1.9129,-1.9067,-1.9036,-1.9046,-1.9025,-1.9036,-1.9036,-1.911,-1.9274,-1.9572,-1.9802,-2.0194,-2.0807,-2.1094,-2.1201,-2.1201,-2.1336,-2.1545,-2.1827,-2.213,-2.2432,-2.2672,-2.2951,-2.3271,-2.3569,-2.3907,-2.4096,-2.4125,-2.4125,-2.4125,-2.4125,-2.4125,-2.4125,-2.4125,-2.4125,-2.4125,-2.4125,-2.4122,-2.4164,-2.4204,-2.4308,-2.4243,-2.4125,-2.4191,-2.4151,-2.4138,-2.4125,-2.4125,-2.4125,-2.4125,-2.4125,-2.4125,-2.4125,-2.4125,-2.4125,-2.4125,-2.4125,-2.4125,-2.4125,-2.4125,-2.4125,-2.4125,-2.4125,-2.4125,-2.4125,-2.4125,-2.4125,-2.4125,-2.4269,-1.4032,-1.4802,-1.4981,-1.5198,-1.5502,-1.5589,-1.5494,-1.5304,-1.5356,-1.5389,-1.5389,-1.5389,-1.5389,-1.5389,-1.5389,-1.5389,-1.5389,-1.5389,-1.5431,-1.5548,-1.5741,-1.6245,-1.6812,-1.7098,-1.7314,-1.7466,-1.7291,-1.6944,-1.6576,-1.6199,-1.6129,-1.6456,-1.6951,-1.7342,-1.7674,-1.8139,-1.8795,-1.9533,-1.9754,-2.0103,-2.0639,-2.0705,-2.0483,-2.0038,-1.9616,-1.9305,-1.9129,-1.9098,-1.9098,-1.9098,-1.9098,-1.9098,-1.9098,-1.9407,-1.9638,-1.9813,-2.0215,-2.0614,-2.0903,-2.1106,-2.1201,-2.1201,-2.1423,-2.1643,-2.1769,-2.2092,-2.2492,-2.3015,-2.3278,-2.3467,-2.3641,-2.3907,-2.4125,-2.4125,-2.4125,-2.4125,-2.4125,-2.4125,-2.4125,-2.4125,-2.4125,-2.4125,-2.4178,-2.4413,-2.4626,-2.4674,-2.487,-2.4853,-2.4279,-2.4387,-2.4452,-2.4204,-2.4125,-2.4125,-2.4125,-2.4125,-2.4125,-2.4125,-2.4125,-2.4125,-2.4125,-2.4125,-2.4125,-2.4125,-2.4125,-2.4125,-2.4125,-2.4125,-2.4125,-2.4125,-2.4125,-2.4125,-2.4125,-2.4125,-2.4256,-1.4526,-1.5048,-1.5413,-1.5547,-1.56,-1.5455,-1.5338,-1.5272,-1.5345,-1.5389,-1.5382,-1.5301,-1.5309,-1.5382,-1.5389,-1.5345,-1.5272,-1.5345,-1.5389,-1.5431,-1.5541,-1.5989,-1.6599,-1.6741,-1.7005,-1.7157,-1.6935,-1.6567,-1.6244,-1.5978,-1.6131,-1.6699,-1.6867,-1.723,-1.7763,-1.8006,-1.8462,-1.9097,-1.9219,-1.9591,-2.0169,-2.0245,-2.0079,-1.9793,-1.9471,-1.9243,-1.9108,-1.9098,-1.9098,-1.9098,-1.9098,-1.9098,-1.9175,-1.9572,-1.99,-2.0129,-2.0582,-2.0935,-2.0967,-2.1264,-2.1339,-2.1256,-2.1571,-2.1878,-2.2005,-2.2277,-2.2819,-2.3575,-2.3908,-2.4047,-2.3859,-2.3985,-2.4096,-2.4125,-2.4125,-2.4125,-2.4125,-2.4125,-2.4125,-2.4125,-2.4282,-2.4426,-2.4596,-2.4949,-2.5227,-2.5249,-2.5524,-2.5584,-2.4805,-2.4818,-2.4822,-2.4413,-2.4243,-2.4125,-2.4125,-2.4125,-2.4125,-2.4125,-2.4125,-2.4125,-2.4125,-2.4125,-2.4125,-2.4125,-2.4125,-2.4125,-2.4125,-2.4125,-2.4125,-2.4125,-2.4125,-2.4125,-2.4125,-2.4125,-2.4204,-1.4242,-1.4495,-1.4923,-1.5079,-1.498,-1.5258,-1.5214,-1.5002,-1.5243,-1.5382,-1.5345,-1.509,-1.5104,-1.5367,-1.5382,-1.5221,-1.5009,-1.5258,-1.5389,-1.5389,-1.5431,-1.579,-1.637,-1.6308,-1.6408,-1.6704,-1.6578,-1.6251,-1.5874,-1.5822,-1.5958,-1.6336,-1.6411,-1.6599,-1.7008,-1.7424,-1.7964,-1.866,-1.9023,-1.9457,-1.9772,-1.9824,-1.9813,-1.9751,-1.9761,-1.9513,-1.9181,-1.9108,-1.9119,-1.9119,-1.9139,-1.9196,-1.9295,-1.9517,-1.9933,-2.0506,-2.0775,-2.101,-2.1218,-2.1594,-2.1697,-2.1429,-2.1902,-2.2318,-2.2577,-2.2931,-2.3449,-2.425,-2.4728,-2.4847,-2.4464,-2.4279,-2.4148,-2.4125,-2.4125,-2.4125,-2.4125,-2.4125,-2.4125,-2.423,-2.4622,-2.5105,-2.5628,-2.5741,-2.5785,-2.5767,-2.5806,-2.5754,-2.5597,-2.5275,-2.511,-2.4913,-2.4557,-2.4151,-2.4138,-2.4125,-2.4125,-2.4125,-2.4125,-2.4125,-2.4125,-2.4125,-2.4125,-2.4125,-2.4125,-2.4125,-2.4125,-2.4125,-2.4125,-2.4125,-2.4125,-2.4125,-2.4308,-2.4148,-2.4318,-1.4201,-1.444,-1.4741,-1.4928,-1.5042,-1.5085,-1.5126,-1.5199,-1.5104,-1.5199,-1.5345,-1.5258,-1.5163,-1.509,-1.5294,-1.5323,-1.5228,-1.5338,-1.5389,-1.5389,-1.5389,-1.5756,-1.6337,-1.6335,-1.642,-1.6572,-1.653,-1.6277,-1.5857,-1.5805,-1.5985,-1.6304,-1.656,-1.6785,-1.6964,-1.7279,-1.7776,-1.8212,-1.8408,-1.876,-1.9331,-1.9347,-1.9357,-1.9357,-1.9357,-1.9419,-1.9544,-1.9544,-1.9668,-1.9924,-1.9778,-1.9701,-1.976,-1.9974,-2.0356,-2.0903,-2.1063,-2.1264,-2.1617,-2.1791,-2.2007,-2.219,-2.255,-2.2866,-2.3077,-2.3398,-2.3866,-2.4384,-2.4751,-2.4956,-2.5115,-2.4885,-2.4517,-2.4191,-2.4125,-2.4164,-2.4125,-2.4125,-2.4213,-2.4648,-2.5171,-2.5733,-2.6203,-2.6373,-2.636,-2.6412,-2.6674,-2.6511,-2.6015,-2.5903,-2.5934,-2.5589,-2.5341,-2.5079,-2.4704,-2.4308,-2.4125,-2.4125,-2.4125,-2.4138,-2.4138,-2.4125,-2.4125,-2.4204,-2.4191,-2.4125,-2.4125,-2.4125,-2.4125,-2.4191,-2.4191,-2.4282,-2.4626,-2.4452,-2.4792,-1.4201,-1.444,-1.4615,-1.4803,-1.4911,-1.4914,-1.4966,-1.5116,-1.4951,-1.5024,-1.5192,-1.5126,-1.5053,-1.5046,-1.5116,-1.5255,-1.5374,-1.5389,-1.5389,-1.5389,-1.5389,-1.5665,-1.6116,-1.6095,-1.619,-1.634,-1.6346,-1.6173,-1.5966,-1.5848,-1.6062,-1.6499,-1.6629,-1.6731,-1.6946,-1.7224,-1.7602,-1.791,-1.811,-1.8472,-1.9031,-1.9098,-1.9191,-1.9305,-1.9326,-1.9471,-1.9793,-1.9927,-2.0135,-2.0409,-2.0317,-2.0333,-2.0623,-2.0818,-2.1161,-2.1619,-2.1696,-2.1822,-2.2122,-2.2317,-2.2467,-2.2696,-2.3096,-2.3382,-2.3382,-2.3744,-2.4164,-2.4576,-2.497,-2.5274,-2.5311,-2.5268,-2.5042,-2.4702,-2.4631,-2.4661,-2.4674,-2.4657,-2.4962,-2.5471,-2.5863,-2.6347,-2.6817,-2.6935,-2.6948,-2.6961,-2.7314,-2.7098,-2.6602,-2.6478,-2.6614,-2.6164,-2.589,-2.5602,-2.5328,-2.5027,-2.4396,-2.4292,-2.4282,-2.4243,-2.4269,-2.423,-2.4191,-2.4282,-2.4256,-2.4164,-2.4125,-2.4125,-2.4217,-2.4321,-2.4256,-2.4269,-2.4517,-2.473,-2.5053,-1.4195,-1.4371,-1.4601,-1.462,-1.4584,-1.4743,-1.471,-1.464,-1.4798,-1.4944,-1.4995,-1.4706,-1.4948,-1.5163,-1.4904,-1.4889,-1.5316,-1.5389,-1.5389,-1.5389,-1.5389,-1.5506,-1.5737,-1.5539,-1.5654,-1.5994,-1.5881,-1.6035,-1.6283,-1.6045,-1.6199,-1.6664,-1.6355,-1.6457,-1.6892,-1.7119,-1.748,-1.7974,-1.8323,-1.8674,-1.9042,-1.9098,-1.9305,-1.9699,-1.9772,-1.9844,-1.9876,-2.0224,-2.0533,-2.0753,-2.0747,-2.1104,-2.1666,-2.191,-2.2241,-2.2513,-2.265,-2.2684,-2.2719,-2.3052,-2.3052,-2.3029,-2.3387,-2.3735,-2.3805,-2.4071,-2.4504,-2.4932,-2.5414,-2.563,-2.5256,-2.5398,-2.5592,-2.5701,-2.5522,-2.5509,-2.5649,-2.5767,-2.602,-2.647,-2.6654,-2.6909,-2.7307,-2.7398,-2.7372,-2.7398,-2.7451,-2.7464,-2.7242,-2.7,-2.6752,-2.6608,-2.6425,-2.6164,-2.5936,-2.5715,-2.5062,-2.454,-2.4488,-2.4478,-2.4583,-2.4599,-2.4413,-2.4426,-2.4213,-2.4122,-2.4387,-2.4426,-2.4635,-2.47,-2.4504,-2.4596,-2.5044,-2.5358,-2.5227,-1.401,-1.3864,-1.4097,-1.4163,-1.4097,-1.4295,-1.4536,-1.4754,-1.4863,-1.5024,-1.5185,-1.5174,-1.5214,-1.5316,-1.5211,-1.5192,-1.5382,-1.5389,-1.5389,-1.5389,-1.5389,-1.5499,-1.561,-1.5581,-1.5725,-1.6119,-1.6313,-1.6461,-1.6607,-1.6362,-1.6364,-1.6379,-1.6251,-1.6378,-1.6881,-1.7128,-1.7545,-1.8279,-1.8448,-1.8707,-1.9065,-1.9098,-1.9336,-1.9772,-2.0048,-2.0358,-2.0679,-2.0834,-2.1115,-2.1618,-2.1465,-2.1578,-2.1996,-2.2194,-2.2434,-2.2673,-2.2707,-2.2857,-2.3144,-2.3316,-2.3522,-2.3719,-2.4046,-2.4223,-2.4282,-2.4484,-2.4696,-2.4909,-2.5253,-2.5426,-2.5503,-2.5778,-2.582,-2.5518,-2.5452,-2.5625,-2.5905,-2.6203,-2.6465,-2.6706,-2.7013,-2.7294,-2.7438,-2.7503,-2.7503,-2.7503,-2.7503,-2.7503,-2.7464,-2.7333,-2.7275,-2.7223,-2.6955,-2.6694,-2.653,-2.6373,-2.5963,-2.5401,-2.5153,-2.5027,-2.5066,-2.4979,-2.4766,-2.4609,-2.437,-2.437,-2.4609,-2.4792,-2.5014,-2.5275,-2.5315,-2.5589,-2.6026,-2.5986,-2.5707,-1.3981,-1.3814,-1.4042,-1.4069,-1.4038,-1.4237,-1.4479,-1.4747,-1.4856,-1.5024,-1.5177,-1.5199,-1.5279,-1.5345,-1.5265,-1.5279,-1.5382,-1.5389,-1.5389,-1.5389,-1.5389,-1.5465,-1.5613,-1.5655,-1.5874,-1.6253,-1.6484,-1.6797,-1.7098,-1.6793,-1.6559,-1.6527,-1.6498,-1.6625,-1.6961,-1.7382,-1.7954,-1.8448,-1.864,-1.8841,-1.9042,-1.9098,-1.9326,-1.9782,-2.0193,-2.0612,-2.1083,-2.1269,-2.1609,-2.2119,-2.2253,-2.2426,-2.2732,-2.2897,-2.305,-2.3201,-2.327,-2.3408,-2.3648,-2.3705,-2.3833,-2.4168,-2.4381,-2.4502,-2.4538,-2.4682,-2.4801,-2.4861,-2.4981,-2.5159,-2.5324,-2.5571,-2.5679,-2.5676,-2.5863,-2.6052,-2.642,-2.6765,-2.6974,-2.7092,-2.7314,-2.7464,-2.7503,-2.7503,-2.7503,-2.7503,-2.7503,-2.7503,-2.7503,-2.749,-2.749,-2.749,-2.7359,-2.715,-2.704,-2.6922,-2.6844,-2.6412,-2.5976,-2.5837,-2.5759,-2.5497,-2.5275,-2.521,-2.501,-2.5062,-2.5275,-2.5288,-2.5432,-2.5733,-2.6059,-2.6073,-2.6177,-2.6138,-2.5981,-1.4075,-1.4104,-1.4287,-1.4283,-1.423,-1.4446,-1.4572,-1.4604,-1.482,-1.498,-1.4988,-1.5024,-1.5133,-1.5279,-1.5148,-1.517,-1.5345,-1.5389,-1.5389,-1.5389,-1.5389,-1.5409,-1.5423,-1.5678,-1.6008,-1.6327,-1.6571,-1.697,-1.7466,-1.7132,-1.6953,-1.7052,-1.7158,-1.7224,-1.7418,-1.7983,-1.8393,-1.8718,-1.8949,-1.9065,-1.9098,-1.9098,-1.9326,-1.9782,-2.0131,-2.0576,-2.112,-2.1647,-2.2059,-2.244,-2.292,-2.3382,-2.3779,-2.3886,-2.3904,-2.4051,-2.4154,-2.4108,-2.4166,-2.4108,-2.4143,-2.4213,-2.4345,-2.4502,-2.4502,-2.4574,-2.4693,-2.4718,-2.4754,-2.4778,-2.4849,-2.5028,-2.5417,-2.6139,-2.6566,-2.6994,-2.7384,-2.7425,-2.7385,-2.7425,-2.749,-2.7503,-2.7503,-2.7503,-2.7503,-2.7503,-2.7503,-2.7503,-2.7503,-2.7503,-2.7503,-2.7503,-2.7503,-2.7438,-2.7262,-2.7216,-2.7137,-2.6981,-2.6615,-2.6478,-2.6242,-2.5929,-2.5667,-2.5584,-2.5649,-2.5741,-2.5819,-2.5863,-2.6086,-2.6504,-2.6556,-2.636,-2.636,-2.6465,-2.6491,-1.3961,-1.3768,-1.3802,-1.3865,-1.3959,-1.4261,-1.4534,-1.482,-1.5112,-1.5236,-1.525,-1.5258,-1.5294,-1.5367,-1.5301,-1.5316,-1.5374,-1.5389,-1.5389,-1.5389,-1.5389,-1.5352,-1.5398,-1.5799,-1.6171,-1.6506,-1.6929,-1.7433,-1.7812,-1.7501,-1.7553,-1.7988,-1.781,-1.8118,-1.8783,-1.8779,-1.8998,-1.9349,-1.9186,-1.9108,-1.9098,-1.9098,-1.9326,-1.9751,-1.9927,-2.0465,-2.1308,-2.2222,-2.2617,-2.2665,-2.3335,-2.3776,-2.3886,-2.4043,-2.4116,-2.4189,-2.4189,-2.4189,-2.4189,-2.4189,-2.4189,-2.4189,-2.4273,-2.4309,-2.4273,-2.4309,-2.4345,-2.4345,-2.4345,-2.4502,-2.4718,-2.4861,-2.5336,-2.622,-2.6905,-2.7343,-2.7456,-2.7503,-2.7503,-2.7503,-2.7503,-2.7503,-2.7503,-2.7503,-2.7503,-2.7503,-2.7503,-2.7503,-2.7503,-2.7503,-2.7503,-2.7503,-2.7503,-2.7503,-2.7477,-2.7477,-2.7451,-2.7398,-2.7177,-2.6968,-2.6648,-2.6203,-2.5942,-2.5728,-2.5989,-2.6119,-2.6347,-2.6484,-2.6857,-2.7131,-2.7131,-2.6955,-2.7072,-2.7177,-2.7124,-1.4023,-1.3945,-1.3939,-1.4008,-1.4189,-1.4512,-1.4732,-1.494,-1.5236,-1.5389,-1.5389,-1.5389,-1.5389,-1.5389,-1.5389,-1.5389,-1.5389,-1.5389,-1.5389,-1.5389,-1.5389,-1.5403,-1.5546,-1.5928,-1.6341,-1.6758,-1.7171,-1.761,-1.7925,-1.7888,-1.7992,-1.8148,-1.8476,-1.8872,-1.9219,-1.9554,-1.9575,-1.9713,-1.9502,-1.9316,-1.9119,-1.9098,-1.9212,-1.9564,-1.9834,-2.0569,-2.1613,-2.2405,-2.2809,-2.301,-2.353,-2.3934,-2.4007,-2.4116,-2.4189,-2.4189,-2.4189,-2.4189,-2.4189,-2.4189,-2.4189,-2.4189,-2.4189,-2.4189,-2.42,-2.4189,-2.4189,-2.42,-2.4189,-2.4309,-2.4526,-2.4802,-2.5394,-2.6186,-2.6905,-2.7356,-2.7469,-2.7503,-2.7503,-2.7503,-2.7503,-2.7503,-2.7503,-2.7503,-2.7503,-2.7503,-2.7503,-2.7503,-2.7503,-2.7503,-2.7503,-2.7503,-2.7503,-2.7503,-2.7503,-2.7503,-2.7503,-2.749,-2.7451,-2.7294,-2.7046,-2.6621,-2.6563,-2.6459,-2.6485,-2.655,-2.6791,-2.6974,-2.7157,-2.7346,-2.7477,-2.7503,-2.7503,-2.7503,-2.7503,-1.4208,-1.4356,-1.4398,-1.4497,-1.4643,-1.4954,-1.5007,-1.5053,-1.5265,-1.5389,-1.5389,-1.5389,-1.5389,-1.5389,-1.5389,-1.5389,-1.5396,-1.5504,-1.5469,-1.5462,-1.5474,-1.5499,-1.5725,-1.5955,-1.6394,-1.6927,-1.7261,-1.7676,-1.8023,-1.8296,-1.8338,-1.8509,-1.9249,-1.9533,-1.9765,-2.0159,-2.024,-2.0058,-1.9927,-1.9675,-1.9406,-1.9326,-1.9305,-1.943,-2.0101,-2.0828,-2.1718,-2.2429,-2.2863,-2.3287,-2.3658,-2.3927,-2.4107,-2.42,-2.4189,-2.4189,-2.4189,-2.4189,-2.4189,-2.4189,-2.4189,-2.4189,-2.4189,-2.4189,-2.4189,-2.4189,-2.4189,-2.4189,-2.4189,-2.4225,-2.4381,-2.4862,-2.5418,-2.6047,-2.6598,-2.7074,-2.7356,-2.7469,-2.7503,-2.7503,-2.7503,-2.7503,-2.7503,-2.7503,-2.7503,-2.7503,-2.7503,-2.7503,-2.7503,-2.7503,-2.7503,-2.7503,-2.7503,-2.7503,-2.7503,-2.7503,-2.7503,-2.749,-2.749,-2.7425,-2.7425,-2.7216,-2.7346,-2.7333,-2.7059,-2.7046,-2.7242,-2.7398,-2.7451,-2.7451,-2.749,-2.7503,-2.7503,-2.7503,-2.7503,-1.4124,-1.4166,-1.4363,-1.4531,-1.4698,-1.497,-1.5179,-1.5287,-1.5352,-1.5389,-1.5389,-1.5389,-1.5389,-1.5389,-1.5389,-1.5389,-1.5425,-1.5643,-1.5811,-1.5774,-1.5484,-1.5606,-1.5863,-1.6095,-1.6399,-1.6844,-1.7196,-1.7725,-1.821,-1.8518,-1.8877,-1.9672,-1.9869,-2.0448,-2.1032,-2.0862,-2.0938,-2.0772,-2.0472,-2.0224,-2.0027,-1.9748,-1.9637,-1.9734,-2.0422,-2.0924,-2.1442,-2.2608,-2.3396,-2.3529,-2.3544,-2.3738,-2.4108,-2.4189,-2.4189,-2.4189,-2.4189,-2.4189,-2.4189,-2.4189,-2.4189,-2.4189,-2.4189,-2.4189,-2.4189,-2.4189,-2.4189,-2.4189,-2.42,-2.4236,-2.4418,-2.4838,-2.5288,-2.5734,-2.622,-2.6701,-2.704,-2.7356,-2.7469,-2.7503,-2.7503,-2.7503,-2.7503,-2.7503,-2.7503,-2.7503,-2.7503,-2.7503,-2.7503,-2.7503,-2.7503,-2.7503,-2.7503,-2.7503,-2.7503,-2.7503,-2.7503,-2.7503,-2.7503,-2.7503,-2.7503,-2.7503,-2.7503,-2.7503,-2.7451,-2.7503,-2.7503,-2.7503,-2.7477,-2.749,-2.7503,-2.7503,-2.7503,-2.7503,-2.7503,-1.4166,-1.4243,-1.4482,-1.465,-1.4908,-1.5138,-1.5298,-1.5389,-1.5389,-1.5389,-1.5389,-1.5389,-1.5389,-1.5389,-1.5389,-1.5389,-1.5418,-1.5599,-1.5855,-1.5972,-1.5826,-1.584,-1.6233,-1.6594,-1.6949,-1.7058,-1.7441,-1.8133,-1.8795,-1.916,-1.9613,-2.0465,-2.0605,-2.0885,-2.1464,-2.1436,-2.1321,-2.1083,-2.0886,-2.0633,-2.0364,-2.0213,-2.0079,-2.0159,-2.0681,-2.1083,-2.1464,-2.2237,-2.3061,-2.343,-2.3491,-2.3637,-2.4085,-2.4189,-2.4189,-2.4189,-2.4189,-2.4189,-2.4189,-2.4189,-2.4189,-2.4189,-2.4189,-2.4189,-2.4189,-2.4189,-2.4189,-2.4189,-2.42,-2.4273,-2.4381,-2.4634,-2.4981,-2.5418,-2.5804,-2.6289,-2.6871,-2.7289,-2.7503,-2.7503,-2.7503,-2.7503,-2.7503,-2.7503,-2.7503,-2.7503,-2.7503,-2.7503,-2.7503,-2.7503,-2.7503,-2.7503,-2.7503,-2.7503,-2.7503,-2.7503,-2.7503,-2.7503,-2.7503,-2.7503,-2.7503,-2.7503,-2.7503,-2.7503,-2.7503,-2.7503,-2.7503,-2.7503,-2.7503,-2.7503,-2.7503,-2.7503,-2.7503,-2.7503,-2.7503,-1.4208,-1.4356,-1.4608,-1.4846,-1.5147,-1.5327,-1.5425,-1.5511,-1.5403,-1.5389,-1.5389,-1.5389,-1.5389,-1.5389,-1.5389,-1.5418,-1.5549,-1.565,-1.5979,-1.6352,-1.6118,-1.6228,-1.6624,-1.7157,-1.7612,-1.7541,-1.8112,-1.8924,-1.9629,-2.0071,-2.0539,-2.111,-2.1213,-2.1435,-2.1529,-2.1578,-2.1611,-2.1311,-2.1248,-2.1093,-2.0736,-2.0617,-2.0514,-2.0425,-2.0984,-2.1389,-2.1772,-2.2328,-2.2855,-2.3588,-2.3572,-2.3761,-2.4051,-2.4189,-2.4189,-2.4189,-2.4189,-2.4189,-2.4189,-2.4189,-2.4189,-2.4189,-2.4189,-2.4189,-2.4189,-2.4189,-2.4189,-2.4189,-2.42,-2.42,-2.4236,-2.4418,-2.473,-2.5064,-2.5382,-2.5943,-2.6598,-2.7108,-2.7323,-2.7503,-2.7503,-2.7503,-2.7503,-2.7503,-2.7503,-2.7503,-2.7503,-2.7503,-2.7503,-2.7503,-2.7503,-2.7503,-2.7503,-2.7503,-2.7503,-2.7503,-2.7503,-2.7503,-2.7503,-2.7503,-2.7503,-2.7503,-2.7503,-2.7503,-2.7503,-2.7503,-2.7503,-2.7503,-2.7503,-2.7503,-2.7503,-2.7503,-2.7503,-2.7503,-2.7503,-1.413,-1.4166,-1.4531,-1.4881,-1.5191,-1.533,-1.5535,-1.5717,-1.5484,-1.5396,-1.5389,-1.5389,-1.5389,-1.5403,-1.5389,-1.5701,-1.6023,-1.6096,-1.6338,-1.6705,-1.6469,-1.6566,-1.7056,-1.7611,-1.8097,-1.8871,-1.9428,-2.0036,-2.0475,-2.0898,-2.1482,-2.2058,-2.197,-2.1966,-2.2037,-2.2007,-2.188,-2.1714,-2.1694,-2.1611,-2.1549,-2.13,-2.0907,-2.0715,-2.1352,-2.1775,-2.2132,-2.295,-2.3666,-2.3838,-2.3988,-2.4084,-2.4166,-2.4189,-2.4189,-2.4189,-2.4189,-2.4189,-2.4189,-2.4189,-2.4189,-2.4189,-2.4189,-2.4189,-2.4189,-2.4189,-2.4189,-2.4189,-2.4189,-2.4189,-2.4189,-2.4345,-2.449,-2.473,-2.504,-2.55,-2.5955,-2.6474,-2.7053,-2.7423,-2.7456,-2.7503,-2.7503,-2.7503,-2.7503,-2.7503,-2.7503,-2.7503,-2.7503,-2.7503,-2.7503,-2.7503,-2.7503,-2.7503,-2.7503,-2.7503,-2.7503,-2.7503,-2.7503,-2.7503,-2.7503,-2.7503,-2.7503,-2.7503,-2.7503,-2.7503,-2.7503,-2.7503,-2.7503,-2.7503,-2.7503,-2.7503,-2.7503,-2.7503,-2.7503,-1.4088,-1.4124,-1.4405,-1.4691,-1.4965,-1.5154,-1.5385,-1.5628,-1.5455,-1.5389,-1.5389,-1.5396,-1.5491,-1.5557,-1.544,-1.5782,-1.625,-1.6184,-1.6506,-1.6872,-1.6851,-1.6935,-1.7575,-1.8224,-1.8993,-1.9859,-2.0759,-2.1376,-2.1643,-2.1787,-2.2387,-2.2971,-2.2798,-2.259,-2.2544,-2.2553,-2.2346,-2.2242,-2.217,-2.2273,-2.247,-2.2242,-2.1838,-2.1532,-2.1834,-2.2207,-2.2226,-2.2925,-2.3625,-2.3866,-2.408,-2.4164,-2.4189,-2.4189,-2.4189,-2.4189,-2.4189,-2.4189,-2.4189,-2.4189,-2.4189,-2.4189,-2.4189,-2.4189,-2.4189,-2.4189,-2.4189,-2.4189,-2.4189,-2.4189,-2.4189,-2.4298,-2.4381,-2.4526,-2.4766,-2.5182,-2.5746,-2.6198,-2.6735,-2.7289,-2.7423,-2.7456,-2.7503,-2.7503,-2.7503,-2.7503,-2.7503,-2.7503,-2.7503,-2.7503,-2.7503,-2.7503,-2.7503,-2.7503,-2.7503,-2.7503,-2.7503,-2.7503,-2.7503,-2.7503,-2.7503,-2.7503,-2.7503,-2.7503,-2.7503,-2.7503,-2.7503,-2.7503,-2.7503,-2.7503,-2.7503,-2.7503,-2.7503,-2.7503,-2.7503,-1.4088,-1.413,-1.4363,-1.4601,-1.4818,-1.5062,-1.5307,-1.5469,-1.5418,-1.5389,-1.5403,-1.5476,-1.5687,-1.5818,-1.5804,-1.5921,-1.6389,-1.6162,-1.663,-1.7106,-1.7176,-1.7344,-1.8049,-1.9047,-1.9906,-2.0501,-2.1641,-2.2713,-2.2627,-2.2686,-2.3223,-2.3585,-2.3546,-2.3174,-2.2967,-2.2863,-2.2842,-2.2739,-2.2532,-2.2729,-2.307,-2.3153,-2.2873,-2.2216,-2.2605,-2.2745,-2.2629,-2.3167,-2.3663,-2.3916,-2.4091,-2.4189,-2.4189,-2.4189,-2.4189,-2.4189,-2.4189,-2.4189,-2.4189,-2.4189,-2.4189,-2.4189,-2.4189,-2.4189,-2.4189,-2.4189,-2.4189,-2.4189,-2.4189,-2.4189,-2.4189,-2.4189,-2.4261,-2.4381,-2.449,-2.4742,-2.5394,-2.5921,-2.6302,-2.6769,-2.7188,-2.7423,-2.7469,-2.7503,-2.7503,-2.7503,-2.7503,-2.7503,-2.7503,-2.7503,-2.7503,-2.7503,-2.7503,-2.7503,-2.7503,-2.7503,-2.7503,-2.7503,-2.7503,-2.7503,-2.7503,-2.7503,-2.7503,-2.7503,-2.7503,-2.7503,-2.7503,-2.7503,-2.7503,-2.7503,-2.7503,-2.7503,-2.7503,-2.7503,-2.7503,-1.4088,-1.413,-1.4496,-1.4852,-1.5105,-1.5281,-1.5549,-1.5739,-1.5491,-1.5389,-1.5452,-1.5673,-1.5819,-1.5972,-1.6191,-1.6331,-1.6463,-1.6653,-1.6917,-1.7368,-1.7546,-1.781,-1.8218,-1.9088,-2.0367,-2.1149,-2.2101,-2.2664,-2.31,-2.345,-2.3806,-2.4185,-2.4022,-2.3774,-2.3505,-2.3194,-2.278,-2.2987,-2.2749,-2.2791,-2.3153,-2.3256,-2.3174,-2.3186,-2.3374,-2.3515,-2.3421,-2.3767,-2.4068,-2.4107,-2.4164,-2.4189,-2.4189,-2.4189,-2.4189,-2.4189,-2.4189,-2.4189,-2.4189,-2.4189,-2.4189,-2.4189,-2.4189,-2.4189,-2.4189,-2.4189,-2.4189,-2.4189,-2.4189,-2.4189,-2.4189,-2.4189,-2.4225,-2.4225,-2.4309,-2.4418,-2.4873,-2.5488,-2.5908,-2.6474,-2.6952,-2.7255,-2.7436,-2.7469,-2.7503,-2.7503,-2.7503,-2.7503,-2.7503,-2.7503,-2.7503,-2.7503,-2.7503,-2.7503,-2.7503,-2.7503,-2.7503,-2.7503,-2.7503,-2.7503,-2.7503,-2.7503,-2.7503,-2.7503,-2.7503,-2.7503,-2.7503,-2.7503,-2.7503,-2.7503,-2.7503,-2.7503,-2.7503,-2.7503,-2.7503,-1.4166,-1.4279,-1.4482,-1.4769,-1.5134,-1.5182,-1.5378,-1.5549,-1.5455,-1.5389,-1.5455,-1.5774,-1.6001,-1.6213,-1.6551,-1.6683,-1.6719,-1.6882,-1.7263,-1.7747,-1.8032,-1.8481,-1.9309,-2.0212,-2.1248,-2.1908,-2.2711,-2.3391,-2.3755,-2.3925,-2.4196,-2.4423,-2.4301,-2.4084,-2.3981,-2.3743,-2.3629,-2.3639,-2.3608,-2.3629,-2.367,-2.3795,-2.3867,-2.3793,-2.4119,-2.4111,-2.404,-2.4224,-2.4317,-2.4267,-2.4189,-2.4189,-2.4189,-2.4189,-2.4189,-2.4189,-2.4189,-2.4189,-2.4189,-2.4189,-2.4189,-2.4189,-2.4189,-2.4189,-2.4189,-2.4189,-2.4189,-2.4189,-2.4189,-2.4189,-2.4189,-2.4189,-2.4189,-2.4189,-2.4189,-2.4442,-2.4647,-2.4921,-2.5441,-2.6082,-2.6679,-2.7053,-2.7369,-2.7469,-2.7503,-2.7503,-2.7503,-2.7503,-2.7503,-2.7503,-2.7503,-2.7503,-2.7503,-2.7503,-2.7503,-2.7503,-2.7503,-2.7503,-2.7503,-2.7503,-2.7503,-2.7503,-2.7503,-2.7503,-2.7503,-2.7503,-2.7503,-2.7503,-2.7503,-2.7503,-2.7503,-2.7503,-2.7503,-2.7503,-2.7503,-1.4286,-1.4391,-1.444,-1.4699,-1.509,-1.5124,-1.5264,-1.5396,-1.5498,-1.552,-1.5622,-1.5979,-1.6301,-1.6484,-1.6763,-1.6859,-1.6888,-1.6994,-1.7468,-1.8026,-1.8673,-1.9301,-2.0068,-2.115,-2.2041,-2.2614,-2.3246,-2.3854,-2.4133,-2.4282,-2.4325,-2.4507,-2.4466,-2.4311,-2.4198,-2.4095,-2.4033,-2.3857,-2.4209,-2.425,-2.4146,-2.429,-2.444,-2.4514,-2.4643,-2.4704,-2.4554,-2.4517,-2.4534,-2.4473,-2.4246,-2.42,-2.4189,-2.4189,-2.4189,-2.4189,-2.4189,-2.4189,-2.4189,-2.4189,-2.4189,-2.4189,-2.4189,-2.4189,-2.4189,-2.4189,-2.4189,-2.4189,-2.4189,-2.4189,-2.4189,-2.4189,-2.4189,-2.4189,-2.4189,-2.4467,-2.4707,-2.485,-2.5206,-2.5896,-2.6496,-2.6918,-2.7235,-2.7436,-2.7503,-2.7503,-2.7503,-2.7503,-2.7503,-2.7503,-2.7503,-2.7503,-2.7503,-2.7503,-2.7503,-2.7503,-2.7503,-2.7503,-2.7503,-2.7503,-2.7503,-2.7503,-2.7503,-2.7503,-2.7503,-2.7503,-2.7503,-2.7503,-2.7503,-2.7503,-2.7503,-2.7503,-2.7503,-2.7503,-2.7503,-1.4398,-1.4433,-1.4608,-1.4824,-1.5131,-1.5305,-1.5389,-1.5411,-1.5688,-1.584,-1.5957,-1.6462,-1.6778,-1.6873,-1.6956,-1.7038,-1.697,-1.7357,-1.7903,-1.8586,-1.9392,-2.0121,-2.0926,-2.1774,-2.2658,-2.3105,-2.3691,-2.41,-2.4368,-2.4421,-2.4454,-2.4507,-2.4507,-2.4476,-2.4342,-2.4219,-2.4126,-2.4053,-2.4311,-2.4487,-2.4404,-2.4509,-2.4659,-2.5009,-2.5116,-2.522,-2.5574,-2.5224,-2.494,-2.484,-2.451,-2.4303,-2.4326,-2.4235,-2.4212,-2.4189,-2.4189,-2.4189,-2.4189,-2.4189,-2.4189,-2.4189,-2.4189,-2.4189,-2.4189,-2.4189,-2.4189,-2.4189,-2.4189,-2.4189,-2.4189,-2.4189,-2.4189,-2.4189,-2.4189,-2.4261,-2.4478,-2.455,-2.4969,-2.5734,-2.6289,-2.6748,-2.7188,-2.7436,-2.7503,-2.7503,-2.7503,-2.7503,-2.7503,-2.7503,-2.7503,-2.7503,-2.7503,-2.7503,-2.7503,-2.7503,-2.7503,-2.7503,-2.7503,-2.7503,-2.7503,-2.7503,-2.7503,-2.7503,-2.7503,-2.7503,-2.7503,-2.7503,-2.7503,-2.7503,-2.7503,-2.7503,-2.7503,-2.7503,-2.7503,-1.4363,-1.4566,-1.4657,-1.4866,-1.5131,-1.5305,-1.5389,-1.5411,-1.552,-1.5855,-1.6228,-1.6697,-1.7013,-1.7184,-1.752,-1.7612,-1.7712,-1.8118,-1.8716,-1.9497,-2.032,-2.1123,-2.1837,-2.2633,-2.3474,-2.3744,-2.41,-2.4282,-2.4454,-2.4549,-2.4507,-2.4507,-2.4559,-2.4497,-2.4394,-2.4311,-2.4291,-2.4302,-2.4383,-2.4497,-2.4507,-2.454,-2.47,-2.5126,-2.5346,-2.5467,-2.569,-2.5701,-2.5572,-2.531,-2.49,-2.4671,-2.451,-2.4349,-2.4212,-2.4189,-2.4189,-2.4189,-2.4189,-2.4189,-2.4189,-2.4189,-2.4189,-2.4189,-2.4189,-2.4189,-2.4189,-2.4189,-2.4189,-2.4189,-2.4189,-2.4189,-2.4189,-2.4189,-2.4189,-2.4189,-2.4273,-2.4418,-2.4897,-2.5721,-2.6186,-2.6611,-2.7053,-2.7503,-2.7503,-2.7503,-2.7503,-2.7503,-2.7503,-2.7503,-2.7503,-2.7503,-2.7503,-2.7503,-2.7503,-2.7503,-2.7503,-2.7503,-2.7503,-2.7503,-2.7503,-2.7503,-2.7503,-2.7503,-2.7503,-2.7503,-2.7503,-2.7503,-2.7503,-2.7503,-2.7503,-2.7503,-2.7503,-2.7503,-2.7503,-1.4328,-1.4531,-1.4741,-1.4957,-1.5215,-1.534,-1.5389,-1.5425,-1.5657,-1.6067,-1.666,-1.6908,-1.7198,-1.7569,-1.7839,-1.821,-1.838,-1.8842,-1.95,-2.0238,-2.0997,-2.1891,-2.2784,-2.3493,-2.397,-2.4249,-2.4389,-2.4528,-2.4755,-2.4714,-2.4848,-2.49,-2.4755,-2.4693,-2.4507,-2.4507,-2.4507,-2.4507,-2.4507,-2.4507,-2.4507,-2.454,-2.4882,-2.5295,-2.5463,-2.5856,-2.605,-2.6172,-2.6012,-2.5707,-2.5348,-2.4958,-2.474,-2.4522,-2.4246,-2.42,-2.42,-2.42,-2.42,-2.4189,-2.4189,-2.4189,-2.4189,-2.4189,-2.4189,-2.4189,-2.4189,-2.4189,-2.4189,-2.4189,-2.4189,-2.4189,-2.4189,-2.4189,-2.4189,-2.4189,-2.4261,-2.4406,-2.5064,-2.5756,-2.6117,-2.6496,-2.7053,-2.7503,-2.7503,-2.7503,-2.7503,-2.7503,-2.7503,-2.7503,-2.7503,-2.7503,-2.7503,-2.7503,-2.7503,-2.7503,-2.7503,-2.7503,-2.7503,-2.7503,-2.7503,-2.7503,-2.7503,-2.7503,-2.7503,-2.7503,-2.7503,-2.7503,-2.7503,-2.7503,-2.7503,-2.7503,-2.7503,-2.7503,-2.7503,-1.4286,-1.4215,-1.479,-1.5173,-1.534,-1.5389,-1.5396,-1.552,-1.6067,-1.6623,-1.7121,-1.7252,-1.7561,-1.7939,-1.8133,-1.8458,-1.892,-1.9371,-2.0011,-2.069,-2.1624,-2.2467,-2.3178,-2.3841,-2.4239,-2.4464,-2.4518,-2.4693,-2.5044,-2.4931,-2.5233,-2.5399,-2.515,-2.4879,-2.4538,-2.4518,-2.4518,-2.4507,-2.4507,-2.4507,-2.4507,-2.4507,-2.4967,-2.5422,-2.5549,-2.588,-2.6483,-2.6426,-2.6342,-2.6319,-2.5624,-2.5245,-2.5119,-2.4682,-2.4407,-2.4303,-2.4269,-2.4246,-2.4235,-2.4223,-2.4292,-2.4258,-2.4258,-2.4292,-2.4223,-2.4189,-2.4189,-2.4189,-2.4189,-2.4189,-2.4189,-2.4189,-2.4189,-2.4189,-2.4189,-2.4225,-2.4261,-2.4454,-2.5076,-2.5721,-2.6117,-2.6461,-2.7087,-2.7503,-2.7503,-2.7503,-2.7503,-2.7503,-2.7503,-2.7503,-2.7503,-2.7503,-2.7503,-2.7503,-2.7503,-2.7503,-2.7503,-2.7503,-2.7503,-2.7503,-2.7503,-2.7503,-2.7503,-2.7503,-2.7503,-2.7503,-2.7503,-2.7503,-2.7503,-2.7503,-2.7503,-2.7503,-2.7503,-2.7503,-2.7523,-1.4243,-1.4321,-1.4573,-1.4831,-1.5173,-1.534,-1.5548,-1.5797,-1.6396,-1.6866,-1.7026,-1.7216,-1.7613,-1.804,-1.8465,-1.8827,-1.9371,-2.0229,-2.0817,-2.1526,-2.229,-2.3135,-2.3754,-2.411,-2.4411,-2.4497,-2.4518,-2.4549,-2.4693,-2.4828,-2.4807,-2.4933,-2.5295,-2.4941,-2.4714,-2.4704,-2.4848,-2.4569,-2.4507,-2.4507,-2.4507,-2.454,-2.4786,-2.5422,-2.5496,-2.5968,-2.6809,-2.6579,-2.6707,-2.68,-2.6117,-2.5865,-2.575,-2.5383,-2.4981,-2.4774,-2.4659,-2.4671,-2.4786,-2.4877,-2.4832,-2.459,-2.4453,-2.4476,-2.4269,-2.42,-2.4189,-2.4189,-2.4189,-2.4189,-2.4189,-2.4189,-2.4189,-2.4189,-2.4189,-2.4189,-2.4273,-2.4574,-2.5028,-2.5664,-2.6139,-2.6701,-2.7255,-2.7469,-2.7503,-2.7503,-2.7503,-2.7503,-2.7503,-2.7503,-2.7503,-2.7503,-2.7503,-2.7503,-2.7503,-2.7503,-2.7503,-2.7503,-2.7503,-2.7503,-2.7503,-2.7503,-2.7503,-2.7503,-2.7503,-2.7503,-2.7503,-2.7503,-2.7503,-2.7503,-2.7523,-2.7523,-2.7536,-2.7556,-2.7556,-1.4321,-1.4524,-1.4608,-1.4895,-1.524,-1.5423,-1.5747,-1.6257,-1.6727,-1.6954,-1.7062,-1.7252,-1.7699,-1.8265,-1.8689,-1.9242,-1.9828,-2.0419,-2.1356,-2.2059,-2.2511,-2.3222,-2.3894,-2.4335,-2.4421,-2.4464,-2.4518,-2.4559,-2.4828,-2.4766,-2.4817,-2.4993,-2.5337,-2.5148,-2.4931,-2.4838,-2.4931,-2.4631,-2.4507,-2.4507,-2.4507,-2.4583,-2.4796,-2.52,-2.5538,-2.5874,-2.6509,-2.685,-2.6985,-2.7,-2.6818,-2.6536,-2.6375,-2.6003,-2.5474,-2.5096,-2.4912,-2.4992,-2.5233,-2.5658,-2.5474,-2.4946,-2.4935,-2.4659,-2.4315,-2.42,-2.4189,-2.4189,-2.4189,-2.4212,-2.4223,-2.4223,-2.4246,-2.4258,-2.4317,-2.4317,-2.4499,-2.4811,-2.5313,-2.5912,-2.6414,-2.6939,-2.7323,-2.739,-2.7503,-2.7503,-2.7503,-2.7503,-2.7503,-2.7503,-2.7503,-2.7503,-2.7503,-2.7503,-2.7503,-2.7503,-2.7503,-2.7503,-2.7503,-2.7503,-2.7503,-2.7503,-2.7503,-2.7503,-2.7503,-2.7503,-2.7503,-2.7503,-2.7503,-2.7556,-2.759,-2.759,-2.759,-2.7656,-2.7676,-1.4524,-1.4741,-1.4957,-1.5261,-1.5548,-1.5627,-1.6133,-1.6866,-1.6917,-1.7094,-1.7311,-1.7264,-1.78,-1.8643,-1.8781,-1.9333,-2.0192,-2.0419,-2.1257,-2.2015,-2.2555,-2.3309,-2.3937,-2.4292,-2.4378,-2.4464,-2.4528,-2.4652,-2.5075,-2.4931,-2.4952,-2.5337,-2.5834,-2.5554,-2.5192,-2.5044,-2.5037,-2.4662,-2.4621,-2.459,-2.4538,-2.4583,-2.4871,-2.5242,-2.5538,-2.5999,-2.655,-2.685,-2.7026,-2.7,-2.6806,-2.6611,-2.637,-2.6026,-2.552,-2.5176,-2.5084,-2.5371,-2.5716,-2.6237,-2.6152,-2.5635,-2.5302,-2.4809,-2.4441,-2.4338,-2.4315,-2.4235,-2.42,-2.4246,-2.4281,-2.4315,-2.4361,-2.4432,-2.4515,-2.4624,-2.4831,-2.5206,-2.5742,-2.6278,-2.6752,-2.7154,-2.739,-2.7503,-2.7555,-2.7503,-2.7503,-2.7503,-2.7503,-2.7503,-2.7503,-2.7503,-2.7503,-2.7503,-2.7503,-2.7503,-2.7503,-2.7503,-2.7503,-2.7503,-2.7503,-2.7503,-2.7503,-2.7503,-2.7503,-2.7503,-2.7503,-2.7536,-2.7536,-2.759,-2.7689,-2.7723,-2.7723,-2.7855,-2.7908,-1.465,-1.4734,-1.4776,-1.5014,-1.5325,-1.5915,-1.6477,-1.6903,-1.7084,-1.726,-1.7286,-1.7286,-1.7939,-1.8735,-1.8827,-1.9463,-2.0275,-2.1132,-2.1784,-2.2403,-2.2994,-2.3797,-2.4239,-2.4421,-2.4454,-2.4464,-2.4528,-2.458,-2.4662,-2.4714,-2.4931,-2.5241,-2.5792,-2.5637,-2.5575,-2.5606,-2.5161,-2.4786,-2.4786,-2.4683,-2.4634,-2.4658,-2.4988,-2.5242,-2.5633,-2.6135,-2.655,-2.685,-2.7026,-2.7069,-2.7041,-2.7001,-2.6978,-2.6841,-2.6565,-2.6106,-2.6088,-2.6157,-2.6341,-2.6714,-2.6783,-2.637,-2.606,-2.552,-2.5038,-2.4694,-2.4602,-2.4499,-2.443,-2.4522,-2.4745,-2.4839,-2.498,-2.5208,-2.5317,-2.554,-2.5762,-2.6214,-2.6732,-2.7052,-2.7481,-2.7488,-2.7699,-2.7607,-2.7646,-2.7555,-2.7516,-2.7529,-2.7503,-2.7503,-2.7503,-2.7503,-2.7503,-2.7503,-2.7503,-2.7503,-2.7503,-2.7503,-2.7503,-2.7503,-2.7503,-2.7503,-2.7503,-2.7503,-2.7503,-2.7503,-2.7503,-2.7536,-2.7623,-2.7769,-2.7868,-2.7868,-2.7888,-2.8052,-2.8203,-1.4908,-1.4999,-1.4999,-1.5154,-1.5503,-1.625,-1.6734,-1.6939,-1.7186,-1.738,-1.7613,-1.7613,-1.8164,-1.905,-1.9188,-1.9729,-2.0817,-2.1347,-2.2059,-2.2994,-2.3624,-2.4013,-2.4325,-2.4507,-2.4507,-2.4507,-2.4507,-2.4518,-2.4507,-2.4518,-2.4704,-2.489,-2.5409,-2.5461,-2.543,-2.5513,-2.5461,-2.5044,-2.4817,-2.4735,-2.475,-2.4796,-2.5031,-2.5327,-2.5759,-2.6218,-2.6644,-2.6891,-2.7056,-2.7179,-2.719,-2.719,-2.711,-2.7024,-2.6841,-2.6444,-2.6421,-2.6409,-2.6524,-2.6898,-2.6944,-2.6864,-2.6726,-2.6313,-2.5796,-2.5394,-2.5176,-2.4992,-2.4923,-2.4961,-2.5235,-2.5521,-2.5832,-2.6171,-2.6373,-2.6612,-2.7013,-2.7397,-2.7737,-2.8048,-2.8143,-2.8066,-2.8033,-2.7928,-2.7785,-2.7646,-2.7659,-2.7738,-2.7633,-2.7503,-2.7503,-2.7503,-2.7503,-2.7503,-2.7503,-2.7503,-2.7503,-2.7503,-2.7503,-2.7503,-2.7503,-2.7503,-2.7503,-2.7503,-2.7503,-2.7503,-2.7536,-2.7656,-2.7789,-2.7934,-2.8131,-2.8249,-2.8281,-2.8314,-2.8509,-1.5215,-1.5389,-1.5396,-1.5564,-1.5972,-1.6565,-1.6851,-1.6939,-1.724,-1.7652,-1.7994,-1.8087,-1.8635,-1.9463,-1.9554,-2.0266,-2.1078,-2.1704,-2.2378,-2.3503,-2.3711,-2.4067,-2.4368,-2.4507,-2.4507,-2.4507,-2.4507,-2.4507,-2.4507,-2.4528,-2.4549,-2.4569,-2.5003,-2.5285,-2.5378,-2.5647,-2.5637,-2.5368,-2.4952,-2.4724,-2.4748,-2.4859,-2.5137,-2.5485,-2.5946,-2.6456,-2.6809,-2.7067,-2.719,-2.719,-2.719,-2.719,-2.7052,-2.6909,-2.6668,-2.6651,-2.6645,-2.657,-2.6634,-2.6944,-2.707,-2.7105,-2.7121,-2.6864,-2.6416,-2.5957,-2.5693,-2.5429,-2.5325,-2.5654,-2.598,-2.6212,-2.6491,-2.7011,-2.7399,-2.7617,-2.7948,-2.8325,-2.8627,-2.8843,-2.8802,-2.8739,-2.8556,-2.8464,-2.8412,-2.8072,-2.8033,-2.8177,-2.8098,-2.7868,-2.7673,-2.7646,-2.7529,-2.7529,-2.7503,-2.7503,-2.7503,-2.7503,-2.7503,-2.7503,-2.7503,-2.7503,-2.7503,-2.7503,-2.7503,-2.7536,-2.7556,-2.7756,-2.7954,-2.8164,-2.8392,-2.8638,-2.8716,-2.8797,-2.8853,-1.5347,-1.5389,-1.5389,-1.5571,-1.5943,-1.6316,-1.6683,-1.697,-1.7611,-1.7994,-1.8079,-1.8226,-1.8866,-2.0011,-1.982,-2.0492,-2.1704,-2.2094,-2.2687,-2.3493,-2.398,-2.4196,-2.4454,-2.4507,-2.4507,-2.4507,-2.4507,-2.4507,-2.4507,-2.4528,-2.4683,-2.4962,-2.5189,-2.5306,-2.572,-2.5989,-2.5771,-2.5606,-2.5316,-2.5037,-2.5028,-2.5355,-2.5701,-2.5826,-2.6104,-2.6625,-2.6967,-2.7108,-2.719,-2.719,-2.719,-2.719,-2.7167,-2.7082,-2.7036,-2.7036,-2.6909,-2.676,-2.6634,-2.6841,-2.7059,-2.6967,-2.6967,-2.7041,-2.6921,-2.6519,-2.6214,-2.5911,-2.5958,-2.6376,-2.6749,-2.696,-2.7272,-2.7849,-2.8392,-2.8651,-2.8908,-2.9226,-2.9514,-2.9551,-2.9487,-2.934,-2.9157,-2.9026,-2.8974,-2.8948,-2.8948,-2.8987,-2.8935,-2.8752,-2.8242,-2.8051,-2.7646,-2.7581,-2.7581,-2.7581,-2.7633,-2.7542,-2.7503,-2.7503,-2.7503,-2.7503,-2.7503,-2.7503,-2.7503,-2.7523,-2.7656,-2.7901,-2.8099,-2.8341,-2.8801,-2.91,-2.943,-2.9592,-2.9503,-1.5258,-1.5382,-1.5389,-1.5484,-1.576,-1.617,-1.6521,-1.6839,-1.7689,-1.8226,-1.8458,-1.8727,-1.9455,-2.0501,-2.0311,-2.1024,-2.2325,-2.2633,-2.3256,-2.3927,-2.4239,-2.4411,-2.4507,-2.4507,-2.4507,-2.4507,-2.4507,-2.4507,-2.4507,-2.4518,-2.4673,-2.491,-2.5065,-2.5482,-2.6009,-2.5875,-2.5906,-2.5865,-2.5616,-2.5464,-2.5365,-2.5592,-2.6023,-2.6145,-2.6499,-2.6956,-2.7231,-2.7309,-2.719,-2.719,-2.719,-2.719,-2.719,-2.7156,-2.6932,-2.6795,-2.676,-2.6858,-2.66,-2.6691,-2.7007,-2.6967,-2.6978,-2.7133,-2.7226,-2.695,-2.7167,-2.6934,-2.6923,-2.7273,-2.7876,-2.8183,-2.8465,-2.8936,-2.9257,-2.9553,-2.9847,-3.0148,-3.0318,-3.0364,-3.0241,-3.0072,-2.9876,-2.9617,-2.9549,-2.9248,-2.9353,-2.9444,-2.9457,-2.9624,-2.9065,-2.8699,-2.8425,-2.8072,-2.802,-2.7954,-2.7863,-2.7745,-2.7503,-2.7503,-2.7503,-2.7503,-2.7503,-2.7503,-2.749,-2.7523,-2.7689,-2.7934,-2.8229,-2.8457,-2.9031,-2.9619,-2.9933,-3.0271,-3.041,-1.5097,-1.5374,-1.5389,-1.5418,-1.5528,-1.606,-1.6426,-1.6647,-1.7591,-1.8425,-1.8953,-1.9455,-2.0268,-2.0808,-2.1212,-2.2148,-2.2818,-2.3047,-2.3711,-2.4196,-2.4454,-2.4507,-2.4507,-2.4507,-2.4507,-2.4507,-2.4507,-2.4507,-2.4507,-2.4507,-2.4538,-2.46,-2.4879,-2.5275,-2.542,-2.572,-2.6041,-2.6065,-2.5934,-2.5818,-2.5716,-2.5605,-2.6086,-2.6552,-2.6959,-2.7247,-2.7515,-2.7541,-2.7213,-2.719,-2.719,-2.719,-2.719,-2.7167,-2.6812,-2.6628,-2.6869,-2.6703,-2.637,-2.672,-2.699,-2.7116,-2.7144,-2.7208,-2.7319,-2.751,-2.773,-2.786,-2.7848,-2.8119,-2.8715,-2.9055,-2.9326,-2.9689,-2.9998,-3.0228,-3.052,-3.081,-3.0872,-3.0934,-3.0803,-3.0634,-3.049,-3.0231,-3.0009,-2.9732,-2.964,-2.968,-2.9797,-3.0032,-2.9941,-2.9732,-2.9562,-2.9183,-2.8543,-2.8307,-2.8177,-2.7699,-2.7503,-2.7503,-2.7503,-2.7503,-2.7503,-2.7503,-2.749,-2.7523,-2.7723,-2.7954,-2.8262,-2.8603,-2.926,-2.9887,-3.0267,-3.0629,-3.1273,-1.509,-1.5389,-1.5389,-1.5528,-1.5811,-1.5957,-1.6314,-1.694,-1.7554,-1.8467,-1.9362,-2.0024,-2.0722,-2.1579,-2.1802,-2.2555,-2.3353,-2.3493,-2.3851,-2.4421,-2.4507,-2.4507,-2.4507,-2.4507,-2.4507,-2.4507,-2.4507,-2.4507,-2.4549,-2.4528,-2.4528,-2.458,-2.4993,-2.543,-2.5834,-2.6159,-2.6376,-2.6318,-2.6118,-2.5949,-2.5867,-2.5808,-2.5968,-2.6293,-2.6565,-2.6907,-2.7188,-2.7236,-2.7201,-2.719,-2.719,-2.719,-2.719,-2.7179,-2.6926,-2.6754,-2.6995,-2.6806,-2.6668,-2.6909,-2.7105,-2.6898,-2.6955,-2.7151,-2.7313,-2.7602,-2.7829,-2.8035,-2.8174,-2.8557,-2.9,-2.9118,-2.9378,-2.9921,-3.0305,-3.047,-3.0685,-3.0861,-3.0973,-3.1011,-3.0934,-3.0856,-3.083,-3.0712,-3.0699,-3.0477,-3.0464,-3.049,-3.0438,-3.0594,-3.0686,-3.0581,-3.0464,-2.965,-2.876,-2.8647,-2.8451,-2.7894,-2.7529,-2.7615,-2.7615,-2.7503,-2.7503,-2.7603,-2.7583,-2.7583,-2.7769,-2.8173,-2.8444,-2.8874,-2.9506,-3.0043,-3.0479,-3.1085,-3.1828]}]]